﻿<?xml version="1.0" encoding="utf-8"?><gpx creator="Garmin Desktop App" version="1.1" xsi:schemaLocation="http://www.topografix.com/GPX/1/1 http://www.topografix.com/GPX/1/1/gpx.xsd http://www.garmin.com/xmlschemas/WaypointExtension/v1 http://www8.garmin.com/xmlschemas/WaypointExtensionv1.xsd http://www.garmin.com/xmlschemas/TrackPointExtension/v1 http://www.garmin.com/xmlschemas/TrackPointExtensionv1.xsd http://www.garmin.com/xmlschemas/GpxExtensions/v3 http://www8.garmin.com/xmlschemas/GpxExtensionsv3.xsd http://www.garmin.com/xmlschemas/ActivityExtension/v1 http://www8.garmin.com/xmlschemas/ActivityExtensionv1.xsd http://www.garmin.com/xmlschemas/AdventuresExtensions/v1 http://www8.garmin.com/xmlschemas/AdventuresExtensionv1.xsd http://www.garmin.com/xmlschemas/PressureExtension/v1 http://www.garmin.com/xmlschemas/PressureExtensionv1.xsd http://www.garmin.com/xmlschemas/TripExtensions/v1 http://www.garmin.com/xmlschemas/TripExtensionsv1.xsd http://www.garmin.com/xmlschemas/TripMetaDataExtensions/v1 http://www.garmin.com/xmlschemas/TripMetaDataExtensionsv1.xsd http://www.garmin.com/xmlschemas/ViaPointTransportationModeExtensions/v1 http://www.garmin.com/xmlschemas/ViaPointTransportationModeExtensionsv1.xsd http://www.garmin.com/xmlschemas/CreationTimeExtension/v1 http://www.garmin.com/xmlschemas/CreationTimeExtensionsv1.xsd http://www.garmin.com/xmlschemas/AccelerationExtension/v1 http://www.garmin.com/xmlschemas/AccelerationExtensionv1.xsd http://www.garmin.com/xmlschemas/PowerExtension/v1 http://www.garmin.com/xmlschemas/PowerExtensionv1.xsd http://www.garmin.com/xmlschemas/VideoExtension/v1 http://www.garmin.com/xmlschemas/VideoExtensionv1.xsd" xmlns="http://www.topografix.com/GPX/1/1" xmlns:xsi="http://www.w3.org/2001/XMLSchema-instance" xmlns:wptx1="http://www.garmin.com/xmlschemas/WaypointExtension/v1" xmlns:gpxtrx="http://www.garmin.com/xmlschemas/GpxExtensions/v3" xmlns:gpxtpx="http://www.garmin.com/xmlschemas/TrackPointExtension/v1" xmlns:gpxx="http://www.garmin.com/xmlschemas/GpxExtensions/v3" xmlns:trp="http://www.garmin.com/xmlschemas/TripExtensions/v1" xmlns:adv="http://www.garmin.com/xmlschemas/AdventuresExtensions/v1" xmlns:prs="http://www.garmin.com/xmlschemas/PressureExtension/v1" xmlns:tmd="http://www.garmin.com/xmlschemas/TripMetaDataExtensions/v1" xmlns:vptm="http://www.garmin.com/xmlschemas/ViaPointTransportationModeExtensions/v1" xmlns:ctx="http://www.garmin.com/xmlschemas/CreationTimeExtension/v1" xmlns:gpxacc="http://www.garmin.com/xmlschemas/AccelerationExtension/v1" xmlns:gpxpx="http://www.garmin.com/xmlschemas/PowerExtension/v1" xmlns:vidx1="http://www.garmin.com/xmlschemas/VideoExtension/v1">

  <metadata>
    <link href="http://www.garmin.com">
      <text>Garmin International</text>
    </link>
    <time>2020-06-14T18:30:40Z</time>
    <bounds maxlat="51.292425217106938" maxlon="4.874565443024039" minlat="51.239454606547952" minlon="4.816401321440935" />
  </metadata>

  <trk>
    <name>lillse bergen poeyelheide 22 km jurgen</name>
    <extensions>
      <gpxx:TrackExtension>
        <gpxx:DisplayColor>Magenta</gpxx:DisplayColor>
      </gpxx:TrackExtension>
    </extensions>
    <trkseg>
      <trkpt lat="51.248427769169211" lon="4.85802392475307">
        <ele>-24.940000000000001</ele>
        <time>2020-06-14T09:03:59Z</time>
      </trkpt>
      <trkpt lat="51.248155273497105" lon="4.857825357466936">
        <ele>-22.239999999999998</ele>
        <time>2020-06-14T09:05:52Z</time>
      </trkpt>
      <trkpt lat="51.247926112264395" lon="4.85771656036377">
        <ele>-21.920000000000002</ele>
        <time>2020-06-14T09:06:07Z</time>
      </trkpt>
      <trkpt lat="51.247787056490779" lon="4.857651349157095">
        <ele>-21.739999999999998</ele>
        <time>2020-06-14T09:06:15Z</time>
      </trkpt>
      <trkpt lat="51.247751014307141" lon="4.857627879828215">
        <ele>-21.68</ele>
        <time>2020-06-14T09:06:18Z</time>
      </trkpt>
      <trkpt lat="51.247677085921168" lon="4.857592172920704">
        <ele>-21.550000000000001</ele>
        <time>2020-06-14T09:06:24Z</time>
      </trkpt>
      <trkpt lat="51.247475165873766" lon="4.857465270906687">
        <ele>-21.27</ele>
        <time>2020-06-14T09:06:38Z</time>
      </trkpt>
      <trkpt lat="51.247412301599979" lon="4.85743417404592">
        <ele>-21.170000000000002</ele>
        <time>2020-06-14T09:06:43Z</time>
      </trkpt>
      <trkpt lat="51.247236784547567" lon="4.857341218739748">
        <ele>-20.940000000000001</ele>
        <time>2020-06-14T09:06:55Z</time>
      </trkpt>
      <trkpt lat="51.247153300791979" lon="4.857357228174806">
        <ele>-20.780000000000001</ele>
        <time>2020-06-14T09:07:04Z</time>
      </trkpt>
      <trkpt lat="51.247091945260763" lon="4.857566021382809">
        <ele>-20.52</ele>
        <time>2020-06-14T09:07:19Z</time>
      </trkpt>
      <trkpt lat="51.247079372406006" lon="4.857626119628549">
        <ele>-20.469999999999999</ele>
        <time>2020-06-14T09:07:22Z</time>
      </trkpt>
      <trkpt lat="51.247048862278461" lon="4.857850167900324">
        <ele>-20.32</ele>
        <time>2020-06-14T09:07:32Z</time>
      </trkpt>
      <trkpt lat="51.247028410434723" lon="4.858031133189797">
        <ele>-20.199999999999999</ele>
        <time>2020-06-14T09:07:41Z</time>
      </trkpt>
      <trkpt lat="51.247005527839065" lon="4.858260545879602">
        <ele>-20.07</ele>
        <time>2020-06-14T09:07:51Z</time>
      </trkpt>
      <trkpt lat="51.24697795137763" lon="4.858395494520664">
        <ele>-20</ele>
        <time>2020-06-14T09:07:57Z</time>
      </trkpt>
      <trkpt lat="51.246944339945912" lon="4.858581488952041">
        <ele>-19.91</ele>
        <time>2020-06-14T09:08:06Z</time>
      </trkpt>
      <trkpt lat="51.246891701593995" lon="4.858875945210457">
        <ele>-19.800000000000001</ele>
        <time>2020-06-14T09:08:18Z</time>
      </trkpt>
      <trkpt lat="51.246845936402678" lon="4.859246257692576">
        <ele>-19.670000000000002</ele>
        <time>2020-06-14T09:08:35Z</time>
      </trkpt>
      <trkpt lat="51.246793549507856" lon="4.859603578224778">
        <ele>-19.559999999999999</ele>
        <time>2020-06-14T09:08:51Z</time>
      </trkpt>
      <trkpt lat="51.246745688840747" lon="4.859911445528269">
        <ele>-19.48</ele>
        <time>2020-06-14T09:09:07Z</time>
      </trkpt>
      <trkpt lat="51.246715681627393" lon="4.8601343203336">
        <ele>-19.440000000000001</ele>
        <time>2020-06-14T09:09:18Z</time>
      </trkpt>
      <trkpt lat="51.246691457927227" lon="4.860539920628071">
        <ele>-19.399999999999999</ele>
        <time>2020-06-14T09:09:34Z</time>
      </trkpt>
      <trkpt lat="51.246685171499848" lon="4.860604042187333">
        <ele>-16.82</ele>
        <time>2020-06-14T09:09:37Z</time>
      </trkpt>
      <trkpt lat="51.246651224792004" lon="4.860879555344582">
        <ele>-16.789999999999999</ele>
        <time>2020-06-14T09:09:50Z</time>
      </trkpt>
      <trkpt lat="51.246638484299183" lon="4.860885757952929">
        <ele>-16.789999999999999</ele>
        <time>2020-06-14T09:09:51Z</time>
      </trkpt>
      <trkpt lat="51.246491214260459" lon="4.860950214788318">
        <ele>-20.629999999999999</ele>
        <time>2020-06-14T09:10:02Z</time>
      </trkpt>
      <trkpt lat="51.246483083814383" lon="4.860949963331223">
        <ele>-20.629999999999999</ele>
        <time>2020-06-14T09:10:03Z</time>
      </trkpt>
      <trkpt lat="51.246457602828741" lon="4.860937558114529">
        <ele>-16.850000000000001</ele>
        <time>2020-06-14T09:10:05Z</time>
      </trkpt>
      <trkpt lat="51.246430948376656" lon="4.860932026058435">
        <ele>-16.850000000000001</ele>
        <time>2020-06-14T09:10:06Z</time>
      </trkpt>
      <trkpt lat="51.246151244267821" lon="4.86090193502605">
        <ele>-16.75</ele>
        <time>2020-06-14T09:10:19Z</time>
      </trkpt>
      <trkpt lat="51.245905486866832" lon="4.860870083793998">
        <ele>-16.609999999999999</ele>
        <time>2020-06-14T09:10:34Z</time>
      </trkpt>
      <trkpt lat="51.245676912367344" lon="4.860860360786319">
        <ele>-16.489999999999998</ele>
        <time>2020-06-14T09:10:47Z</time>
      </trkpt>
      <trkpt lat="51.245503490790725" lon="4.860842926427722">
        <ele>-16.469999999999999</ele>
        <time>2020-06-14T09:10:56Z</time>
      </trkpt>
      <trkpt lat="51.24536351300776" lon="4.860813589766622">
        <ele>-16.309999999999999</ele>
        <time>2020-06-14T09:11:06Z</time>
      </trkpt>
      <trkpt lat="51.245306599885225" lon="4.860804118216038">
        <ele>-18.530000000000001</ele>
        <time>2020-06-14T09:11:10Z</time>
      </trkpt>
      <trkpt lat="51.245010467246175" lon="4.860815014690161">
        <ele>-18.390000000000001</ele>
        <time>2020-06-14T09:11:25Z</time>
      </trkpt>
      <trkpt lat="51.244987836107612" lon="4.860813757404685">
        <ele>-18.370000000000001</ele>
        <time>2020-06-14T09:11:26Z</time>
      </trkpt>
      <trkpt lat="51.244821539148688" lon="4.860835047438741">
        <ele>-18.27</ele>
        <time>2020-06-14T09:11:37Z</time>
      </trkpt>
      <trkpt lat="51.244552060961723" lon="4.860832029953599">
        <ele>-18.100000000000001</ele>
        <time>2020-06-14T09:11:53Z</time>
      </trkpt>
      <trkpt lat="51.244289707392454" lon="4.860831275582314">
        <ele>-17.98</ele>
        <time>2020-06-14T09:12:08Z</time>
      </trkpt>
      <trkpt lat="51.244027353823185" lon="4.860812164843082">
        <ele>-17.75</ele>
        <time>2020-06-14T09:12:25Z</time>
      </trkpt>
      <trkpt lat="51.243811184540391" lon="4.860746869817376">
        <ele>-17.629999999999999</ele>
        <time>2020-06-14T09:12:38Z</time>
      </trkpt>
      <trkpt lat="51.243596691638231" lon="4.860690627247095">
        <ele>-17.420000000000002</ele>
        <time>2020-06-14T09:12:51Z</time>
      </trkpt>
      <trkpt lat="51.243396028876305" lon="4.860651064664125">
        <ele>-17.23</ele>
        <time>2020-06-14T09:13:04Z</time>
      </trkpt>
      <trkpt lat="51.243198635056615" lon="4.860609574243426">
        <ele>-17.079999999999998</ele>
        <time>2020-06-14T09:13:17Z</time>
      </trkpt>
      <trkpt lat="51.242966959252954" lon="4.860607227310538">
        <ele>-16.879999999999999</ele>
        <time>2020-06-14T09:13:30Z</time>
      </trkpt>
      <trkpt lat="51.242928151041269" lon="4.860615022480488">
        <ele>-18.140000000000001</ele>
        <time>2020-06-14T09:13:32Z</time>
      </trkpt>
      <trkpt lat="51.242663534358144" lon="4.86058778129518">
        <ele>-17.949999999999999</ele>
        <time>2020-06-14T09:13:48Z</time>
      </trkpt>
      <trkpt lat="51.242383494973183" lon="4.860522486269474">
        <ele>-17.66</ele>
        <time>2020-06-14T09:14:05Z</time>
      </trkpt>
      <trkpt lat="51.242088368162513" lon="4.860420981422067">
        <ele>-17.41</ele>
        <time>2020-06-14T09:14:23Z</time>
      </trkpt>
      <trkpt lat="51.241780752316117" lon="4.860314363613725">
        <ele>-17.109999999999999</ele>
        <time>2020-06-14T09:14:42Z</time>
      </trkpt>
      <trkpt lat="51.241555027663708" lon="4.860233729705215">
        <ele>-16.859999999999999</ele>
        <time>2020-06-14T09:14:58Z</time>
      </trkpt>
      <trkpt lat="51.241329973563552" lon="4.860169189050794">
        <ele>-16.579999999999998</ele>
        <time>2020-06-14T09:15:13Z</time>
      </trkpt>
      <trkpt lat="51.241141464561224" lon="4.860108755528927">
        <ele>-16.370000000000001</ele>
        <time>2020-06-14T09:15:26Z</time>
      </trkpt>
      <trkpt lat="51.240988578647375" lon="4.860067348927259">
        <ele>-16.170000000000002</ele>
        <time>2020-06-14T09:15:36Z</time>
      </trkpt>
      <trkpt lat="51.240882379934192" lon="4.860008843243122">
        <ele>-15.960000000000001</ele>
        <time>2020-06-14T09:15:44Z</time>
      </trkpt>
      <trkpt lat="51.240576440468431" lon="4.859923264011741">
        <ele>-15.69</ele>
        <time>2020-06-14T09:16:07Z</time>
      </trkpt>
      <trkpt lat="51.240501841530204" lon="4.859887640923262">
        <ele>-15.68</ele>
        <time>2020-06-14T09:16:13Z</time>
      </trkpt>
      <trkpt lat="51.240216521546245" lon="4.859808851033449">
        <ele>-15.470000000000001</ele>
        <time>2020-06-14T09:16:29Z</time>
      </trkpt>
      <trkpt lat="51.240008734166622" lon="4.859830560162664">
        <ele>-15.25</ele>
        <time>2020-06-14T09:16:41Z</time>
      </trkpt>
      <trkpt lat="51.23973892070353" lon="4.859912451356649">
        <ele>-15.029999999999999</ele>
        <time>2020-06-14T09:16:58Z</time>
      </trkpt>
      <trkpt lat="51.23953708447516" lon="4.860011609271169">
        <ele>-14.699999999999999</ele>
        <time>2020-06-14T09:17:12Z</time>
      </trkpt>
      <trkpt lat="51.239458965137601" lon="4.860136331990361">
        <ele>-14.609999999999999</ele>
        <time>2020-06-14T09:17:20Z</time>
      </trkpt>
      <trkpt lat="51.239454606547952" lon="4.860207494348288">
        <ele>-14.640000000000001</ele>
        <time>2020-06-14T09:17:24Z</time>
      </trkpt>
      <trkpt lat="51.239489810541272" lon="4.860327774658799">
        <ele>-14.640000000000001</ele>
        <time>2020-06-14T09:17:30Z</time>
      </trkpt>
      <trkpt lat="51.239529037848115" lon="4.860442942008376">
        <ele>-14.609999999999999</ele>
        <time>2020-06-14T09:17:35Z</time>
      </trkpt>
      <trkpt lat="51.239581257104874" lon="4.860670678317547">
        <ele>-14.48</ele>
        <time>2020-06-14T09:17:44Z</time>
      </trkpt>
      <trkpt lat="51.239610929042101" lon="4.860797161236405">
        <ele>-14.43</ele>
        <time>2020-06-14T09:17:49Z</time>
      </trkpt>
      <trkpt lat="51.23965292237699" lon="4.860940407961607">
        <ele>-14.33</ele>
        <time>2020-06-14T09:17:55Z</time>
      </trkpt>
      <trkpt lat="51.239701705053449" lon="4.86114869825542">
        <ele>-14.220000000000001</ele>
        <time>2020-06-14T09:18:06Z</time>
      </trkpt>
      <trkpt lat="51.239829109981656" lon="4.86151565797627">
        <ele>-14.02</ele>
        <time>2020-06-14T09:18:22Z</time>
      </trkpt>
      <trkpt lat="51.239840677008033" lon="4.861552622169256">
        <ele>-13.98</ele>
        <time>2020-06-14T09:18:24Z</time>
      </trkpt>
      <trkpt lat="51.23987914994359" lon="4.861789578571916">
        <ele>-13.869999999999999</ele>
        <time>2020-06-14T09:18:38Z</time>
      </trkpt>
      <trkpt lat="51.239903876557946" lon="4.861874235793948">
        <ele>-13.82</ele>
        <time>2020-06-14T09:18:43Z</time>
      </trkpt>
      <trkpt lat="51.240021977573633" lon="4.861894436180592">
        <ele>-13.699999999999999</ele>
        <time>2020-06-14T09:18:56Z</time>
      </trkpt>
      <trkpt lat="51.240134965628386" lon="4.861990911886096">
        <ele>-13.56</ele>
        <time>2020-06-14T09:19:09Z</time>
      </trkpt>
      <trkpt lat="51.240384327247739" lon="4.86217481084168">
        <ele>-13.43</ele>
        <time>2020-06-14T09:19:27Z</time>
      </trkpt>
      <trkpt lat="51.240641986951232" lon="4.862449234351516">
        <ele>-13.32</ele>
        <time>2020-06-14T09:19:48Z</time>
      </trkpt>
      <trkpt lat="51.240748940035701" lon="4.86254763789475">
        <ele>-13.199999999999999</ele>
        <time>2020-06-14T09:19:57Z</time>
      </trkpt>
      <trkpt lat="51.241085221990943" lon="4.862770093604922">
        <ele>-13.09</ele>
        <time>2020-06-14T09:20:17Z</time>
      </trkpt>
      <trkpt lat="51.241100979968905" lon="4.86278266645968">
        <ele>-13.09</ele>
        <time>2020-06-14T09:20:18Z</time>
      </trkpt>
      <trkpt lat="51.241318322718143" lon="4.862962206825614">
        <ele>-13.039999999999999</ele>
        <time>2020-06-14T09:20:32Z</time>
      </trkpt>
      <trkpt lat="51.241439944133162" lon="4.863105118274689">
        <ele>-12.98</ele>
        <time>2020-06-14T09:20:43Z</time>
      </trkpt>
      <trkpt lat="51.241581095382571" lon="4.863440310582519">
        <ele>-12.859999999999999</ele>
        <time>2020-06-14T09:20:59Z</time>
      </trkpt>
      <trkpt lat="51.241652928292751" lon="4.863550197333098">
        <ele>-10.52</ele>
        <time>2020-06-14T09:21:05Z</time>
      </trkpt>
      <trkpt lat="51.24174278229475" lon="4.863710207864642">
        <ele>-10.42</ele>
        <time>2020-06-14T09:21:13Z</time>
      </trkpt>
      <trkpt lat="51.241805059835315" lon="4.863814059644938">
        <ele>-10.460000000000001</ele>
        <time>2020-06-14T09:21:18Z</time>
      </trkpt>
      <trkpt lat="51.241922322660685" lon="4.864097451791167">
        <ele>-10.5</ele>
        <time>2020-06-14T09:21:31Z</time>
      </trkpt>
      <trkpt lat="51.242034137248993" lon="4.864309933036566">
        <ele>-10.52</ele>
        <time>2020-06-14T09:21:45Z</time>
      </trkpt>
      <trkpt lat="51.242068922147155" lon="4.86442836932838">
        <ele>-10.48</ele>
        <time>2020-06-14T09:21:50Z</time>
      </trkpt>
      <trkpt lat="51.242147879675031" lon="4.864702122285962">
        <ele>-10.43</ele>
        <time>2020-06-14T09:22:01Z</time>
      </trkpt>
      <trkpt lat="51.242241756990552" lon="4.864840339869261">
        <ele>-10.380000000000001</ele>
        <time>2020-06-14T09:22:14Z</time>
      </trkpt>
      <trkpt lat="51.242374693974853" lon="4.865197828039527">
        <ele>-12.6</ele>
        <time>2020-06-14T09:22:30Z</time>
      </trkpt>
      <trkpt lat="51.242446191608906" lon="4.865333363413811">
        <ele>-10.220000000000001</ele>
        <time>2020-06-14T09:22:37Z</time>
      </trkpt>
      <trkpt lat="51.242480892688036" lon="4.865404106676579">
        <ele>-10.19</ele>
        <time>2020-06-14T09:22:41Z</time>
      </trkpt>
      <trkpt lat="51.242579882964492" lon="4.865613402798772">
        <ele>-9.949999999999999</ele>
        <time>2020-06-14T09:22:53Z</time>
      </trkpt>
      <trkpt lat="51.242610476911068" lon="4.865671740844846">
        <ele>-10.01</ele>
        <time>2020-06-14T09:22:56Z</time>
      </trkpt>
      <trkpt lat="51.24276059679687" lon="4.865978602319956">
        <ele>-9.9</ele>
        <time>2020-06-14T09:23:12Z</time>
      </trkpt>
      <trkpt lat="51.242902502417564" lon="4.866286721080542">
        <ele>-9.699999999999999</ele>
        <time>2020-06-14T09:23:27Z</time>
      </trkpt>
      <trkpt lat="51.243091514334083" lon="4.866553349420428">
        <ele>-9.640000000000001</ele>
        <time>2020-06-14T09:23:44Z</time>
      </trkpt>
      <trkpt lat="51.243198718875647" lon="4.866792485117912">
        <ele>-9.539999999999999</ele>
        <time>2020-06-14T09:23:56Z</time>
      </trkpt>
      <trkpt lat="51.243243562057614" lon="4.866862390190363">
        <ele>-9.48</ele>
        <time>2020-06-14T09:24:00Z</time>
      </trkpt>
      <trkpt lat="51.243399465456605" lon="4.867134215310216">
        <ele>-9.32</ele>
        <time>2020-06-14T09:24:15Z</time>
      </trkpt>
      <trkpt lat="51.243480518460274" lon="4.867257680743933">
        <ele>-9.25</ele>
        <time>2020-06-14T09:24:23Z</time>
      </trkpt>
      <trkpt lat="51.243598200380802" lon="4.867450883612037">
        <ele>-9.18</ele>
        <time>2020-06-14T09:24:35Z</time>
      </trkpt>
      <trkpt lat="51.243676319718361" lon="4.86755314283073">
        <ele>-9.1</ele>
        <time>2020-06-14T09:24:42Z</time>
      </trkpt>
      <trkpt lat="51.243740944191813" lon="4.867626149207354">
        <ele>-9.15</ele>
        <time>2020-06-14T09:24:48Z</time>
      </trkpt>
      <trkpt lat="51.243809424340725" lon="4.867698987945914">
        <ele>-9.07</ele>
        <time>2020-06-14T09:24:53Z</time>
      </trkpt>
      <trkpt lat="51.243956023827195" lon="4.867900740355253">
        <ele>-9.050000000000001</ele>
        <time>2020-06-14T09:25:06Z</time>
      </trkpt>
      <trkpt lat="51.243999190628529" lon="4.867968047037721">
        <ele>-9.050000000000001</ele>
        <time>2020-06-14T09:25:10Z</time>
      </trkpt>
      <trkpt lat="51.244019893929362" lon="4.867992354556918">
        <ele>-9.050000000000001</ele>
        <time>2020-06-14T09:25:12Z</time>
      </trkpt>
      <trkpt lat="51.24410136602819" lon="4.868114395067096">
        <ele>-9.039999999999999</ele>
        <time>2020-06-14T09:25:19Z</time>
      </trkpt>
      <trkpt lat="51.24423966743052" lon="4.86831639893353">
        <ele>-8.98</ele>
        <time>2020-06-14T09:25:31Z</time>
      </trkpt>
      <trkpt lat="51.244318205863237" lon="4.868420250713825">
        <ele>-8.94</ele>
        <time>2020-06-14T09:25:38Z</time>
      </trkpt>
      <trkpt lat="51.244376124814153" lon="4.868507338687778">
        <ele>-8.91</ele>
        <time>2020-06-14T09:25:43Z</time>
      </trkpt>
      <trkpt lat="51.244413256645203" lon="4.868537681177259">
        <ele>-8.890000000000001</ele>
        <time>2020-06-14T09:25:46Z</time>
      </trkpt>
      <trkpt lat="51.244480311870575" lon="4.868693165481091">
        <ele>-8.880000000000001</ele>
        <time>2020-06-14T09:25:54Z</time>
      </trkpt>
      <trkpt lat="51.244500847533345" lon="4.868728369474411">
        <ele>-8.869999999999999</ele>
        <time>2020-06-14T09:25:56Z</time>
      </trkpt>
      <trkpt lat="51.244567651301622" lon="4.868799783289433">
        <ele>-8.890000000000001</ele>
        <time>2020-06-14T09:26:01Z</time>
      </trkpt>
      <trkpt lat="51.244698241353035" lon="4.868853008374572">
        <ele>-8.84</ele>
        <time>2020-06-14T09:26:17Z</time>
      </trkpt>
      <trkpt lat="51.244975514709949" lon="4.868578165769577">
        <ele>-8.77</ele>
        <time>2020-06-14T09:26:36Z</time>
      </trkpt>
      <trkpt lat="51.245113564655185" lon="4.868446737527847">
        <ele>-11.140000000000001</ele>
        <time>2020-06-14T09:26:47Z</time>
      </trkpt>
      <trkpt lat="51.245327051728964" lon="4.868228975683451">
        <ele>-10.99</ele>
        <time>2020-06-14T09:27:04Z</time>
      </trkpt>
      <trkpt lat="51.2455203384161" lon="4.868021691218019">
        <ele>-10.970000000000001</ele>
        <time>2020-06-14T09:27:22Z</time>
      </trkpt>
      <trkpt lat="51.245745057240129" lon="4.867804851382971">
        <ele>-10.94</ele>
        <time>2020-06-14T09:27:41Z</time>
      </trkpt>
      <trkpt lat="51.245808508247137" lon="4.86776327714324">
        <ele>-10.890000000000001</ele>
        <time>2020-06-14T09:27:45Z</time>
      </trkpt>
      <trkpt lat="51.246011266484857" lon="4.867615504190326">
        <ele>-10.880000000000001</ele>
        <time>2020-06-14T09:27:56Z</time>
      </trkpt>
      <trkpt lat="51.246087625622749" lon="4.867454655468464">
        <ele>-10.9</ele>
        <time>2020-06-14T09:28:07Z</time>
      </trkpt>
      <trkpt lat="51.246206564828753" lon="4.867329262197018">
        <ele>-8.43</ele>
        <time>2020-06-14T09:28:17Z</time>
      </trkpt>
      <trkpt lat="51.246406892314553" lon="4.867152152583003">
        <ele>-8.27</ele>
        <time>2020-06-14T09:28:34Z</time>
      </trkpt>
      <trkpt lat="51.246587270870805" lon="4.866999266669154">
        <ele>-8.210000000000001</ele>
        <time>2020-06-14T09:28:48Z</time>
      </trkpt>
      <trkpt lat="51.246766392141581" lon="4.866819642484188">
        <ele>-8.15</ele>
        <time>2020-06-14T09:29:04Z</time>
      </trkpt>
      <trkpt lat="51.246801931411028" lon="4.866810422390699">
        <ele>-8.1</ele>
        <time>2020-06-14T09:29:07Z</time>
      </trkpt>
      <trkpt lat="51.247035786509514" lon="4.86670196056366">
        <ele>-8.039999999999999</ele>
        <time>2020-06-14T09:29:21Z</time>
      </trkpt>
      <trkpt lat="51.247320435941219" lon="4.866474894806743">
        <ele>-7.88</ele>
        <time>2020-06-14T09:29:39Z</time>
      </trkpt>
      <trkpt lat="51.247489918023348" lon="4.866352854296565">
        <ele>-7.73</ele>
        <time>2020-06-14T09:29:56Z</time>
      </trkpt>
      <trkpt lat="51.247737184166908" lon="4.866172727197409">
        <ele>-7.59</ele>
        <time>2020-06-14T09:30:16Z</time>
      </trkpt>
      <trkpt lat="51.247875317931175" lon="4.866074407473207">
        <ele>-7.49</ele>
        <time>2020-06-14T09:30:29Z</time>
      </trkpt>
      <trkpt lat="51.24808955937624" lon="4.865921689197421">
        <ele>-7.36</ele>
        <time>2020-06-14T09:30:48Z</time>
      </trkpt>
      <trkpt lat="51.248339591547847" lon="4.86568414606154">
        <ele>-7.26</ele>
        <time>2020-06-14T09:31:05Z</time>
      </trkpt>
      <trkpt lat="51.24842232093215" lon="4.865629496052861">
        <ele>-7.29</ele>
        <time>2020-06-14T09:31:09Z</time>
      </trkpt>
      <trkpt lat="51.248533297330141" lon="4.865545174106956">
        <ele>-7.28</ele>
        <time>2020-06-14T09:31:16Z</time>
      </trkpt>
      <trkpt lat="51.248849714174867" lon="4.865348786115646">
        <ele>-7.31</ele>
        <time>2020-06-14T09:31:34Z</time>
      </trkpt>
      <trkpt lat="51.249116007238626" lon="4.865167904645205">
        <ele>-7.29</ele>
        <time>2020-06-14T09:31:52Z</time>
      </trkpt>
      <trkpt lat="51.249288506805897" lon="4.865062795579433">
        <ele>-7.23</ele>
        <time>2020-06-14T09:32:04Z</time>
      </trkpt>
      <trkpt lat="51.24936587177217" lon="4.865021724253893">
        <ele>-7.22</ele>
        <time>2020-06-14T09:32:09Z</time>
      </trkpt>
      <trkpt lat="51.24946067109704" lon="4.865035051479936">
        <ele>-7.2</ele>
        <time>2020-06-14T09:32:13Z</time>
      </trkpt>
      <trkpt lat="51.249599726870656" lon="4.865166312083602">
        <ele>-7.17</ele>
        <time>2020-06-14T09:32:22Z</time>
      </trkpt>
      <trkpt lat="51.249720258638263" lon="4.865373261272907">
        <ele>-7.11</ele>
        <time>2020-06-14T09:32:33Z</time>
      </trkpt>
      <trkpt lat="51.249861577525735" lon="4.865596387535334">
        <ele>-7.07</ele>
        <time>2020-06-14T09:32:46Z</time>
      </trkpt>
      <trkpt lat="51.249873898923397" lon="4.865611726418138">
        <ele>-7.04</ele>
        <time>2020-06-14T09:32:47Z</time>
      </trkpt>
      <trkpt lat="51.249962579458952" lon="4.865816244855523">
        <ele>-7.04</ele>
        <time>2020-06-14T09:32:58Z</time>
      </trkpt>
      <trkpt lat="51.250079674646258" lon="4.866065355017781">
        <ele>-6.93</ele>
        <time>2020-06-14T09:33:11Z</time>
      </trkpt>
      <trkpt lat="51.250122338533401" lon="4.866162501275539">
        <ele>-6.91</ele>
        <time>2020-06-14T09:33:15Z</time>
      </trkpt>
      <trkpt lat="51.250253263860941" lon="4.866430554538965">
        <ele>-6.83</ele>
        <time>2020-06-14T09:33:29Z</time>
      </trkpt>
      <trkpt lat="51.250395840033889" lon="4.866694584488869">
        <ele>-6.82</ele>
        <time>2020-06-14T09:33:42Z</time>
      </trkpt>
      <trkpt lat="51.250514695420861" lon="4.866939587518573">
        <ele>-6.74</ele>
        <time>2020-06-14T09:33:54Z</time>
      </trkpt>
      <trkpt lat="51.250556102022529" lon="4.867007648572326">
        <ele>-6.7</ele>
        <time>2020-06-14T09:33:58Z</time>
      </trkpt>
      <trkpt lat="51.250618966296315" lon="4.867136394605041">
        <ele>-6.63</ele>
        <time>2020-06-14T09:34:05Z</time>
      </trkpt>
      <trkpt lat="51.25066950917244" lon="4.867246113717556">
        <ele>-6.55</ele>
        <time>2020-06-14T09:34:12Z</time>
      </trkpt>
      <trkpt lat="51.250722482800484" lon="4.867330435663462">
        <ele>-6.51</ele>
        <time>2020-06-14T09:34:18Z</time>
      </trkpt>
      <trkpt lat="51.250814348459244" lon="4.867475777864456">
        <ele>-6.49</ele>
        <time>2020-06-14T09:34:27Z</time>
      </trkpt>
      <trkpt lat="51.250850139185786" lon="4.867556998506188">
        <ele>-6.44</ele>
        <time>2020-06-14T09:34:31Z</time>
      </trkpt>
      <trkpt lat="51.250878470018506" lon="4.86762355081737">
        <ele>-6.44</ele>
        <time>2020-06-14T09:34:36Z</time>
      </trkpt>
      <trkpt lat="51.250885259360075" lon="4.867701334878802">
        <ele>-6.36</ele>
        <time>2020-06-14T09:34:42Z</time>
      </trkpt>
      <trkpt lat="51.25075357966125" lon="4.86791230738163">
        <ele>-6.24</ele>
        <time>2020-06-14T09:34:54Z</time>
      </trkpt>
      <trkpt lat="51.250587534159422" lon="4.868064355105162">
        <ele>-6.14</ele>
        <time>2020-06-14T09:35:06Z</time>
      </trkpt>
      <trkpt lat="51.250527687370777" lon="4.868122357875109">
        <ele>-6.09</ele>
        <time>2020-06-14T09:35:10Z</time>
      </trkpt>
      <trkpt lat="51.250386284664273" lon="4.868271639570594">
        <ele>-5.98</ele>
        <time>2020-06-14T09:35:22Z</time>
      </trkpt>
      <trkpt lat="51.25033238902688" lon="4.868319164961577">
        <ele>-5.92</ele>
        <time>2020-06-14T09:35:26Z</time>
      </trkpt>
      <trkpt lat="51.250170785933733" lon="4.868480348959565">
        <ele>-5.75</ele>
        <time>2020-06-14T09:35:40Z</time>
      </trkpt>
      <trkpt lat="51.24999862164259" lon="4.868647400289774">
        <ele>-5.65</ele>
        <time>2020-06-14T09:35:53Z</time>
      </trkpt>
      <trkpt lat="51.249793600291014" lon="4.868817636743188">
        <ele>-5.48</ele>
        <time>2020-06-14T09:36:08Z</time>
      </trkpt>
      <trkpt lat="51.249689999967813" lon="4.868882261216641">
        <ele>-4.58</ele>
        <time>2020-06-14T09:36:15Z</time>
      </trkpt>
      <trkpt lat="51.249625962227583" lon="4.868913358077407">
        <ele>-4.59</ele>
        <time>2020-06-14T09:36:19Z</time>
      </trkpt>
      <trkpt lat="51.249555218964815" lon="4.86895065754652">
        <ele>-4.52</ele>
        <time>2020-06-14T09:36:23Z</time>
      </trkpt>
      <trkpt lat="51.249377774074674" lon="4.868769608438015">
        <ele>-4.33</ele>
        <time>2020-06-14T09:36:39Z</time>
      </trkpt>
      <trkpt lat="51.24921977519989" lon="4.868629211559892">
        <ele>-4.19</ele>
        <time>2020-06-14T09:36:51Z</time>
      </trkpt>
      <trkpt lat="51.249158754944801" lon="4.868615968152881">
        <ele>-4.15</ele>
        <time>2020-06-14T09:36:55Z</time>
      </trkpt>
      <trkpt lat="51.248958008363843" lon="4.868666930124164">
        <ele>-3.98</ele>
        <time>2020-06-14T09:37:09Z</time>
      </trkpt>
      <trkpt lat="51.24887770973146" lon="4.868699871003628">
        <ele>-3.95</ele>
        <time>2020-06-14T09:37:15Z</time>
      </trkpt>
      <trkpt lat="51.248743934556842" lon="4.868800789117813">
        <ele>-3.87</ele>
        <time>2020-06-14T09:37:27Z</time>
      </trkpt>
      <trkpt lat="51.248689787462354" lon="4.868817133828998">
        <ele>-3.84</ele>
        <time>2020-06-14T09:37:31Z</time>
      </trkpt>
      <trkpt lat="51.248457273468375" lon="4.868929283693433">
        <ele>-3.73</ele>
        <time>2020-06-14T09:37:47Z</time>
      </trkpt>
      <trkpt lat="51.248381668701768" lon="4.868983598425984">
        <ele>-3.71</ele>
        <time>2020-06-14T09:37:52Z</time>
      </trkpt>
      <trkpt lat="51.248257197439671" lon="4.869068339467049">
        <ele>-3.67</ele>
        <time>2020-06-14T09:38:00Z</time>
      </trkpt>
      <trkpt lat="51.248095678165555" lon="4.869154170155525">
        <ele>-3.62</ele>
        <time>2020-06-14T09:38:13Z</time>
      </trkpt>
      <trkpt lat="51.24794589355588" lon="4.869223572313786">
        <ele>-3.52</ele>
        <time>2020-06-14T09:38:28Z</time>
      </trkpt>
      <trkpt lat="51.247731652110815" lon="4.869292303919792">
        <ele>-3.47</ele>
        <time>2020-06-14T09:38:38Z</time>
      </trkpt>
      <trkpt lat="51.247504837810993" lon="4.869351731613278">
        <ele>-3.4</ele>
        <time>2020-06-14T09:38:52Z</time>
      </trkpt>
      <trkpt lat="51.24747977592051" lon="4.869373189285398">
        <ele>-3.4</ele>
        <time>2020-06-14T09:38:54Z</time>
      </trkpt>
      <trkpt lat="51.24738204292953" lon="4.869415434077382">
        <ele>-3.39</ele>
        <time>2020-06-14T09:39:01Z</time>
      </trkpt>
      <trkpt lat="51.247208202257752" lon="4.869393138214946">
        <ele>-3.39</ele>
        <time>2020-06-14T09:39:13Z</time>
      </trkpt>
      <trkpt lat="51.247129077091813" lon="4.869432784616947">
        <ele>-5.88</ele>
        <time>2020-06-14T09:39:19Z</time>
      </trkpt>
      <trkpt lat="51.247025728225708" lon="4.869560692459345">
        <ele>-5.89</ele>
        <time>2020-06-14T09:39:28Z</time>
      </trkpt>
      <trkpt lat="51.246861191466451" lon="4.869826231151819">
        <ele>-5.85</ele>
        <time>2020-06-14T09:39:43Z</time>
      </trkpt>
      <trkpt lat="51.24677318148315" lon="4.870003089308739">
        <ele>-5.81</ele>
        <time>2020-06-14T09:39:52Z</time>
      </trkpt>
      <trkpt lat="51.246637394651771" lon="4.870304334908724">
        <ele>-6.63</ele>
        <time>2020-06-14T09:40:06Z</time>
      </trkpt>
      <trkpt lat="51.246542176231742" lon="4.87047758884728">
        <ele>-6.65</ele>
        <time>2020-06-14T09:40:14Z</time>
      </trkpt>
      <trkpt lat="51.24642675742507" lon="4.870510194450617">
        <ele>-6.66</ele>
        <time>2020-06-14T09:40:21Z</time>
      </trkpt>
      <trkpt lat="51.246162308380008" lon="4.870339455083013">
        <ele>-6.57</ele>
        <time>2020-06-14T09:40:40Z</time>
      </trkpt>
      <trkpt lat="51.245886459946632" lon="4.870052039623261">
        <ele>-6.37</ele>
        <time>2020-06-14T09:41:01Z</time>
      </trkpt>
      <trkpt lat="51.245746146887541" lon="4.869974171742797">
        <ele>-6.27</ele>
        <time>2020-06-14T09:41:11Z</time>
      </trkpt>
      <trkpt lat="51.245603570714593" lon="4.870257312431932">
        <ele>-6.17</ele>
        <time>2020-06-14T09:41:27Z</time>
      </trkpt>
      <trkpt lat="51.245499467477202" lon="4.870560904964805">
        <ele>-6.06</ele>
        <time>2020-06-14T09:41:42Z</time>
      </trkpt>
      <trkpt lat="51.245491337031126" lon="4.870582530274987">
        <ele>-6.04</ele>
        <time>2020-06-14T09:41:43Z</time>
      </trkpt>
      <trkpt lat="51.245382875204086" lon="4.870899869129062">
        <ele>-5.95</ele>
        <time>2020-06-14T09:41:58Z</time>
      </trkpt>
      <trkpt lat="51.245316574349999" lon="4.871085528284311">
        <ele>-5.89</ele>
        <time>2020-06-14T09:42:08Z</time>
      </trkpt>
      <trkpt lat="51.245291009545326" lon="4.87115484662354">
        <ele>-5.81</ele>
        <time>2020-06-14T09:42:12Z</time>
      </trkpt>
      <trkpt lat="51.245239460840821" lon="4.871326005086303">
        <ele>-5.76</ele>
        <time>2020-06-14T09:42:19Z</time>
      </trkpt>
      <trkpt lat="51.24527114443481" lon="4.871438154950738">
        <ele>-5.75</ele>
        <time>2020-06-14T09:42:23Z</time>
      </trkpt>
      <trkpt lat="51.245461916550994" lon="4.871714171022177">
        <ele>-5.68</ele>
        <time>2020-06-14T09:42:39Z</time>
      </trkpt>
      <trkpt lat="51.245561745017767" lon="4.871850544586778">
        <ele>-5.54</ele>
        <time>2020-06-14T09:42:53Z</time>
      </trkpt>
      <trkpt lat="51.245566355064511" lon="4.871849790215492">
        <ele>-5.43</ele>
        <time>2020-06-14T09:43:06Z</time>
      </trkpt>
      <trkpt lat="51.245602313429117" lon="4.871905697509646">
        <ele>-5.28</ele>
        <time>2020-06-14T09:43:22Z</time>
      </trkpt>
      <trkpt lat="51.245610946789384" lon="4.871916677802801">
        <ele>-5.28</ele>
        <time>2020-06-14T09:43:23Z</time>
      </trkpt>
      <trkpt lat="51.245644725859165" lon="4.871935956180096">
        <ele>-5.27</ele>
        <time>2020-06-14T09:43:26Z</time>
      </trkpt>
      <trkpt lat="51.245685378089547" lon="4.871997395530343">
        <ele>-5.21</ele>
        <time>2020-06-14T09:43:30Z</time>
      </trkpt>
      <trkpt lat="51.245932057499886" lon="4.872255977243185">
        <ele>-5.01</ele>
        <time>2020-06-14T09:43:50Z</time>
      </trkpt>
      <trkpt lat="51.246105059981346" lon="4.872415820136666">
        <ele>-4.9</ele>
        <time>2020-06-14T09:44:04Z</time>
      </trkpt>
      <trkpt lat="51.246353248134255" lon="4.872660404071212">
        <ele>-4.71</ele>
        <time>2020-06-14T09:44:23Z</time>
      </trkpt>
      <trkpt lat="51.246568327769637" lon="4.872867185622454">
        <ele>-4.59</ele>
        <time>2020-06-14T09:44:40Z</time>
      </trkpt>
      <trkpt lat="51.246808553114533" lon="4.873052341863513">
        <ele>-4.4</ele>
        <time>2020-06-14T09:44:59Z</time>
      </trkpt>
      <trkpt lat="51.246973006054759" lon="4.873161306604743">
        <ele>-4.31</ele>
        <time>2020-06-14T09:45:12Z</time>
      </trkpt>
      <trkpt lat="51.247158916667104" lon="4.873291477560997">
        <ele>-4.22</ele>
        <time>2020-06-14T09:45:27Z</time>
      </trkpt>
      <trkpt lat="51.247367793694139" lon="4.873483255505562">
        <ele>-4.16</ele>
        <time>2020-06-14T09:45:44Z</time>
      </trkpt>
      <trkpt lat="51.247397884726524" lon="4.873542934656143">
        <ele>-4.14</ele>
        <time>2020-06-14T09:45:48Z</time>
      </trkpt>
      <trkpt lat="51.247568288818002" lon="4.873660113662481">
        <ele>-4.14</ele>
        <time>2020-06-14T09:46:02Z</time>
      </trkpt>
      <trkpt lat="51.247789235785604" lon="4.87385842949152">
        <ele>-4.13</ele>
        <time>2020-06-14T09:46:16Z</time>
      </trkpt>
      <trkpt lat="51.247960729524493" lon="4.874027827754617">
        <ele>-4.13</ele>
        <time>2020-06-14T09:46:29Z</time>
      </trkpt>
      <trkpt lat="51.248170780017972" lon="4.8742082901299">
        <ele>-4.07</ele>
        <time>2020-06-14T09:46:43Z</time>
      </trkpt>
      <trkpt lat="51.248220065608621" lon="4.874251205474138">
        <ele>-3.96</ele>
        <time>2020-06-14T09:46:47Z</time>
      </trkpt>
      <trkpt lat="51.248275553807616" lon="4.874329324811697">
        <ele>-4.07</ele>
        <time>2020-06-14T09:46:53Z</time>
      </trkpt>
      <trkpt lat="51.248343363404274" lon="4.874412389472127">
        <ele>-4.08</ele>
        <time>2020-06-14T09:46:59Z</time>
      </trkpt>
      <trkpt lat="51.248639076948166" lon="4.874565443024039">
        <ele>-4.08</ele>
        <time>2020-06-14T09:47:17Z</time>
      </trkpt>
      <trkpt lat="51.248799674212933" lon="4.874261263757944">
        <ele>-4.87</ele>
        <time>2020-06-14T09:47:32Z</time>
      </trkpt>
      <trkpt lat="51.248929342254996" lon="4.87387360073626">
        <ele>-4.75</ele>
        <time>2020-06-14T09:47:50Z</time>
      </trkpt>
      <trkpt lat="51.249035960063338" lon="4.873597417026758">
        <ele>-4.65</ele>
        <time>2020-06-14T09:48:05Z</time>
      </trkpt>
      <trkpt lat="51.249065212905407" lon="4.873521309345961">
        <ele>-4.62</ele>
        <time>2020-06-14T09:48:09Z</time>
      </trkpt>
      <trkpt lat="51.249133357778192" lon="4.873344115912914">
        <ele>-4.54</ele>
        <time>2020-06-14T09:48:18Z</time>
      </trkpt>
      <trkpt lat="51.249259170144796" lon="4.872954022139311">
        <ele>-4.42</ele>
        <time>2020-06-14T09:48:33Z</time>
      </trkpt>
      <trkpt lat="51.249386994168162" lon="4.872534004971385">
        <ele>-4.27</ele>
        <time>2020-06-14T09:48:51Z</time>
      </trkpt>
      <trkpt lat="51.249498641118407" lon="4.872151957824826">
        <ele>-4.17</ele>
        <time>2020-06-14T09:49:07Z</time>
      </trkpt>
      <trkpt lat="51.249631829559803" lon="4.871737807989121">
        <ele>-4.03</ele>
        <time>2020-06-14T09:49:23Z</time>
      </trkpt>
      <trkpt lat="51.24978513456881" lon="4.871315192431212">
        <ele>-3.88</ele>
        <time>2020-06-14T09:49:43Z</time>
      </trkpt>
      <trkpt lat="51.249825451523066" lon="4.871031884104013">
        <ele>-3.77</ele>
        <time>2020-06-14T09:49:56Z</time>
      </trkpt>
      <trkpt lat="51.249967608600855" lon="4.870800543576479">
        <ele>-3.66</ele>
        <time>2020-06-14T09:50:11Z</time>
      </trkpt>
      <trkpt lat="51.250127367675304" lon="4.87063005566597">
        <ele>-3.58</ele>
        <time>2020-06-14T09:50:24Z</time>
      </trkpt>
      <trkpt lat="51.250180676579475" lon="4.87057289108634">
        <ele>-3.56</ele>
        <time>2020-06-14T09:50:28Z</time>
      </trkpt>
      <trkpt lat="51.250223005190492" lon="4.870530059561133">
        <ele>-3.54</ele>
        <time>2020-06-14T09:50:31Z</time>
      </trkpt>
      <trkpt lat="51.250365749001503" lon="4.870395697653294">
        <ele>-3.5</ele>
        <time>2020-06-14T09:50:42Z</time>
      </trkpt>
      <trkpt lat="51.250432468950748" lon="4.870353201404214">
        <ele>-3.5</ele>
        <time>2020-06-14T09:50:46Z</time>
      </trkpt>
      <trkpt lat="51.250619301572442" lon="4.870119597762823">
        <ele>-3.46</ele>
        <time>2020-06-14T09:51:00Z</time>
      </trkpt>
      <trkpt lat="51.25072818249464" lon="4.869854981079698">
        <ele>-3.44</ele>
        <time>2020-06-14T09:51:11Z</time>
      </trkpt>
      <trkpt lat="51.250824155285954" lon="4.869586424902082">
        <ele>-3.43</ele>
        <time>2020-06-14T09:51:24Z</time>
      </trkpt>
      <trkpt lat="51.250831782817841" lon="4.869565218687058">
        <ele>-3.42</ele>
        <time>2020-06-14T09:51:25Z</time>
      </trkpt>
      <trkpt lat="51.250935466960073" lon="4.869332117959857">
        <ele>-3.42</ele>
        <time>2020-06-14T09:51:37Z</time>
      </trkpt>
      <trkpt lat="51.251007970422506" lon="4.869115948677063">
        <ele>-3.44</ele>
        <time>2020-06-14T09:51:47Z</time>
      </trkpt>
      <trkpt lat="51.251064967364073" lon="4.868861641734839">
        <ele>-1.08</ele>
        <time>2020-06-14T09:51:57Z</time>
      </trkpt>
      <trkpt lat="51.251073516905308" lon="4.868830377236009">
        <ele>-1.08</ele>
        <time>2020-06-14T09:51:58Z</time>
      </trkpt>
      <trkpt lat="51.251175440847874" lon="4.868549164384604">
        <ele>-1.11</ele>
        <time>2020-06-14T09:52:11Z</time>
      </trkpt>
      <trkpt lat="51.251318352296948" lon="4.868319164961577">
        <ele>-1.15</ele>
        <time>2020-06-14T09:52:22Z</time>
      </trkpt>
      <trkpt lat="51.251369481906295" lon="4.868253450840712">
        <ele>-1.15</ele>
        <time>2020-06-14T09:52:26Z</time>
      </trkpt>
      <trkpt lat="51.251427149400115" lon="4.868205673992634">
        <ele>-1.17</ele>
        <time>2020-06-14T09:52:29Z</time>
      </trkpt>
      <trkpt lat="51.251638121902943" lon="4.867952289059758">
        <ele>-1.21</ele>
        <time>2020-06-14T09:52:40Z</time>
      </trkpt>
      <trkpt lat="51.251629153266549" lon="4.867872828617692">
        <ele>-1.21</ele>
        <time>2020-06-14T09:52:41Z</time>
      </trkpt>
      <trkpt lat="51.251597218215466" lon="4.867757661268115">
        <ele>-1.23</ele>
        <time>2020-06-14T09:52:45Z</time>
      </trkpt>
      <trkpt lat="51.251589171588421" lon="4.867697395384312">
        <ele>-1.34</ele>
        <time>2020-06-14T09:52:47Z</time>
      </trkpt>
      <trkpt lat="51.251602163538337" lon="4.867244688794017">
        <ele>-1.36</ele>
        <time>2020-06-14T09:52:56Z</time>
      </trkpt>
      <trkpt lat="51.251593194901943" lon="4.867273522540927">
        <ele>-1.27</ele>
        <time>2020-06-14T09:52:57Z</time>
      </trkpt>
      <trkpt lat="51.251775166019797" lon="4.867171095684171">
        <ele>-1.29</ele>
        <time>2020-06-14T09:53:09Z</time>
      </trkpt>
      <trkpt lat="51.251933583989739" lon="4.867081912234426">
        <ele>-1.25</ele>
        <time>2020-06-14T09:53:16Z</time>
      </trkpt>
      <trkpt lat="51.251958813518286" lon="4.867065316066146">
        <ele>-1.26</ele>
        <time>2020-06-14T09:53:17Z</time>
      </trkpt>
      <trkpt lat="51.251986222341657" lon="4.86705819144845">
        <ele>-1.26</ele>
        <time>2020-06-14T09:53:18Z</time>
      </trkpt>
      <trkpt lat="51.252014636993408" lon="4.867047211155295">
        <ele>-1.31</ele>
        <time>2020-06-14T09:53:19Z</time>
      </trkpt>
      <trkpt lat="51.252044225111604" lon="4.86703472211957">
        <ele>-1.23</ele>
        <time>2020-06-14T09:53:20Z</time>
      </trkpt>
      <trkpt lat="51.252071550115943" lon="4.867022735998035">
        <ele>-1.32</ele>
        <time>2020-06-14T09:53:21Z</time>
      </trkpt>
      <trkpt lat="51.252402802929282" lon="4.866872783750296">
        <ele>-1.34</ele>
        <time>2020-06-14T09:53:29Z</time>
      </trkpt>
      <trkpt lat="51.252569854259491" lon="4.866775134578347">
        <ele>-1.34</ele>
        <time>2020-06-14T09:53:33Z</time>
      </trkpt>
      <trkpt lat="51.252611512318254" lon="4.866758622229099">
        <ele>-1.33</ele>
        <time>2020-06-14T09:53:34Z</time>
      </trkpt>
      <trkpt lat="51.252859113737941" lon="4.866638006642461">
        <ele>-1.34</ele>
        <time>2020-06-14T09:53:44Z</time>
      </trkpt>
      <trkpt lat="51.252974951639771" lon="4.866575058549643">
        <ele>-1.38</ele>
        <time>2020-06-14T09:53:50Z</time>
      </trkpt>
      <trkpt lat="51.253004539757967" lon="4.866567933931947">
        <ele>-1.34</ele>
        <time>2020-06-14T09:53:51Z</time>
      </trkpt>
      <trkpt lat="51.253101518377662" lon="4.866547985002399">
        <ele>-1.37</ele>
        <time>2020-06-14T09:53:56Z</time>
      </trkpt>
      <trkpt lat="51.253184750676155" lon="4.86661646515131">
        <ele>-3.77</ele>
        <time>2020-06-14T09:54:02Z</time>
      </trkpt>
      <trkpt lat="51.253370828926563" lon="4.866845291107893">
        <ele>-3.72</ele>
        <time>2020-06-14T09:54:15Z</time>
      </trkpt>
      <trkpt lat="51.253380049020052" lon="4.86686272546649">
        <ele>-3.75</ele>
        <time>2020-06-14T09:54:16Z</time>
      </trkpt>
      <trkpt lat="51.253390610218048" lon="4.866876387968659">
        <ele>-3.75</ele>
        <time>2020-06-14T09:54:17Z</time>
      </trkpt>
      <trkpt lat="51.253410056233406" lon="4.866894241422415">
        <ele>-3.75</ele>
        <time>2020-06-14T09:54:18Z</time>
      </trkpt>
      <trkpt lat="51.253422629088163" lon="4.866913268342614">
        <ele>-3.6</ele>
        <time>2020-06-14T09:54:19Z</time>
      </trkpt>
      <trkpt lat="51.25343469902873" lon="4.866932798177004">
        <ele>-3.67</ele>
        <time>2020-06-14T09:54:20Z</time>
      </trkpt>
      <trkpt lat="51.253457833081484" lon="4.866971606388688">
        <ele>-3.58</ele>
        <time>2020-06-14T09:54:22Z</time>
      </trkpt>
      <trkpt lat="51.253475602716208" lon="4.86699465662241">
        <ele>-3.67</ele>
        <time>2020-06-14T09:54:23Z</time>
      </trkpt>
      <trkpt lat="51.253492617979646" lon="4.867018377408385">
        <ele>-3.65</ele>
        <time>2020-06-14T09:54:24Z</time>
      </trkpt>
      <trkpt lat="51.253509549424052" lon="4.867041260004044">
        <ele>-3.56</ele>
        <time>2020-06-14T09:54:25Z</time>
      </trkpt>
      <trkpt lat="51.253523798659444" lon="4.867061879485846">
        <ele>-3.61</ele>
        <time>2020-06-14T09:54:26Z</time>
      </trkpt>
      <trkpt lat="51.253536036238074" lon="4.867081744596362">
        <ele>-3.6</ele>
        <time>2020-06-14T09:54:27Z</time>
      </trkpt>
      <trkpt lat="51.253550117835402" lon="4.86710119061172">
        <ele>-3.55</ele>
        <time>2020-06-14T09:54:28Z</time>
      </trkpt>
      <trkpt lat="51.25356269069016" lon="4.867121307179332">
        <ele>-3.55</ele>
        <time>2020-06-14T09:54:29Z</time>
      </trkpt>
      <trkpt lat="51.253576017916203" lon="4.867142429575324">
        <ele>-3.54</ele>
        <time>2020-06-14T09:54:30Z</time>
      </trkpt>
      <trkpt lat="51.253590099513531" lon="4.867162210866809">
        <ele>-3.51</ele>
        <time>2020-06-14T09:54:31Z</time>
      </trkpt>
      <trkpt lat="51.253649443387985" lon="4.867250137031078">
        <ele>-3.49</ele>
        <time>2020-06-14T09:54:36Z</time>
      </trkpt>
      <trkpt lat="51.253660339862108" lon="4.867269080132246">
        <ele>-3.47</ele>
        <time>2020-06-14T09:54:37Z</time>
      </trkpt>
      <trkpt lat="51.253670984879136" lon="4.867285843938589">
        <ele>-3.45</ele>
        <time>2020-06-14T09:54:38Z</time>
      </trkpt>
      <trkpt lat="51.25380358658731" lon="4.867462366819382">
        <ele>-3.38</ele>
        <time>2020-06-14T09:54:49Z</time>
      </trkpt>
      <trkpt lat="51.25380652025342" lon="4.867509473115206">
        <ele>-3.44</ele>
        <time>2020-06-14T09:54:51Z</time>
      </trkpt>
      <trkpt lat="51.253822781145573" lon="4.867547191679478">
        <ele>-3.42</ele>
        <time>2020-06-14T09:54:53Z</time>
      </trkpt>
      <trkpt lat="51.25383242033422" lon="4.867564961314201">
        <ele>-3.4</ele>
        <time>2020-06-14T09:54:54Z</time>
      </trkpt>
      <trkpt lat="51.254023779183626" lon="4.867849191650748">
        <ele>-5.13</ele>
        <time>2020-06-14T09:55:08Z</time>
      </trkpt>
      <trkpt lat="51.254032077267766" lon="4.867866290733218">
        <ele>-1.74</ele>
        <time>2020-06-14T09:55:09Z</time>
      </trkpt>
      <trkpt lat="51.254041800275445" lon="4.867885988205671">
        <ele>-1.73</ele>
        <time>2020-06-14T09:55:10Z</time>
      </trkpt>
      <trkpt lat="51.254174066707492" lon="4.868103666231036">
        <ele>-1.64</ele>
        <time>2020-06-14T09:55:21Z</time>
      </trkpt>
      <trkpt lat="51.254242798313498" lon="4.8681884072721">
        <ele>-1.59</ele>
        <time>2020-06-14T09:55:27Z</time>
      </trkpt>
      <trkpt lat="51.254252353683114" lon="4.868202824145556">
        <ele>-1.6</ele>
        <time>2020-06-14T09:55:28Z</time>
      </trkpt>
      <trkpt lat="51.254265680909157" lon="4.868231741711497">
        <ele>-1.59</ele>
        <time>2020-06-14T09:55:29Z</time>
      </trkpt>
      <trkpt lat="51.254416638985276" lon="4.868497615680099">
        <ele>-1.44</ele>
        <time>2020-06-14T09:55:43Z</time>
      </trkpt>
      <trkpt lat="51.254466259852052" lon="4.86858026124537">
        <ele>-1.41</ele>
        <time>2020-06-14T09:55:46Z</time>
      </trkpt>
      <trkpt lat="51.254475563764572" lon="4.868612866848707">
        <ele>-1.37</ele>
        <time>2020-06-14T09:55:47Z</time>
      </trkpt>
      <trkpt lat="51.254501212388277" lon="4.868645891547203">
        <ele>-1.38</ele>
        <time>2020-06-14T09:55:48Z</time>
      </trkpt>
      <trkpt lat="51.254697684198618" lon="4.868858708068728">
        <ele>-1.34</ele>
        <time>2020-06-14T09:55:55Z</time>
      </trkpt>
      <trkpt lat="51.254917709156871" lon="4.869078146293759">
        <ele>-1.27</ele>
        <time>2020-06-14T09:56:07Z</time>
      </trkpt>
      <trkpt lat="51.255024159327149" lon="4.869248131290078">
        <ele>-1.22</ele>
        <time>2020-06-14T09:56:17Z</time>
      </trkpt>
      <trkpt lat="51.255102949216962" lon="4.869324322789908">
        <ele>-1.18</ele>
        <time>2020-06-14T09:56:28Z</time>
      </trkpt>
      <trkpt lat="51.255242172628641" lon="4.869297249242663">
        <ele>-1.16</ele>
        <time>2020-06-14T09:56:38Z</time>
      </trkpt>
      <trkpt lat="51.255339067429304" lon="4.869246454909444">
        <ele>-1.15</ele>
        <time>2020-06-14T09:56:43Z</time>
      </trkpt>
      <trkpt lat="51.255354825407267" lon="4.869242683053017">
        <ele>-1.15</ele>
        <time>2020-06-14T09:56:44Z</time>
      </trkpt>
      <trkpt lat="51.255534030497074" lon="4.869148721918464">
        <ele>-1.14</ele>
        <time>2020-06-14T09:56:58Z</time>
      </trkpt>
      <trkpt lat="51.25558951869607" lon="4.869124917313457">
        <ele>-1.14</ele>
        <time>2020-06-14T09:57:02Z</time>
      </trkpt>
      <trkpt lat="51.255608042702079" lon="4.869120642542839">
        <ele>-1.14</ele>
        <time>2020-06-14T09:57:03Z</time>
      </trkpt>
      <trkpt lat="51.25562522560358" lon="4.869117038324475">
        <ele>-1.14</ele>
        <time>2020-06-14T09:57:04Z</time>
      </trkpt>
      <trkpt lat="51.25564768910408" lon="4.869110165163875">
        <ele>-1.14</ele>
        <time>2020-06-14T09:57:05Z</time>
      </trkpt>
      <trkpt lat="51.255666045472026" lon="4.869104297831655">
        <ele>-1.14</ele>
        <time>2020-06-14T09:57:06Z</time>
      </trkpt>
      <trkpt lat="51.255686832591891" lon="4.86909868195653">
        <ele>-1.14</ele>
        <time>2020-06-14T09:57:07Z</time>
      </trkpt>
      <trkpt lat="51.255700075998902" lon="4.869090970605612">
        <ele>-1.14</ele>
        <time>2020-06-14T09:57:08Z</time>
      </trkpt>
      <trkpt lat="51.255714325234294" lon="4.869084935635328">
        <ele>-1.14</ele>
        <time>2020-06-14T09:57:09Z</time>
      </trkpt>
      <trkpt lat="51.255730586126447" lon="4.869080912321806">
        <ele>-1.15</ele>
        <time>2020-06-14T09:57:10Z</time>
      </trkpt>
      <trkpt lat="51.255747266113758" lon="4.869078230112791">
        <ele>-1.13</ele>
        <time>2020-06-14T09:57:11Z</time>
      </trkpt>
      <trkpt lat="51.255765622481704" lon="4.869072111323476">
        <ele>-1.14</ele>
        <time>2020-06-14T09:57:12Z</time>
      </trkpt>
      <trkpt lat="51.255783392116427" lon="4.869063813239336">
        <ele>-1.13</ele>
        <time>2020-06-14T09:57:13Z</time>
      </trkpt>
      <trkpt lat="51.255804179236293" lon="4.869057023897767">
        <ele>-1.13</ele>
        <time>2020-06-14T09:57:14Z</time>
      </trkpt>
      <trkpt lat="51.255823541432619" lon="4.869052162393928">
        <ele>-1.13</ele>
        <time>2020-06-14T09:57:15Z</time>
      </trkpt>
      <trkpt lat="51.256069131195545" lon="4.868975300341845">
        <ele>-1.16</ele>
        <time>2020-06-14T09:57:28Z</time>
      </trkpt>
      <trkpt lat="51.256304997950792" lon="4.868855020031333">
        <ele>-1.15</ele>
        <time>2020-06-14T09:57:42Z</time>
      </trkpt>
      <trkpt lat="51.256543882191181" lon="4.868599623441696">
        <ele>-1.13</ele>
        <time>2020-06-14T09:57:56Z</time>
      </trkpt>
      <trkpt lat="51.256772791966796" lon="4.868342047557235">
        <ele>-1.07</ele>
        <time>2020-06-14T09:58:07Z</time>
      </trkpt>
      <trkpt lat="51.25713556073606" lon="4.867873918265104">
        <ele>-1.02</ele>
        <time>2020-06-14T09:58:20Z</time>
      </trkpt>
      <trkpt lat="51.257367907091975" lon="4.867441579699516">
        <ele>-0.99</ele>
        <time>2020-06-14T09:58:31Z</time>
      </trkpt>
      <trkpt lat="51.257562702521682" lon="4.867143435403705">
        <ele>-0.95</ele>
        <time>2020-06-14T09:58:42Z</time>
      </trkpt>
      <trkpt lat="51.25775121152401" lon="4.866855600848794">
        <ele>-0.94</ele>
        <time>2020-06-14T09:58:53Z</time>
      </trkpt>
      <trkpt lat="51.258059497922659" lon="4.866396188735962">
        <ele>-0.98</ele>
        <time>2020-06-14T09:59:03Z</time>
      </trkpt>
      <trkpt lat="51.258254377171397" lon="4.865799816325307">
        <ele>-1.06</ele>
        <time>2020-06-14T09:59:13Z</time>
      </trkpt>
      <trkpt lat="51.258386978879571" lon="4.865196654573083">
        <ele>-1.1</ele>
        <time>2020-06-14T09:59:23Z</time>
      </trkpt>
      <trkpt lat="51.258440539240837" lon="4.864916866645217">
        <ele>-4.14</ele>
        <time>2020-06-14T09:59:33Z</time>
      </trkpt>
      <trkpt lat="51.258443305268884" lon="4.864895911887288">
        <ele>-4.13</ele>
        <time>2020-06-14T09:59:34Z</time>
      </trkpt>
      <trkpt lat="51.258474569767714" lon="4.864650825038552">
        <ele>-4.1</ele>
        <time>2020-06-14T09:59:44Z</time>
      </trkpt>
      <trkpt lat="51.258492171764374" lon="4.864545045420528">
        <ele>-1.89</ele>
        <time>2020-06-14T09:59:48Z</time>
      </trkpt>
      <trkpt lat="51.258486891165376" lon="4.864429458975792">
        <ele>-1.8</ele>
        <time>2020-06-14T09:59:53Z</time>
      </trkpt>
      <trkpt lat="51.258475994691253" lon="4.864413198083639">
        <ele>-1.88</ele>
        <time>2020-06-14T09:59:54Z</time>
      </trkpt>
      <trkpt lat="51.258466606959701" lon="4.86440003849566">
        <ele>-1.88</ele>
        <time>2020-06-14T09:59:55Z</time>
      </trkpt>
      <trkpt lat="51.258333586156368" lon="4.86409904435277">
        <ele>-1.8</ele>
        <time>2020-06-14T10:00:12Z</time>
      </trkpt>
      <trkpt lat="51.258221352472901" lon="4.863874493166804">
        <ele>-1.8</ele>
        <time>2020-06-14T10:00:20Z</time>
      </trkpt>
      <trkpt lat="51.258096629753709" lon="4.863608032464981">
        <ele>-1.7</ele>
        <time>2020-06-14T10:00:31Z</time>
      </trkpt>
      <trkpt lat="51.257944833487272" lon="4.863301087170839">
        <ele>-1.61</ele>
        <time>2020-06-14T10:00:44Z</time>
      </trkpt>
      <trkpt lat="51.257838550955057" lon="4.863081481307745">
        <ele>-1.58</ele>
        <time>2020-06-14T10:00:55Z</time>
      </trkpt>
      <trkpt lat="51.257772669196129" lon="4.862939994782209">
        <ele>-1.56</ele>
        <time>2020-06-14T10:01:03Z</time>
      </trkpt>
      <trkpt lat="51.257590614259243" lon="4.862630618736148">
        <ele>-1.4</ele>
        <time>2020-06-14T10:01:18Z</time>
      </trkpt>
      <trkpt lat="51.257553398609161" lon="4.862532718107104">
        <ele>-1.36</ele>
        <time>2020-06-14T10:01:22Z</time>
      </trkpt>
      <trkpt lat="51.257552811875939" lon="4.862512852996588">
        <ele>-1.37</ele>
        <time>2020-06-14T10:01:23Z</time>
      </trkpt>
      <trkpt lat="51.257571587339044" lon="4.862385783344507">
        <ele>-1.35</ele>
        <time>2020-06-14T10:01:28Z</time>
      </trkpt>
      <trkpt lat="51.257584411650896" lon="4.862371701747179">
        <ele>-1.36</ele>
        <time>2020-06-14T10:01:29Z</time>
      </trkpt>
      <trkpt lat="51.25770527869463" lon="4.862179588526487">
        <ele>-1.31</ele>
        <time>2020-06-14T10:01:41Z</time>
      </trkpt>
      <trkpt lat="51.257862271741033" lon="4.86200382001698">
        <ele>-1.27</ele>
        <time>2020-06-14T10:01:52Z</time>
      </trkpt>
      <trkpt lat="51.257928991690278" lon="4.861925030127168">
        <ele>-1.24</ele>
        <time>2020-06-14T10:01:57Z</time>
      </trkpt>
      <trkpt lat="51.257945001125336" lon="4.86191145144403">
        <ele>-1.21</ele>
        <time>2020-06-14T10:01:58Z</time>
      </trkpt>
      <trkpt lat="51.257958495989442" lon="4.861893933266401">
        <ele>-1.2</ele>
        <time>2020-06-14T10:01:59Z</time>
      </trkpt>
      <trkpt lat="51.257971068844199" lon="4.861876247450709">
        <ele>-1.21</ele>
        <time>2020-06-14T10:02:00Z</time>
      </trkpt>
      <trkpt lat="51.257983557879925" lon="4.861861327663064">
        <ele>-1.22</ele>
        <time>2020-06-14T10:02:01Z</time>
      </trkpt>
      <trkpt lat="51.257997807115316" lon="4.861847246065736">
        <ele>-1.21</ele>
        <time>2020-06-14T10:02:02Z</time>
      </trkpt>
      <trkpt lat="51.258009374141693" lon="4.861833415925503">
        <ele>-1.21</ele>
        <time>2020-06-14T10:02:03Z</time>
      </trkpt>
      <trkpt lat="51.258023120462894" lon="4.861819334328175">
        <ele>-1.2</ele>
        <time>2020-06-14T10:02:04Z</time>
      </trkpt>
      <trkpt lat="51.258037453517318" lon="4.861804582178593">
        <ele>-1.2</ele>
        <time>2020-06-14T10:02:05Z</time>
      </trkpt>
      <trkpt lat="51.258157063275576" lon="4.861678685992956">
        <ele>-1.11</ele>
        <time>2020-06-14T10:02:14Z</time>
      </trkpt>
      <trkpt lat="51.258170222863555" lon="4.861657815054059">
        <ele>-1.1</ele>
        <time>2020-06-14T10:02:15Z</time>
      </trkpt>
      <trkpt lat="51.258186735212803" lon="4.86164222471416">
        <ele>-1.1</ele>
        <time>2020-06-14T10:02:16Z</time>
      </trkpt>
      <trkpt lat="51.258202912285924" lon="4.861623030155897">
        <ele>-1.09</ele>
        <time>2020-06-14T10:02:17Z</time>
      </trkpt>
      <trkpt lat="51.25821691006422" lon="4.861610038205981">
        <ele>-1.1</ele>
        <time>2020-06-14T10:02:18Z</time>
      </trkpt>
      <trkpt lat="51.258233757689595" lon="4.861602745950222">
        <ele>-1.1</ele>
        <time>2020-06-14T10:02:19Z</time>
      </trkpt>
      <trkpt lat="51.258251694962382" lon="4.861592939123511">
        <ele>-1.1</ele>
        <time>2020-06-14T10:02:20Z</time>
      </trkpt>
      <trkpt lat="51.258268542587757" lon="4.861579025164247">
        <ele>-1.1</ele>
        <time>2020-06-14T10:02:21Z</time>
      </trkpt>
      <trkpt lat="51.258601974695921" lon="4.861334105953574">
        <ele>-0.99</ele>
        <time>2020-06-14T10:02:44Z</time>
      </trkpt>
      <trkpt lat="51.258620163425803" lon="4.861321365460753">
        <ele>-0.96</ele>
        <time>2020-06-14T10:02:45Z</time>
      </trkpt>
      <trkpt lat="51.258636927232146" lon="4.86130703240633">
        <ele>-0.96</ele>
        <time>2020-06-14T10:02:46Z</time>
      </trkpt>
      <trkpt lat="51.258654110133648" lon="4.861289011314511">
        <ele>-0.96</ele>
        <time>2020-06-14T10:02:47Z</time>
      </trkpt>
      <trkpt lat="51.258668694645166" lon="4.861272666603327">
        <ele>-0.95</ele>
        <time>2020-06-14T10:02:48Z</time>
      </trkpt>
      <trkpt lat="51.258687470108271" lon="4.861260009929538">
        <ele>-0.94</ele>
        <time>2020-06-14T10:02:49Z</time>
      </trkpt>
      <trkpt lat="51.258716220036149" lon="4.86121860332787">
        <ele>-0.95</ele>
        <time>2020-06-14T10:02:52Z</time>
      </trkpt>
      <trkpt lat="51.258725523948669" lon="4.861207120120525">
        <ele>-0.95</ele>
        <time>2020-06-14T10:02:53Z</time>
      </trkpt>
      <trkpt lat="51.258806409314275" lon="4.861147943884134">
        <ele>-0.91</ele>
        <time>2020-06-14T10:03:00Z</time>
      </trkpt>
      <trkpt lat="51.258824933320284" lon="4.861133778467774">
        <ele>-0.91</ele>
        <time>2020-06-14T10:03:02Z</time>
      </trkpt>
      <trkpt lat="51.258999444544315" lon="4.860950717702508">
        <ele>-0.84</ele>
        <time>2020-06-14T10:03:17Z</time>
      </trkpt>
      <trkpt lat="51.259177895262837" lon="4.86082180403173">
        <ele>-0.79</ele>
        <time>2020-06-14T10:03:29Z</time>
      </trkpt>
      <trkpt lat="51.259270599111915" lon="4.860753575339913">
        <ele>-0.74</ele>
        <time>2020-06-14T10:03:36Z</time>
      </trkpt>
      <trkpt lat="51.259411750361323" lon="4.860676042735577">
        <ele>-0.7</ele>
        <time>2020-06-14T10:03:48Z</time>
      </trkpt>
      <trkpt lat="51.259613586589694" lon="4.860501112416387">
        <ele>-2.91</ele>
        <time>2020-06-14T10:04:03Z</time>
      </trkpt>
      <trkpt lat="51.259626662358642" lon="4.860492730513215">
        <ele>-2.88</ele>
        <time>2020-06-14T10:04:04Z</time>
      </trkpt>
      <trkpt lat="51.25969304703176" lon="4.860425172373653">
        <ele>-2.85</ele>
        <time>2020-06-14T10:04:09Z</time>
      </trkpt>
      <trkpt lat="51.259849620983005" lon="4.860295671969652">
        <ele>-2.86</ele>
        <time>2020-06-14T10:04:20Z</time>
      </trkpt>
      <trkpt lat="51.259875688701868" lon="4.860272705554962">
        <ele>-2.82</ele>
        <time>2020-06-14T10:04:22Z</time>
      </trkpt>
      <trkpt lat="51.260084230452776" lon="4.860061649233103">
        <ele>-2.81</ele>
        <time>2020-06-14T10:04:38Z</time>
      </trkpt>
      <trkpt lat="51.260208114981651" lon="4.859961066395044">
        <ele>-2.81</ele>
        <time>2020-06-14T10:04:50Z</time>
      </trkpt>
      <trkpt lat="51.26042453572154" lon="4.859796026721597">
        <ele>-2.83</ele>
        <time>2020-06-14T10:05:04Z</time>
      </trkpt>
      <trkpt lat="51.260671550408006" lon="4.859691169112921">
        <ele>-2.84</ele>
        <time>2020-06-14T10:05:17Z</time>
      </trkpt>
      <trkpt lat="51.260724272578955" lon="4.859661245718598">
        <ele>-0.38</ele>
        <time>2020-06-14T10:05:20Z</time>
      </trkpt>
      <trkpt lat="51.260741706937551" lon="4.859651774168015">
        <ele>-0.36</ele>
        <time>2020-06-14T10:05:21Z</time>
      </trkpt>
      <trkpt lat="51.260756207630038" lon="4.859643895179033">
        <ele>-3.74</ele>
        <time>2020-06-14T10:05:22Z</time>
      </trkpt>
      <trkpt lat="51.260780934244394" lon="4.859647834673524">
        <ele>-0.81</ele>
        <time>2020-06-14T10:05:23Z</time>
      </trkpt>
      <trkpt lat="51.260813875123858" lon="4.85964423045516">
        <ele>-0.81</ele>
        <time>2020-06-14T10:05:25Z</time>
      </trkpt>
      <trkpt lat="51.260829633101821" lon="4.859640039503574">
        <ele>-0.81</ele>
        <time>2020-06-14T10:05:26Z</time>
      </trkpt>
      <trkpt lat="51.261033648625016" lon="4.859568877145648">
        <ele>-0.88</ele>
        <time>2020-06-14T10:05:39Z</time>
      </trkpt>
      <trkpt lat="51.261052256450057" lon="4.859544401988387">
        <ele>-0.86</ele>
        <time>2020-06-14T10:05:41Z</time>
      </trkpt>
      <trkpt lat="51.26106658950448" lon="4.859536942094564">
        <ele>-0.87</ele>
        <time>2020-06-14T10:05:42Z</time>
      </trkpt>
      <trkpt lat="51.26116675324738" lon="4.859510790556669">
        <ele>-0.86</ele>
        <time>2020-06-14T10:05:46Z</time>
      </trkpt>
      <trkpt lat="51.261186618357897" lon="4.859513388946652">
        <ele>-0.87</ele>
        <time>2020-06-14T10:05:47Z</time>
      </trkpt>
      <trkpt lat="51.261250069364905" lon="4.85949520021677">
        <ele>-0.87</ele>
        <time>2020-06-14T10:05:52Z</time>
      </trkpt>
      <trkpt lat="51.261263899505138" lon="4.859483717009425">
        <ele>-0.87</ele>
        <time>2020-06-14T10:05:53Z</time>
      </trkpt>
      <trkpt lat="51.26140664331615" lon="4.859298979863524">
        <ele>-0.87</ele>
        <time>2020-06-14T10:06:01Z</time>
      </trkpt>
      <trkpt lat="51.261548716574907" lon="4.859067806974053">
        <ele>-0.91</ele>
        <time>2020-06-14T10:06:12Z</time>
      </trkpt>
      <trkpt lat="51.261717947199941" lon="4.858807465061545">
        <ele>-0.92</ele>
        <time>2020-06-14T10:06:25Z</time>
      </trkpt>
      <trkpt lat="51.261806292459369" lon="4.858659189194441">
        <ele>-0.9</ele>
        <time>2020-06-14T10:06:33Z</time>
      </trkpt>
      <trkpt lat="51.261815847828984" lon="4.858639910817146">
        <ele>-0.9</ele>
        <time>2020-06-14T10:06:34Z</time>
      </trkpt>
      <trkpt lat="51.261965464800596" lon="4.858370767906308">
        <ele>-0.88</ele>
        <time>2020-06-14T10:06:48Z</time>
      </trkpt>
      <trkpt lat="51.262070909142494" lon="4.858245374634862">
        <ele>-0.87</ele>
        <time>2020-06-14T10:06:56Z</time>
      </trkpt>
      <trkpt lat="51.262079710140824" lon="4.858230790123344">
        <ele>-0.85</ele>
        <time>2020-06-14T10:06:57Z</time>
      </trkpt>
      <trkpt lat="51.262118685990572" lon="4.858148228377104">
        <ele>-0.84</ele>
        <time>2020-06-14T10:07:02Z</time>
      </trkpt>
      <trkpt lat="51.262218849733472" lon="4.857936585322022">
        <ele>-0.8</ele>
        <time>2020-06-14T10:07:14Z</time>
      </trkpt>
      <trkpt lat="51.262217843905091" lon="4.857904147356749">
        <ele>-0.8</ele>
        <time>2020-06-14T10:07:15Z</time>
      </trkpt>
      <trkpt lat="51.262221783399582" lon="4.85786416567862">
        <ele>-0.8</ele>
        <time>2020-06-14T10:07:16Z</time>
      </trkpt>
      <trkpt lat="51.262221364304423" lon="4.857828626409173">
        <ele>-0.8</ele>
        <time>2020-06-14T10:07:17Z</time>
      </trkpt>
      <trkpt lat="51.26221876591444" lon="4.857755284756422">
        <ele>-0.79</ele>
        <time>2020-06-14T10:07:19Z</time>
      </trkpt>
      <trkpt lat="51.262218011543155" lon="4.857719661667943">
        <ele>-0.81</ele>
        <time>2020-06-14T10:07:20Z</time>
      </trkpt>
      <trkpt lat="51.262221280485392" lon="4.857680853456259">
        <ele>-0.8</ele>
        <time>2020-06-14T10:07:21Z</time>
      </trkpt>
      <trkpt lat="51.262196637690067" lon="4.857399892061949">
        <ele>-0.74</ele>
        <time>2020-06-14T10:07:31Z</time>
      </trkpt>
      <trkpt lat="51.262179790064692" lon="4.857358150184155">
        <ele>-0.74</ele>
        <time>2020-06-14T10:07:32Z</time>
      </trkpt>
      <trkpt lat="51.262102341279387" lon="4.856990855187178">
        <ele>-0.66</ele>
        <time>2020-06-14T10:07:44Z</time>
      </trkpt>
      <trkpt lat="51.262097982689738" lon="4.856970990076661">
        <ele>-0.65</ele>
        <time>2020-06-14T10:07:45Z</time>
      </trkpt>
      <trkpt lat="51.262032184749842" lon="4.856677623465657">
        <ele>-0.61</ele>
        <time>2020-06-14T10:07:58Z</time>
      </trkpt>
      <trkpt lat="51.262016678228974" lon="4.856599252671003">
        <ele>-0.59</ele>
        <time>2020-06-14T10:08:01Z</time>
      </trkpt>
      <trkpt lat="51.262013828381896" lon="4.856577124446631">
        <ele>-0.58</ele>
        <time>2020-06-14T10:08:02Z</time>
      </trkpt>
      <trkpt lat="51.262007793411613" lon="4.856552984565496">
        <ele>-0.58</ele>
        <time>2020-06-14T10:08:03Z</time>
      </trkpt>
      <trkpt lat="51.262000920251012" lon="4.856532029807568">
        <ele>-0.58</ele>
        <time>2020-06-14T10:08:04Z</time>
      </trkpt>
      <trkpt lat="51.261907126754522" lon="4.856248805299401">
        <ele>-0.51</ele>
        <time>2020-06-14T10:08:16Z</time>
      </trkpt>
      <trkpt lat="51.261873934417963" lon="4.856010926887393">
        <ele>-0.48</ele>
        <time>2020-06-14T10:08:24Z</time>
      </trkpt>
      <trkpt lat="51.261866055428982" lon="4.855989972129464">
        <ele>-0.47</ele>
        <time>2020-06-14T10:08:25Z</time>
      </trkpt>
      <trkpt lat="51.261851554736495" lon="4.855953510850668">
        <ele>-0.46</ele>
        <time>2020-06-14T10:08:26Z</time>
      </trkpt>
      <trkpt lat="51.261832946911454" lon="4.855888215824962">
        <ele>-0.44</ele>
        <time>2020-06-14T10:08:28Z</time>
      </trkpt>
      <trkpt lat="51.261821882799268" lon="4.855863740667701">
        <ele>-0.44</ele>
        <time>2020-06-14T10:08:29Z</time>
      </trkpt>
      <trkpt lat="51.261811489239335" lon="4.855828620493412">
        <ele>-0.44</ele>
        <time>2020-06-14T10:08:30Z</time>
      </trkpt>
      <trkpt lat="51.261804951354861" lon="4.855802888050675">
        <ele>-0.44</ele>
        <time>2020-06-14T10:08:31Z</time>
      </trkpt>
      <trkpt lat="51.261774692684412" lon="4.855641787871718">
        <ele>-0.38</ele>
        <time>2020-06-14T10:08:38Z</time>
      </trkpt>
      <trkpt lat="51.261762538924813" lon="4.855606248602271">
        <ele>-0.38</ele>
        <time>2020-06-14T10:08:39Z</time>
      </trkpt>
      <trkpt lat="51.261745356023312" lon="4.85552754253149">
        <ele>-0.36</ele>
        <time>2020-06-14T10:08:41Z</time>
      </trkpt>
      <trkpt lat="51.261731190606952" lon="4.855484878644347">
        <ele>-0.36</ele>
        <time>2020-06-14T10:08:42Z</time>
      </trkpt>
      <trkpt lat="51.261716857552528" lon="4.855439197272062">
        <ele>-0.34</ele>
        <time>2020-06-14T10:08:43Z</time>
      </trkpt>
      <trkpt lat="51.261609317734838" lon="4.855064107105136">
        <ele>-0.29</ele>
        <time>2020-06-14T10:08:55Z</time>
      </trkpt>
      <trkpt lat="51.26158987171948" lon="4.855025550350547">
        <ele>-0.28</ele>
        <time>2020-06-14T10:08:57Z</time>
      </trkpt>
      <trkpt lat="51.261578891426325" lon="4.855002081021667">
        <ele>-0.29</ele>
        <time>2020-06-14T10:08:58Z</time>
      </trkpt>
      <trkpt lat="51.261492725461721" lon="4.854832515120506">
        <ele>-0.24</ele>
        <time>2020-06-14T10:09:08Z</time>
      </trkpt>
      <trkpt lat="51.261479230597615" lon="4.854787923395634">
        <ele>-0.21</ele>
        <time>2020-06-14T10:09:10Z</time>
      </trkpt>
      <trkpt lat="51.261472525075078" lon="4.854761688038707">
        <ele>-0.22</ele>
        <time>2020-06-14T10:09:11Z</time>
      </trkpt>
      <trkpt lat="51.261403961107135" lon="4.854596899822354">
        <ele>-0.17</ele>
        <time>2020-06-14T10:09:17Z</time>
      </trkpt>
      <trkpt lat="51.261385772377253" lon="4.854544932022691">
        <ele>-0.16</ele>
        <time>2020-06-14T10:09:19Z</time>
      </trkpt>
      <trkpt lat="51.261377893388271" lon="4.854525737464428">
        <ele>-0.15</ele>
        <time>2020-06-14T10:09:20Z</time>
      </trkpt>
      <trkpt lat="51.261371020227671" lon="4.854505285620689">
        <ele>-0.14</ele>
        <time>2020-06-14T10:09:21Z</time>
      </trkpt>
      <trkpt lat="51.261361129581928" lon="4.854478044435382">
        <ele>-0.13</ele>
        <time>2020-06-14T10:09:22Z</time>
      </trkpt>
      <trkpt lat="51.261291727423668" lon="4.854313004761934">
        <ele>-0.1</ele>
        <time>2020-06-14T10:09:30Z</time>
      </trkpt>
      <trkpt lat="51.261281417682767" lon="4.854277968406677">
        <ele>-0.06</ele>
        <time>2020-06-14T10:09:32Z</time>
      </trkpt>
      <trkpt lat="51.261280747130513" lon="4.854249218478799">
        <ele>-0.06</ele>
        <time>2020-06-14T10:09:33Z</time>
      </trkpt>
      <trkpt lat="51.261273622512817" lon="4.854226084426045">
        <ele>-0.05</ele>
        <time>2020-06-14T10:09:34Z</time>
      </trkpt>
      <trkpt lat="51.261269012466073" lon="4.854199010878801">
        <ele>-0.06</ele>
        <time>2020-06-14T10:09:35Z</time>
      </trkpt>
      <trkpt lat="51.261261887848377" lon="4.854176798835397">
        <ele>-0.07</ele>
        <time>2020-06-14T10:09:36Z</time>
      </trkpt>
      <trkpt lat="51.261190893128514" lon="4.854010166600347">
        <ele>-0.02</ele>
        <time>2020-06-14T10:09:46Z</time>
      </trkpt>
      <trkpt lat="51.261122245341539" lon="4.853496020659804">
        <ele>0.06</ele>
        <time>2020-06-14T10:10:04Z</time>
      </trkpt>
      <trkpt lat="51.26124638132751" lon="4.853159738704562">
        <ele>0.1</ele>
        <time>2020-06-14T10:10:15Z</time>
      </trkpt>
      <trkpt lat="51.261258032172918" lon="4.853130150586367">
        <ele>0.12</ele>
        <time>2020-06-14T10:10:16Z</time>
      </trkpt>
      <trkpt lat="51.26127521507442" lon="4.853103496134281">
        <ele>0.12</ele>
        <time>2020-06-14T10:10:17Z</time>
      </trkpt>
      <trkpt lat="51.26128745265305" lon="4.853076674044132">
        <ele>0.13</ele>
        <time>2020-06-14T10:10:18Z</time>
      </trkpt>
      <trkpt lat="51.261295415461063" lon="4.853044990450144">
        <ele>0.12</ele>
        <time>2020-06-14T10:10:19Z</time>
      </trkpt>
      <trkpt lat="51.261293990537524" lon="4.853012636303902">
        <ele>0.13</ele>
        <time>2020-06-14T10:10:20Z</time>
      </trkpt>
      <trkpt lat="51.26128988340497" lon="4.852979192510247">
        <ele>0.14</ele>
        <time>2020-06-14T10:10:21Z</time>
      </trkpt>
      <trkpt lat="51.261281166225672" lon="4.852942395955324">
        <ele>0.13</ele>
        <time>2020-06-14T10:10:22Z</time>
      </trkpt>
      <trkpt lat="51.261171866208315" lon="4.852465046569705">
        <ele>0.2</ele>
        <time>2020-06-14T10:10:33Z</time>
      </trkpt>
      <trkpt lat="51.261105313897133" lon="4.852158352732658">
        <ele>0.23</ele>
        <time>2020-06-14T10:10:38Z</time>
      </trkpt>
      <trkpt lat="51.260946476832032" lon="4.851451423019171">
        <ele>0.28</ele>
        <time>2020-06-14T10:10:48Z</time>
      </trkpt>
      <trkpt lat="51.260934993624687" lon="4.851397862657905">
        <ele>0.3</ele>
        <time>2020-06-14T10:10:49Z</time>
      </trkpt>
      <trkpt lat="51.260741790756583" lon="4.850899642333388">
        <ele>0.41</ele>
        <time>2020-06-14T10:11:00Z</time>
      </trkpt>
      <trkpt lat="51.260398048907518" lon="4.850517930462956">
        <ele>0.47</ele>
        <time>2020-06-14T10:11:11Z</time>
      </trkpt>
      <trkpt lat="51.259942911565304" lon="4.849551664665341">
        <ele>0.7</ele>
        <time>2020-06-14T10:11:35Z</time>
      </trkpt>
      <trkpt lat="51.259877867996693" lon="4.849300794303417">
        <ele>0.7</ele>
        <time>2020-06-14T10:11:36Z</time>
      </trkpt>
      <trkpt lat="51.259962525218725" lon="4.849157044664025">
        <ele>0.77</ele>
        <time>2020-06-14T10:11:47Z</time>
      </trkpt>
      <trkpt lat="51.260001920163631" lon="4.849104825407267">
        <ele>0.78</ele>
        <time>2020-06-14T10:11:51Z</time>
      </trkpt>
      <trkpt lat="51.260025557130575" lon="4.84909862279892">
        <ele>0.79</ele>
        <time>2020-06-14T10:11:52Z</time>
      </trkpt>
      <trkpt lat="51.26011474058032" lon="4.849000805988908">
        <ele>0.82</ele>
        <time>2020-06-14T10:11:57Z</time>
      </trkpt>
      <trkpt lat="51.26014206558466" lon="4.848979935050011">
        <ele>0.83</ele>
        <time>2020-06-14T10:11:58Z</time>
      </trkpt>
      <trkpt lat="51.261545531451702" lon="4.848160352557898">
        <ele>0.79</ele>
        <time>2020-06-14T10:12:42Z</time>
      </trkpt>
      <trkpt lat="51.261610072106123" lon="4.848163705319166">
        <ele>0.79</ele>
        <time>2020-06-14T10:12:43Z</time>
      </trkpt>
      <trkpt lat="51.261664973571897" lon="4.848175775259733">
        <ele>0.78</ele>
        <time>2020-06-14T10:12:44Z</time>
      </trkpt>
      <trkpt lat="51.263340767472982" lon="4.848415330052376">
        <ele>0.47</ele>
        <time>2020-06-14T10:13:18Z</time>
      </trkpt>
      <trkpt lat="51.263482673093677" lon="4.848390016704798">
        <ele>0.46</ele>
        <time>2020-06-14T10:13:19Z</time>
      </trkpt>
      <trkpt lat="51.263506058603525" lon="4.848377862945199">
        <ele>0.45</ele>
        <time>2020-06-14T10:13:20Z</time>
      </trkpt>
      <trkpt lat="51.263556936755776" lon="4.848337043076754">
        <ele>0.45</ele>
        <time>2020-06-14T10:13:23Z</time>
      </trkpt>
      <trkpt lat="51.263708481565118" lon="4.848344083875418">
        <ele>0.46</ele>
        <time>2020-06-14T10:13:33Z</time>
      </trkpt>
      <trkpt lat="51.263742679730058" lon="4.848346933722496">
        <ele>0.46</ele>
        <time>2020-06-14T10:13:34Z</time>
      </trkpt>
      <trkpt lat="51.263796575367451" lon="4.848318099975586">
        <ele>0.45</ele>
        <time>2020-06-14T10:13:35Z</time>
      </trkpt>
      <trkpt lat="51.263793893158436" lon="4.847943261265755">
        <ele>0.45</ele>
        <time>2020-06-14T10:13:46Z</time>
      </trkpt>
      <trkpt lat="51.263815350830555" lon="4.847426265478134">
        <ele>0.61</ele>
        <time>2020-06-14T10:14:04Z</time>
      </trkpt>
      <trkpt lat="51.263839323073626" lon="4.846802987158299">
        <ele>0.78</ele>
        <time>2020-06-14T10:14:27Z</time>
      </trkpt>
      <trkpt lat="51.263838317245245" lon="4.846780272200704">
        <ele>0.79</ele>
        <time>2020-06-14T10:14:28Z</time>
      </trkpt>
      <trkpt lat="51.263840664178133" lon="4.846754958853126">
        <ele>0.8</ele>
        <time>2020-06-14T10:14:29Z</time>
      </trkpt>
      <trkpt lat="51.263843346387148" lon="4.846720090135932">
        <ele>0.81</ele>
        <time>2020-06-14T10:14:30Z</time>
      </trkpt>
      <trkpt lat="51.26384686678648" lon="4.846674911677837">
        <ele>0.81</ele>
        <time>2020-06-14T10:14:31Z</time>
      </trkpt>
      <trkpt lat="51.263846028596163" lon="4.846618669107556">
        <ele>0.81</ele>
        <time>2020-06-14T10:14:32Z</time>
      </trkpt>
      <trkpt lat="51.263862205669284" lon="4.846237543970347">
        <ele>0.85</ele>
        <time>2020-06-14T10:14:44Z</time>
      </trkpt>
      <trkpt lat="51.26388106495142" lon="4.845865974202752">
        <ele>0.95</ele>
        <time>2020-06-14T10:14:58Z</time>
      </trkpt>
      <trkpt lat="51.263881400227547" lon="4.845803445205092">
        <ele>0.97</ele>
        <time>2020-06-14T10:15:01Z</time>
      </trkpt>
      <trkpt lat="51.263886010274291" lon="4.845771342515945">
        <ele>0.97</ele>
        <time>2020-06-14T10:15:02Z</time>
      </trkpt>
      <trkpt lat="51.263888189569116" lon="4.84573538415134">
        <ele>0.99</ele>
        <time>2020-06-14T10:15:03Z</time>
      </trkpt>
      <trkpt lat="51.263888776302338" lon="4.845700934529305">
        <ele>0.99</ele>
        <time>2020-06-14T10:15:04Z</time>
      </trkpt>
      <trkpt lat="51.263889027759433" lon="4.845669586211443">
        <ele>1</ele>
        <time>2020-06-14T10:15:05Z</time>
      </trkpt>
      <trkpt lat="51.263905456289649" lon="4.845341267064214">
        <ele>1.09</ele>
        <time>2020-06-14T10:15:16Z</time>
      </trkpt>
      <trkpt lat="51.263911994174123" lon="4.845309164375067">
        <ele>1.09</ele>
        <time>2020-06-14T10:15:17Z</time>
      </trkpt>
      <trkpt lat="51.263913167640567" lon="4.845269517973065">
        <ele>1.1</ele>
        <time>2020-06-14T10:15:18Z</time>
      </trkpt>
      <trkpt lat="51.263911155983806" lon="4.845232721418142">
        <ele>1.1</ele>
        <time>2020-06-14T10:15:19Z</time>
      </trkpt>
      <trkpt lat="51.263912664726377" lon="4.845206486061215">
        <ele>1.12</ele>
        <time>2020-06-14T10:15:20Z</time>
      </trkpt>
      <trkpt lat="51.263911323621869" lon="4.845137419179082">
        <ele>1.13</ele>
        <time>2020-06-14T10:15:23Z</time>
      </trkpt>
      <trkpt lat="51.263926746323705" lon="4.844986628741026">
        <ele>1.15</ele>
        <time>2020-06-14T10:15:29Z</time>
      </trkpt>
      <trkpt lat="51.263935631141067" lon="4.844893673434854">
        <ele>1.15</ele>
        <time>2020-06-14T10:15:33Z</time>
      </trkpt>
      <trkpt lat="51.263941079378128" lon="4.844869868829846">
        <ele>1.19</ele>
        <time>2020-06-14T10:15:34Z</time>
      </trkpt>
      <trkpt lat="51.263959435746074" lon="4.844757048413158">
        <ele>1.25</ele>
        <time>2020-06-14T10:15:40Z</time>
      </trkpt>
      <trkpt lat="51.263978965580463" lon="4.844619836658239">
        <ele>1.24</ele>
        <time>2020-06-14T10:15:45Z</time>
      </trkpt>
      <trkpt lat="51.263979887589812" lon="4.844596367329359">
        <ele>1.27</ele>
        <time>2020-06-14T10:15:46Z</time>
      </trkpt>
      <trkpt lat="51.264020791277289" lon="4.844304928556085">
        <ele>1.26</ele>
        <time>2020-06-14T10:15:58Z</time>
      </trkpt>
      <trkpt lat="51.264033196493983" lon="4.844202501699328">
        <ele>1.28</ele>
        <time>2020-06-14T10:16:02Z</time>
      </trkpt>
      <trkpt lat="51.26403009518981" lon="4.844167130067945">
        <ele>1.25</ele>
        <time>2020-06-14T10:16:03Z</time>
      </trkpt>
      <trkpt lat="51.264097653329372" lon="4.843353247269988">
        <ele>1.16</ele>
        <time>2020-06-14T10:16:32Z</time>
      </trkpt>
      <trkpt lat="51.264183903113008" lon="4.84299223870039">
        <ele>1.18</ele>
        <time>2020-06-14T10:16:45Z</time>
      </trkpt>
      <trkpt lat="51.264363275840878" lon="4.842913281172514">
        <ele>1.22</ele>
        <time>2020-06-14T10:16:59Z</time>
      </trkpt>
      <trkpt lat="51.264574164524674" lon="4.842862570658326">
        <ele>1.15</ele>
        <time>2020-06-14T10:17:12Z</time>
      </trkpt>
      <trkpt lat="51.264781448990107" lon="4.842818146571517">
        <ele>1.13</ele>
        <time>2020-06-14T10:17:23Z</time>
      </trkpt>
      <trkpt lat="51.264956379309297" lon="4.842827450484037">
        <ele>1.11</ele>
        <time>2020-06-14T10:17:33Z</time>
      </trkpt>
      <trkpt lat="51.264990493655205" lon="4.842823594808579">
        <ele>1.11</ele>
        <time>2020-06-14T10:17:35Z</time>
      </trkpt>
      <trkpt lat="51.265137763693929" lon="4.842805154621601">
        <ele>1.1</ele>
        <time>2020-06-14T10:17:45Z</time>
      </trkpt>
      <trkpt lat="51.265393076464534" lon="4.842772549018264">
        <ele>1.09</ele>
        <time>2020-06-14T10:18:01Z</time>
      </trkpt>
      <trkpt lat="51.265560798346996" lon="4.842736339196563">
        <ele>1.04</ele>
        <time>2020-06-14T10:18:12Z</time>
      </trkpt>
      <trkpt lat="51.26565090380609" lon="4.842737847939134">
        <ele>1.03</ele>
        <time>2020-06-14T10:18:17Z</time>
      </trkpt>
      <trkpt lat="51.265848884359002" lon="4.842736255377531">
        <ele>1.02</ele>
        <time>2020-06-14T10:18:30Z</time>
      </trkpt>
      <trkpt lat="51.266076201573014" lon="4.842731393873692">
        <ele>1.01</ele>
        <time>2020-06-14T10:18:45Z</time>
      </trkpt>
      <trkpt lat="51.266319025307894" lon="4.842725777998567">
        <ele>0.92</ele>
        <time>2020-06-14T10:18:59Z</time>
      </trkpt>
      <trkpt lat="51.266535613685846" lon="4.842738267034292">
        <ele>0.88</ele>
        <time>2020-06-14T10:19:11Z</time>
      </trkpt>
      <trkpt lat="51.266606692224741" lon="4.842735501006246">
        <ele>0.88</ele>
        <time>2020-06-14T10:19:15Z</time>
      </trkpt>
      <trkpt lat="51.266623707488179" lon="4.84272938221693">
        <ele>0.87</ele>
        <time>2020-06-14T10:19:16Z</time>
      </trkpt>
      <trkpt lat="51.266644243150949" lon="4.842727286741138">
        <ele>0.86</ele>
        <time>2020-06-14T10:19:17Z</time>
      </trkpt>
      <trkpt lat="51.266814647242427" lon="4.842732064425945">
        <ele>0.86</ele>
        <time>2020-06-14T10:19:29Z</time>
      </trkpt>
      <trkpt lat="51.267025452107191" lon="4.842714881524444">
        <ele>0.85</ele>
        <time>2020-06-14T10:19:45Z</time>
      </trkpt>
      <trkpt lat="51.267310017719865" lon="4.842700464650989">
        <ele>0.83</ele>
        <time>2020-06-14T10:19:59Z</time>
      </trkpt>
      <trkpt lat="51.267492324113846" lon="4.842714462429285">
        <ele>0.82</ele>
        <time>2020-06-14T10:20:14Z</time>
      </trkpt>
      <trkpt lat="51.267807818949223" lon="4.842693507671356">
        <ele>0.73</ele>
        <time>2020-06-14T10:20:34Z</time>
      </trkpt>
      <trkpt lat="51.267835646867752" lon="4.842677330598235">
        <ele>0.75</ele>
        <time>2020-06-14T10:20:35Z</time>
      </trkpt>
      <trkpt lat="51.267858194187284" lon="4.842660818248987">
        <ele>0.76</ele>
        <time>2020-06-14T10:20:36Z</time>
      </trkpt>
      <trkpt lat="51.267894152551889" lon="4.842641623690724">
        <ele>0.71</ele>
        <time>2020-06-14T10:20:37Z</time>
      </trkpt>
      <trkpt lat="51.267921309918165" lon="4.842639863491058">
        <ele>0.72</ele>
        <time>2020-06-14T10:20:38Z</time>
      </trkpt>
      <trkpt lat="51.267959028482437" lon="4.842625362798572">
        <ele>0.72</ele>
        <time>2020-06-14T10:20:39Z</time>
      </trkpt>
      <trkpt lat="51.268050642684102" lon="4.842527210712433">
        <ele>0.68</ele>
        <time>2020-06-14T10:20:40Z</time>
      </trkpt>
      <trkpt lat="51.268220795318484" lon="4.841928323730826">
        <ele>0.67</ele>
        <time>2020-06-14T10:20:53Z</time>
      </trkpt>
      <trkpt lat="51.268466133624315" lon="4.841534625738859">
        <ele>0.64</ele>
        <time>2020-06-14T10:21:04Z</time>
      </trkpt>
      <trkpt lat="51.268693450838327" lon="4.84138953499496">
        <ele>0.66</ele>
        <time>2020-06-14T10:21:18Z</time>
      </trkpt>
      <trkpt lat="51.26896670088172" lon="4.841182501986623">
        <ele>0.63</ele>
        <time>2020-06-14T10:21:32Z</time>
      </trkpt>
      <trkpt lat="51.269297953695059" lon="4.84108954668045">
        <ele>0.68</ele>
        <time>2020-06-14T10:21:46Z</time>
      </trkpt>
      <trkpt lat="51.269638845697045" lon="4.841121649369597">
        <ele>0.71</ele>
        <time>2020-06-14T10:21:56Z</time>
      </trkpt>
      <trkpt lat="51.270495057106018" lon="4.841468157246709">
        <ele>1.27</ele>
        <time>2020-06-14T10:22:27Z</time>
      </trkpt>
      <trkpt lat="51.270645596086979" lon="4.841601010411978">
        <ele>1.25</ele>
        <time>2020-06-14T10:22:28Z</time>
      </trkpt>
      <trkpt lat="51.270744418725371" lon="4.841705029830337">
        <ele>1.24</ele>
        <time>2020-06-14T10:22:29Z</time>
      </trkpt>
      <trkpt lat="51.270841900259256" lon="4.841867806389928">
        <ele>1.23</ele>
        <time>2020-06-14T10:22:30Z</time>
      </trkpt>
      <trkpt lat="51.271183295175433" lon="4.842295283451676">
        <ele>1.13</ele>
        <time>2020-06-14T10:22:39Z</time>
      </trkpt>
      <trkpt lat="51.271528210490942" lon="4.842844046652317">
        <ele>1.03</ele>
        <time>2020-06-14T10:22:48Z</time>
      </trkpt>
      <trkpt lat="51.271671457216144" lon="4.843481406569481">
        <ele>0.89</ele>
        <time>2020-06-14T10:22:59Z</time>
      </trkpt>
      <trkpt lat="51.271674558520317" lon="4.84352046623826">
        <ele>0.88</ele>
        <time>2020-06-14T10:23:00Z</time>
      </trkpt>
      <trkpt lat="51.271731974557042" lon="4.843753818422556">
        <ele>0.77</ele>
        <time>2020-06-14T10:23:08Z</time>
      </trkpt>
      <trkpt lat="51.271810848265886" lon="4.844036204740405">
        <ele>0.63</ele>
        <time>2020-06-14T10:23:18Z</time>
      </trkpt>
      <trkpt lat="51.271827612072229" lon="4.844054225832224">
        <ele>0.61</ele>
        <time>2020-06-14T10:23:20Z</time>
      </trkpt>
      <trkpt lat="51.271847058087587" lon="4.844064032658935">
        <ele>0.59</ele>
        <time>2020-06-14T10:23:23Z</time>
      </trkpt>
      <trkpt lat="51.271891230717301" lon="4.84377552755177">
        <ele>2.48</ele>
        <time>2020-06-14T10:23:38Z</time>
      </trkpt>
      <trkpt lat="51.27189802005887" lon="4.843647871166468">
        <ele>0.08</ele>
        <time>2020-06-14T10:23:44Z</time>
      </trkpt>
      <trkpt lat="51.271930709481239" lon="4.843462966382504">
        <ele>0.02</ele>
        <time>2020-06-14T10:23:50Z</time>
      </trkpt>
      <trkpt lat="51.271943869069219" lon="4.843433545902371">
        <ele>-1.05</ele>
        <time>2020-06-14T10:23:52Z</time>
      </trkpt>
      <trkpt lat="51.272229859605432" lon="4.843066670000553">
        <ele>0.31</ele>
        <time>2020-06-14T10:24:23Z</time>
      </trkpt>
      <trkpt lat="51.272441754117608" lon="4.84297027811408">
        <ele>0.17</ele>
        <time>2020-06-14T10:24:37Z</time>
      </trkpt>
      <trkpt lat="51.27267099916935" lon="4.842969356104732">
        <ele>0.05</ele>
        <time>2020-06-14T10:24:53Z</time>
      </trkpt>
      <trkpt lat="51.273018512874842" lon="4.84303523786366">
        <ele>-0.13</ele>
        <time>2020-06-14T10:25:16Z</time>
      </trkpt>
      <trkpt lat="51.27325002104044" lon="4.843066586181521">
        <ele>-0.25</ele>
        <time>2020-06-14T10:25:31Z</time>
      </trkpt>
      <trkpt lat="51.273375246673822" lon="4.843078823760152">
        <ele>-0.29</ele>
        <time>2020-06-14T10:25:40Z</time>
      </trkpt>
      <trkpt lat="51.273946557193995" lon="4.843116709962487">
        <ele>-0.56</ele>
        <time>2020-06-14T10:26:17Z</time>
      </trkpt>
      <trkpt lat="51.274135485291481" lon="4.843122661113739">
        <ele>-0.66</ele>
        <time>2020-06-14T10:26:29Z</time>
      </trkpt>
      <trkpt lat="51.274372860789299" lon="4.843063401058316">
        <ele>-0.76</ele>
        <time>2020-06-14T10:26:39Z</time>
      </trkpt>
      <trkpt lat="51.274518622085452" lon="4.843087624758482">
        <ele>-0.83</ele>
        <time>2020-06-14T10:26:49Z</time>
      </trkpt>
      <trkpt lat="51.274680560454726" lon="4.843085948377848">
        <ele>-0.94</ele>
        <time>2020-06-14T10:27:03Z</time>
      </trkpt>
      <trkpt lat="51.274742586538196" lon="4.84307873994112">
        <ele>-0.95</ele>
        <time>2020-06-14T10:27:05Z</time>
      </trkpt>
      <trkpt lat="51.2749426625669" lon="4.843047810718417">
        <ele>-1.1</ele>
        <time>2020-06-14T10:27:33Z</time>
      </trkpt>
      <trkpt lat="51.27505062147975" lon="4.843052085489035">
        <ele>-1.24</ele>
        <time>2020-06-14T10:27:51Z</time>
      </trkpt>
      <trkpt lat="51.275470722466707" lon="4.843057366088033">
        <ele>-1.34</ele>
        <time>2020-06-14T10:28:02Z</time>
      </trkpt>
      <trkpt lat="51.275515398010612" lon="4.843068765476346">
        <ele>-1.35</ele>
        <time>2020-06-14T10:28:03Z</time>
      </trkpt>
      <trkpt lat="51.275749169290066" lon="4.843168091028929">
        <ele>-1.4</ele>
        <time>2020-06-14T10:28:10Z</time>
      </trkpt>
      <trkpt lat="51.276092743501067" lon="4.843201618641615">
        <ele>-1.47</ele>
        <time>2020-06-14T10:28:25Z</time>
      </trkpt>
      <trkpt lat="51.276202630251646" lon="4.843246378004551">
        <ele>-1.48</ele>
        <time>2020-06-14T10:28:30Z</time>
      </trkpt>
      <trkpt lat="51.276212269440293" lon="4.843255011364818">
        <ele>-1.48</ele>
        <time>2020-06-14T10:28:32Z</time>
      </trkpt>
      <trkpt lat="51.276335818693042" lon="4.843350732699037">
        <ele>-1.49</ele>
        <time>2020-06-14T10:28:38Z</time>
      </trkpt>
      <trkpt lat="51.276498846709728" lon="4.843580480664969">
        <ele>-1.52</ele>
        <time>2020-06-14T10:28:52Z</time>
      </trkpt>
      <trkpt lat="51.276540923863649" lon="4.843693217262626">
        <ele>-1.52</ele>
        <time>2020-06-14T10:28:58Z</time>
      </trkpt>
      <trkpt lat="51.276630945503712" lon="4.843982141464949">
        <ele>-1.53</ele>
        <time>2020-06-14T10:29:10Z</time>
      </trkpt>
      <trkpt lat="51.276711160317063" lon="4.844072414562106">
        <ele>-1.55</ele>
        <time>2020-06-14T10:29:16Z</time>
      </trkpt>
      <trkpt lat="51.276831775903702" lon="4.844373241066933">
        <ele>-1.57</ele>
        <time>2020-06-14T10:29:27Z</time>
      </trkpt>
      <trkpt lat="51.276857508346438" lon="4.844401907175779">
        <ele>-1.57</ele>
        <time>2020-06-14T10:29:29Z</time>
      </trkpt>
      <trkpt lat="51.276889024302363" lon="4.844421939924359">
        <ele>-1.57</ele>
        <time>2020-06-14T10:29:31Z</time>
      </trkpt>
      <trkpt lat="51.27703009173274" lon="4.844528222456574">
        <ele>-1.59</ele>
        <time>2020-06-14T10:29:42Z</time>
      </trkpt>
      <trkpt lat="51.277296133339405" lon="4.844617992639542">
        <ele>-0.53</ele>
        <time>2020-06-14T10:29:54Z</time>
      </trkpt>
      <trkpt lat="51.277433009818196" lon="4.844656214118004">
        <ele>-0.53</ele>
        <time>2020-06-14T10:30:07Z</time>
      </trkpt>
      <trkpt lat="51.277560079470277" lon="4.84470097348094">
        <ele>-0.53</ele>
        <time>2020-06-14T10:30:16Z</time>
      </trkpt>
      <trkpt lat="51.277721682563424" lon="4.844756126403809">
        <ele>1.07</ele>
        <time>2020-06-14T10:30:27Z</time>
      </trkpt>
      <trkpt lat="51.277825953438878" lon="4.844795940443873">
        <ele>1.15</ele>
        <time>2020-06-14T10:30:35Z</time>
      </trkpt>
      <trkpt lat="51.277898540720344" lon="4.844832234084606">
        <ele>1.1</ele>
        <time>2020-06-14T10:30:41Z</time>
      </trkpt>
      <trkpt lat="51.278143040835857" lon="4.844949413090944">
        <ele>2.73</ele>
        <time>2020-06-14T10:30:56Z</time>
      </trkpt>
      <trkpt lat="51.278406819328666" lon="4.845048571005464">
        <ele>3.59</ele>
        <time>2020-06-14T10:31:14Z</time>
      </trkpt>
      <trkpt lat="51.278488961979747" lon="4.845091234892607">
        <ele>4.93</ele>
        <time>2020-06-14T10:31:20Z</time>
      </trkpt>
      <trkpt lat="51.278560711070895" lon="4.84511629678309">
        <ele>2.21</ele>
        <time>2020-06-14T10:31:26Z</time>
      </trkpt>
      <trkpt lat="51.278713513165712" lon="4.845119398087263">
        <ele>4.64</ele>
        <time>2020-06-14T10:31:36Z</time>
      </trkpt>
      <trkpt lat="51.278843013569713" lon="4.84491060487926">
        <ele>4.68</ele>
        <time>2020-06-14T10:31:50Z</time>
      </trkpt>
      <trkpt lat="51.278958348557353" lon="4.844701057299972">
        <ele>4.39</ele>
        <time>2020-06-14T10:32:02Z</time>
      </trkpt>
      <trkpt lat="51.278972346335649" lon="4.84466970898211">
        <ele>4.39</ele>
        <time>2020-06-14T10:32:04Z</time>
      </trkpt>
      <trkpt lat="51.279055494815111" lon="4.844573400914669">
        <ele>4.42</ele>
        <time>2020-06-14T10:32:12Z</time>
      </trkpt>
      <trkpt lat="51.27913017757237" lon="4.844450019299984">
        <ele>4.45</ele>
        <time>2020-06-14T10:32:19Z</time>
      </trkpt>
      <trkpt lat="51.279144929721951" lon="4.844410372897983">
        <ele>4.45</ele>
        <time>2020-06-14T10:32:21Z</time>
      </trkpt>
      <trkpt lat="51.279221372678876" lon="4.844282465055585">
        <ele>6.89</ele>
        <time>2020-06-14T10:32:28Z</time>
      </trkpt>
      <trkpt lat="51.279399069026113" lon="4.844026984646916">
        <ele>6.93</ele>
        <time>2020-06-14T10:32:42Z</time>
      </trkpt>
      <trkpt lat="51.279553296044469" lon="4.843786172568798">
        <ele>6.97</ele>
        <time>2020-06-14T10:32:55Z</time>
      </trkpt>
      <trkpt lat="51.279717078432441" lon="4.843537816777825">
        <ele>8</ele>
        <time>2020-06-14T10:33:11Z</time>
      </trkpt>
      <trkpt lat="51.279793353751302" lon="4.843465900048614">
        <ele>8.02</ele>
        <time>2020-06-14T10:33:16Z</time>
      </trkpt>
      <trkpt lat="51.279850183054805" lon="4.843368921428919">
        <ele>8.029999999999999</ele>
        <time>2020-06-14T10:33:21Z</time>
      </trkpt>
      <trkpt lat="51.279975743964314" lon="4.843167755752802">
        <ele>8.060000000000001</ele>
        <time>2020-06-14T10:33:34Z</time>
      </trkpt>
      <trkpt lat="51.280020335689187" lon="4.843111094087362">
        <ele>5.8</ele>
        <time>2020-06-14T10:33:38Z</time>
      </trkpt>
      <trkpt lat="51.280174646526575" lon="4.842845471575856">
        <ele>4.75</ele>
        <time>2020-06-14T10:33:53Z</time>
      </trkpt>
      <trkpt lat="51.280224099755287" lon="4.842761904001236">
        <ele>4.69</ele>
        <time>2020-06-14T10:33:58Z</time>
      </trkpt>
      <trkpt lat="51.280243378132582" lon="4.842727370560169">
        <ele>3</ele>
        <time>2020-06-14T10:34:00Z</time>
      </trkpt>
      <trkpt lat="51.28031412139535" lon="4.842596361413598">
        <ele>2.99</ele>
        <time>2020-06-14T10:34:07Z</time>
      </trkpt>
      <trkpt lat="51.280451081693172" lon="4.842374743893743">
        <ele>2.91</ele>
        <time>2020-06-14T10:34:20Z</time>
      </trkpt>
      <trkpt lat="51.280489470809698" lon="4.842333253473043">
        <ele>2.9</ele>
        <time>2020-06-14T10:34:23Z</time>
      </trkpt>
      <trkpt lat="51.280576307326555" lon="4.842197885736823">
        <ele>2.07</ele>
        <time>2020-06-14T10:34:33Z</time>
      </trkpt>
      <trkpt lat="51.280681248754263" lon="4.842061595991254">
        <ele>2.09</ele>
        <time>2020-06-14T10:34:57Z</time>
      </trkpt>
      <trkpt lat="51.280664568766952" lon="4.841957241296768">
        <ele>2.1</ele>
        <time>2020-06-14T10:35:02Z</time>
      </trkpt>
      <trkpt lat="51.280563566833735" lon="4.841791447252035">
        <ele>2.04</ele>
        <time>2020-06-14T10:35:12Z</time>
      </trkpt>
      <trkpt lat="51.280417554080486" lon="4.841557675972581">
        <ele>1.29</ele>
        <time>2020-06-14T10:35:25Z</time>
      </trkpt>
      <trkpt lat="51.280274474993348" lon="4.841181747615337">
        <ele>1.56</ele>
        <time>2020-06-14T10:35:42Z</time>
      </trkpt>
      <trkpt lat="51.280263159424067" lon="4.841038752347231">
        <ele>1.65</ele>
        <time>2020-06-14T10:35:49Z</time>
      </trkpt>
      <trkpt lat="51.280279085040092" lon="4.84095468185842">
        <ele>-0.69</ele>
        <time>2020-06-14T10:35:53Z</time>
      </trkpt>
      <trkpt lat="51.28034982830286" lon="4.84077874571085">
        <ele>-0.68</ele>
        <time>2020-06-14T10:36:02Z</time>
      </trkpt>
      <trkpt lat="51.280429204925895" lon="4.84048898331821">
        <ele>-0.7</ele>
        <time>2020-06-14T10:36:13Z</time>
      </trkpt>
      <trkpt lat="51.28051595762372" lon="4.84021732583642">
        <ele>-0.74</ele>
        <time>2020-06-14T10:36:23Z</time>
      </trkpt>
      <trkpt lat="51.280585527420044" lon="4.840038456022739">
        <ele>-1.94</ele>
        <time>2020-06-14T10:36:33Z</time>
      </trkpt>
      <trkpt lat="51.280596004799008" lon="4.839986236765981">
        <ele>0.53</ele>
        <time>2020-06-14T10:36:35Z</time>
      </trkpt>
      <trkpt lat="51.280624251812696" lon="4.839909626170993">
        <ele>0.53</ele>
        <time>2020-06-14T10:36:38Z</time>
      </trkpt>
      <trkpt lat="51.28071628510952" lon="4.839592706412077">
        <ele>0.48</ele>
        <time>2020-06-14T10:36:56Z</time>
      </trkpt>
      <trkpt lat="51.280860370025039" lon="4.839250221848488">
        <ele>-0.14</ele>
        <time>2020-06-14T10:37:11Z</time>
      </trkpt>
      <trkpt lat="51.280883587896824" lon="4.839204791933298">
        <ele>-0.01</ele>
        <time>2020-06-14T10:37:13Z</time>
      </trkpt>
      <trkpt lat="51.280981907621026" lon="4.838881166651845">
        <ele>-0.03</ele>
        <time>2020-06-14T10:37:26Z</time>
      </trkpt>
      <trkpt lat="51.281557744368911" lon="4.837616086006165">
        <ele>0</ele>
        <time>2020-06-14T10:38:26Z</time>
      </trkpt>
      <trkpt lat="51.28160510212183" lon="4.837538888677955">
        <ele>0</ele>
        <time>2020-06-14T10:38:32Z</time>
      </trkpt>
      <trkpt lat="51.281669810414314" lon="4.837460936978459">
        <ele>0</ele>
        <time>2020-06-14T10:38:39Z</time>
      </trkpt>
      <trkpt lat="51.281766789034009" lon="4.837270332500339">
        <ele>-0.06</ele>
        <time>2020-06-14T10:38:53Z</time>
      </trkpt>
      <trkpt lat="51.28170576877892" lon="4.837174946442246">
        <ele>-1.38</ele>
        <time>2020-06-14T10:38:56Z</time>
      </trkpt>
      <trkpt lat="51.281662601977587" lon="4.837114345282316">
        <ele>-1.38</ele>
        <time>2020-06-14T10:38:57Z</time>
      </trkpt>
      <trkpt lat="51.281557912006974" lon="4.836993226781488">
        <ele>-1.4</ele>
        <time>2020-06-14T10:39:01Z</time>
      </trkpt>
      <trkpt lat="51.281473925337195" lon="4.836816871538758">
        <ele>-2.27</ele>
        <time>2020-06-14T10:39:10Z</time>
      </trkpt>
      <trkpt lat="51.281592529267073" lon="4.836475979536772">
        <ele>-2.38</ele>
        <time>2020-06-14T10:39:25Z</time>
      </trkpt>
      <trkpt lat="51.281642820686102" lon="4.836166938766837">
        <ele>-2.52</ele>
        <time>2020-06-14T10:39:43Z</time>
      </trkpt>
      <trkpt lat="51.281716916710138" lon="4.835456656292081">
        <ele>-2.73</ele>
        <time>2020-06-14T10:40:07Z</time>
      </trkpt>
      <trkpt lat="51.281781289726496" lon="4.834993975237012">
        <ele>-2.86</ele>
        <time>2020-06-14T10:40:21Z</time>
      </trkpt>
      <trkpt lat="51.281844908371568" lon="4.834714522585273">
        <ele>-2.95</ele>
        <time>2020-06-14T10:40:33Z</time>
      </trkpt>
      <trkpt lat="51.281945910304785" lon="4.834486786276102">
        <ele>-3.02</ele>
        <time>2020-06-14T10:40:43Z</time>
      </trkpt>
      <trkpt lat="51.282102903351188" lon="4.83421990647912">
        <ele>-3.15</ele>
        <time>2020-06-14T10:40:54Z</time>
      </trkpt>
      <trkpt lat="51.282207760959864" lon="4.834060566499829">
        <ele>-3.23</ele>
        <time>2020-06-14T10:41:02Z</time>
      </trkpt>
      <trkpt lat="51.282314630225301" lon="4.83387591317296">
        <ele>-0.93</ele>
        <time>2020-06-14T10:41:10Z</time>
      </trkpt>
      <trkpt lat="51.282341368496418" lon="4.833824699744582">
        <ele>-0.94</ele>
        <time>2020-06-14T10:41:12Z</time>
      </trkpt>
      <trkpt lat="51.28235662356019" lon="4.833802655339241">
        <ele>-0.95</ele>
        <time>2020-06-14T10:41:13Z</time>
      </trkpt>
      <trkpt lat="51.282371627166867" lon="4.833782874047756">
        <ele>-0.99</ele>
        <time>2020-06-14T10:41:14Z</time>
      </trkpt>
      <trkpt lat="51.282388558611274" lon="4.83376108109951">
        <ele>-0.99</ele>
        <time>2020-06-14T10:41:15Z</time>
      </trkpt>
      <trkpt lat="51.282406998798251" lon="4.83374590985477">
        <ele>-0.98</ele>
        <time>2020-06-14T10:41:16Z</time>
      </trkpt>
      <trkpt lat="51.282427869737148" lon="4.833728224039078">
        <ele>-1</ele>
        <time>2020-06-14T10:41:17Z</time>
      </trkpt>
      <trkpt lat="51.282609924674034" lon="4.833423458039761">
        <ele>-1.05</ele>
        <time>2020-06-14T10:41:25Z</time>
      </trkpt>
      <trkpt lat="51.282677315175533" lon="4.8336545471102">
        <ele>-1.11</ele>
        <time>2020-06-14T10:41:35Z</time>
      </trkpt>
      <trkpt lat="51.283226665109396" lon="4.834807896986604">
        <ele>-1.47</ele>
        <time>2020-06-14T10:42:28Z</time>
      </trkpt>
      <trkpt lat="51.283431937918067" lon="4.835044769570231">
        <ele>-1.67</ele>
        <time>2020-06-14T10:42:43Z</time>
      </trkpt>
      <trkpt lat="51.284052617847919" lon="4.835547180846334">
        <ele>-2.43</ele>
        <time>2020-06-14T10:43:30Z</time>
      </trkpt>
      <trkpt lat="51.284065525978804" lon="4.835534943267703">
        <ele>-2.45</ele>
        <time>2020-06-14T10:43:31Z</time>
      </trkpt>
      <trkpt lat="51.284294435754418" lon="4.835274936631322">
        <ele>-1.68</ele>
        <time>2020-06-14T10:43:48Z</time>
      </trkpt>
      <trkpt lat="51.284364508464932" lon="4.835028005763888">
        <ele>-1.84</ele>
        <time>2020-06-14T10:43:58Z</time>
      </trkpt>
      <trkpt lat="51.28451538272202" lon="4.834815356880426">
        <ele>-1.98</ele>
        <time>2020-06-14T10:44:15Z</time>
      </trkpt>
      <trkpt lat="51.284678494557738" lon="4.834910575300455">
        <ele>-2.07</ele>
        <time>2020-06-14T10:44:25Z</time>
      </trkpt>
      <trkpt lat="51.284992145374417" lon="4.83500855974853">
        <ele>-2.25</ele>
        <time>2020-06-14T10:44:36Z</time>
      </trkpt>
      <trkpt lat="51.285145366564393" lon="4.835100006312132">
        <ele>-2.35</ele>
        <time>2020-06-14T10:44:42Z</time>
      </trkpt>
      <trkpt lat="51.285166405141354" lon="4.835125152021647">
        <ele>-2.37</ele>
        <time>2020-06-14T10:44:43Z</time>
      </trkpt>
      <trkpt lat="51.285186018794775" lon="4.835144681856036">
        <ele>-2.36</ele>
        <time>2020-06-14T10:44:44Z</time>
      </trkpt>
      <trkpt lat="51.285630343481898" lon="4.835362443700433">
        <ele>-2.62</ele>
        <time>2020-06-14T10:44:57Z</time>
      </trkpt>
      <trkpt lat="51.286065364256501" lon="4.835540726780891">
        <ele>-2.78</ele>
        <time>2020-06-14T10:45:06Z</time>
      </trkpt>
      <trkpt lat="51.286573056131601" lon="4.835763182491064">
        <ele>-3.11</ele>
        <time>2020-06-14T10:45:18Z</time>
      </trkpt>
      <trkpt lat="51.287169260904193" lon="4.835923025384545">
        <ele>-3.43</ele>
        <time>2020-06-14T10:45:28Z</time>
      </trkpt>
      <trkpt lat="51.287577291950583" lon="4.836049927398562">
        <ele>-3.78</ele>
        <time>2020-06-14T10:45:38Z</time>
      </trkpt>
      <trkpt lat="51.287965206429362" lon="4.836121760308743">
        <ele>-4.08</ele>
        <time>2020-06-14T10:45:49Z</time>
      </trkpt>
      <trkpt lat="51.288028405979276" lon="4.836144642904401">
        <ele>-4.13</ele>
        <time>2020-06-14T10:45:52Z</time>
      </trkpt>
      <trkpt lat="51.288384888321161" lon="4.836233071982861">
        <ele>-4.43</ele>
        <time>2020-06-14T10:46:05Z</time>
      </trkpt>
      <trkpt lat="51.288405926898122" lon="4.836245141923428">
        <ele>-4.44</ele>
        <time>2020-06-14T10:46:06Z</time>
      </trkpt>
      <trkpt lat="51.288421181961894" lon="4.836257798597217">
        <ele>-4.47</ele>
        <time>2020-06-14T10:46:07Z</time>
      </trkpt>
      <trkpt lat="51.288451021537185" lon="4.836260145530105">
        <ele>-4.48</ele>
        <time>2020-06-14T10:46:08Z</time>
      </trkpt>
      <trkpt lat="51.288657635450363" lon="4.836356621235609">
        <ele>-4.63</ele>
        <time>2020-06-14T10:46:19Z</time>
      </trkpt>
      <trkpt lat="51.288813706487417" lon="4.836404398083687">
        <ele>-4.73</ele>
        <time>2020-06-14T10:46:26Z</time>
      </trkpt>
      <trkpt lat="51.288999784737825" lon="4.836470866575837">
        <ele>-4.87</ele>
        <time>2020-06-14T10:46:35Z</time>
      </trkpt>
      <trkpt lat="51.289015291258693" lon="4.836489222943783">
        <ele>-4.88</ele>
        <time>2020-06-14T10:46:36Z</time>
      </trkpt>
      <trkpt lat="51.289035491645336" lon="4.836495341733098">
        <ele>-4.9</ele>
        <time>2020-06-14T10:46:37Z</time>
      </trkpt>
      <trkpt lat="51.289239674806595" lon="4.836596008390188">
        <ele>-5.05</ele>
        <time>2020-06-14T10:46:51Z</time>
      </trkpt>
      <trkpt lat="51.289393482729793" lon="4.836654849350452">
        <ele>-5.17</ele>
        <time>2020-06-14T10:47:06Z</time>
      </trkpt>
      <trkpt lat="51.289679640904069" lon="4.836738668382168">
        <ele>-5.29</ele>
        <time>2020-06-14T10:47:24Z</time>
      </trkpt>
      <trkpt lat="51.289984239265323" lon="4.836838664487004">
        <ele>-5.4</ele>
        <time>2020-06-14T10:47:43Z</time>
      </trkpt>
      <trkpt lat="51.290421020239592" lon="4.836990628391504">
        <ele>-5.51</ele>
        <time>2020-06-14T10:48:07Z</time>
      </trkpt>
      <trkpt lat="51.290600560605526" lon="4.837047876790166">
        <ele>-5.58</ele>
        <time>2020-06-14T10:48:17Z</time>
      </trkpt>
      <trkpt lat="51.290645403787494" lon="4.837078219279647">
        <ele>-5.62</ele>
        <time>2020-06-14T10:48:22Z</time>
      </trkpt>
      <trkpt lat="51.290730983018875" lon="4.837123062461615">
        <ele>-5.67</ele>
        <time>2020-06-14T10:48:29Z</time>
      </trkpt>
      <trkpt lat="51.290930891409516" lon="4.837168157100678">
        <ele>-5.81</ele>
        <time>2020-06-14T10:48:42Z</time>
      </trkpt>
      <trkpt lat="51.291210511699319" lon="4.837271254509687">
        <ele>-5.98</ele>
        <time>2020-06-14T10:48:59Z</time>
      </trkpt>
      <trkpt lat="51.29155945032835" lon="4.837391031906009">
        <ele>-6.26</ele>
        <time>2020-06-14T10:49:19Z</time>
      </trkpt>
      <trkpt lat="51.291796490550041" lon="4.837485663592815">
        <ele>-6.45</ele>
        <time>2020-06-14T10:49:34Z</time>
      </trkpt>
      <trkpt lat="51.291821971535683" lon="4.837488261982799">
        <ele>-6.47</ele>
        <time>2020-06-14T10:49:35Z</time>
      </trkpt>
      <trkpt lat="51.291838400065899" lon="4.83749320730567">
        <ele>-6.48</ele>
        <time>2020-06-14T10:49:36Z</time>
      </trkpt>
      <trkpt lat="51.292096981778741" lon="4.83738231472671">
        <ele>-6.72</ele>
        <time>2020-06-14T10:49:54Z</time>
      </trkpt>
      <trkpt lat="51.292254226282239" lon="4.837296232581139">
        <ele>-7.3</ele>
        <time>2020-06-14T10:51:12Z</time>
      </trkpt>
      <trkpt lat="51.292274929583073" lon="4.837276116013527">
        <ele>-7.35</ele>
        <time>2020-06-14T10:51:37Z</time>
      </trkpt>
      <trkpt lat="51.292312396690249" lon="4.837134461849928">
        <ele>12.68</ele>
        <time>2020-06-14T11:31:53Z</time>
      </trkpt>
      <trkpt lat="51.292287753894925" lon="4.837111327797175">
        <ele>12.9</ele>
        <time>2020-06-14T11:32:24Z</time>
      </trkpt>
      <trkpt lat="51.292348774150014" lon="4.837087439373136">
        <ele>14.68</ele>
        <time>2020-06-14T11:36:37Z</time>
      </trkpt>
      <trkpt lat="51.292384983971715" lon="4.837081152945757">
        <ele>14.73</ele>
        <time>2020-06-14T11:37:08Z</time>
      </trkpt>
      <trkpt lat="51.292366627603769" lon="4.837104538455606">
        <ele>14.77</ele>
        <time>2020-06-14T11:37:24Z</time>
      </trkpt>
      <trkpt lat="51.292335949838161" lon="4.837189698591828">
        <ele>16.390000000000001</ele>
        <time>2020-06-14T11:48:36Z</time>
      </trkpt>
      <trkpt lat="51.292425217106938" lon="4.837533356621862">
        <ele>18.140000000000001</ele>
        <time>2020-06-14T11:52:15Z</time>
      </trkpt>
      <trkpt lat="51.292392862960696" lon="4.837506450712681">
        <ele>18.18</ele>
        <time>2020-06-14T11:52:45Z</time>
      </trkpt>
      <trkpt lat="51.292347516864538" lon="4.837561938911676">
        <ele>18.210000000000001</ele>
        <time>2020-06-14T11:53:13Z</time>
      </trkpt>
      <trkpt lat="51.29223863594234" lon="4.837588761001825">
        <ele>18.25</ele>
        <time>2020-06-14T11:53:28Z</time>
      </trkpt>
      <trkpt lat="51.292218267917633" lon="4.8375797085464">
        <ele>18.239999999999998</ele>
        <time>2020-06-14T11:53:31Z</time>
      </trkpt>
      <trkpt lat="51.29206663928926" lon="4.837577948346734">
        <ele>18.25</ele>
        <time>2020-06-14T11:53:45Z</time>
      </trkpt>
      <trkpt lat="51.291920458897948" lon="4.837526567280293">
        <ele>18.289999999999999</ele>
        <time>2020-06-14T11:53:59Z</time>
      </trkpt>
      <trkpt lat="51.291761538013816" lon="4.837447442114353">
        <ele>18.309999999999999</ele>
        <time>2020-06-14T11:54:21Z</time>
      </trkpt>
      <trkpt lat="51.291693225502968" lon="4.83739254064858">
        <ele>18.32</ele>
        <time>2020-06-14T11:54:27Z</time>
      </trkpt>
      <trkpt lat="51.291558528319001" lon="4.837349206209183">
        <ele>18.329999999999998</ele>
        <time>2020-06-14T11:54:40Z</time>
      </trkpt>
      <trkpt lat="51.291290139779449" lon="4.8372723441571">
        <ele>18.359999999999999</ele>
        <time>2020-06-14T11:54:57Z</time>
      </trkpt>
      <trkpt lat="51.290990905836225" lon="4.83717461116612">
        <ele>18.399999999999999</ele>
        <time>2020-06-14T11:55:18Z</time>
      </trkpt>
      <trkpt lat="51.290746154263616" lon="4.837090540677309">
        <ele>18.440000000000001</ele>
        <time>2020-06-14T11:55:34Z</time>
      </trkpt>
      <trkpt lat="51.290603578090668" lon="4.837049888446927">
        <ele>18.48</ele>
        <time>2020-06-14T11:55:45Z</time>
      </trkpt>
      <trkpt lat="51.290552616119385" lon="4.837035974487662">
        <ele>18.48</ele>
        <time>2020-06-14T11:55:49Z</time>
      </trkpt>
      <trkpt lat="51.290357233956456" lon="4.836955089122057">
        <ele>18.52</ele>
        <time>2020-06-14T11:56:01Z</time>
      </trkpt>
      <trkpt lat="51.290221698582172" lon="4.836904378607869">
        <ele>16.25</ele>
        <time>2020-06-14T11:56:12Z</time>
      </trkpt>
      <trkpt lat="51.29003151319921" lon="4.836853332817555">
        <ele>16.23</ele>
        <time>2020-06-14T11:56:29Z</time>
      </trkpt>
      <trkpt lat="51.289759604260325" lon="4.836731711402535">
        <ele>16.27</ele>
        <time>2020-06-14T11:56:49Z</time>
      </trkpt>
      <trkpt lat="51.289486857131124" lon="4.836667003110051">
        <ele>16.329999999999998</ele>
        <time>2020-06-14T11:57:12Z</time>
      </trkpt>
      <trkpt lat="51.289337910711765" lon="4.836662309244275">
        <ele>16.300000000000001</ele>
        <time>2020-06-14T11:57:26Z</time>
      </trkpt>
      <trkpt lat="51.289173876866698" lon="4.836590643972158">
        <ele>16.289999999999999</ele>
        <time>2020-06-14T11:57:40Z</time>
      </trkpt>
      <trkpt lat="51.288854274898767" lon="4.836466843262315">
        <ele>16.280000000000001</ele>
        <time>2020-06-14T11:57:59Z</time>
      </trkpt>
      <trkpt lat="51.288608433678746" lon="4.836346814408898">
        <ele>16.260000000000002</ele>
        <time>2020-06-14T11:58:17Z</time>
      </trkpt>
      <trkpt lat="51.288527548313141" lon="4.836311778053641">
        <ele>16.260000000000002</ele>
        <time>2020-06-14T11:58:23Z</time>
      </trkpt>
      <trkpt lat="51.288426043465734" lon="4.836286464706063">
        <ele>16.239999999999998</ele>
        <time>2020-06-14T11:58:32Z</time>
      </trkpt>
      <trkpt lat="51.288181962445378" lon="4.836188144981861">
        <ele>16.210000000000001</ele>
        <time>2020-06-14T11:58:48Z</time>
      </trkpt>
      <trkpt lat="51.287980126217008" lon="4.836096866056323">
        <ele>16.210000000000001</ele>
        <time>2020-06-14T11:59:00Z</time>
      </trkpt>
      <trkpt lat="51.287840148434043" lon="4.83606836758554">
        <ele>16.199999999999999</ele>
        <time>2020-06-14T11:59:12Z</time>
      </trkpt>
      <trkpt lat="51.287662284448743" lon="4.836005587130785">
        <ele>16.23</ele>
        <time>2020-06-14T11:59:26Z</time>
      </trkpt>
      <trkpt lat="51.287285266444087" lon="4.835867118090391">
        <ele>16.190000000000001</ele>
        <time>2020-06-14T11:59:49Z</time>
      </trkpt>
      <trkpt lat="51.287022577598691" lon="4.835770223289728">
        <ele>16.18</ele>
        <time>2020-06-14T12:00:08Z</time>
      </trkpt>
      <trkpt lat="51.286899615079165" lon="4.835721272975206">
        <ele>16.149999999999999</ele>
        <time>2020-06-14T12:00:18Z</time>
      </trkpt>
      <trkpt lat="51.286704652011395" lon="4.835641225799918">
        <ele>16.129999999999999</ele>
        <time>2020-06-14T12:00:32Z</time>
      </trkpt>
      <trkpt lat="51.286661988124251" lon="4.835623791441321">
        <ele>16.120000000000001</ele>
        <time>2020-06-14T12:00:35Z</time>
      </trkpt>
      <trkpt lat="51.28656710498035" lon="4.835590766742826">
        <ele>16.079999999999998</ele>
        <time>2020-06-14T12:00:42Z</time>
      </trkpt>
      <trkpt lat="51.286540115252137" lon="4.835589760914445">
        <ele>16.07</ele>
        <time>2020-06-14T12:00:44Z</time>
      </trkpt>
      <trkpt lat="51.286303158849478" lon="4.835512060672045">
        <ele>16.059999999999999</ele>
        <time>2020-06-14T12:01:00Z</time>
      </trkpt>
      <trkpt lat="51.286264434456825" lon="4.835499487817287">
        <ele>16.030000000000001</ele>
        <time>2020-06-14T12:01:03Z</time>
      </trkpt>
      <trkpt lat="51.286196373403072" lon="4.835474425926805">
        <ele>15.98</ele>
        <time>2020-06-14T12:01:09Z</time>
      </trkpt>
      <trkpt lat="51.286168042570353" lon="4.835468307137489">
        <ele>15.960000000000001</ele>
        <time>2020-06-14T12:01:11Z</time>
      </trkpt>
      <trkpt lat="51.2859548907727" lon="4.835378788411617">
        <ele>15.92</ele>
        <time>2020-06-14T12:01:24Z</time>
      </trkpt>
      <trkpt lat="51.285798233002424" lon="4.835323048755527">
        <ele>15.859999999999999</ele>
        <time>2020-06-14T12:01:37Z</time>
      </trkpt>
      <trkpt lat="51.285762526094913" lon="4.835295639932156">
        <ele>15.85</ele>
        <time>2020-06-14T12:01:40Z</time>
      </trkpt>
      <trkpt lat="51.285726903006434" lon="4.835284659639001">
        <ele>15.84</ele>
        <time>2020-06-14T12:01:43Z</time>
      </trkpt>
      <trkpt lat="51.285598576068878" lon="4.835244258865714">
        <ele>15.01</ele>
        <time>2020-06-14T12:01:54Z</time>
      </trkpt>
      <trkpt lat="51.285375785082579" lon="4.835164966061711">
        <ele>14.970000000000001</ele>
        <time>2020-06-14T12:02:06Z</time>
      </trkpt>
      <trkpt lat="51.285173278301954" lon="4.83507108874619">
        <ele>14.949999999999999</ele>
        <time>2020-06-14T12:02:18Z</time>
      </trkpt>
      <trkpt lat="51.28501620143652" lon="4.834999674931169">
        <ele>14.93</ele>
        <time>2020-06-14T12:02:29Z</time>
      </trkpt>
      <trkpt lat="51.284919725731015" lon="4.834972349926829">
        <ele>14.91</ele>
        <time>2020-06-14T12:02:35Z</time>
      </trkpt>
      <trkpt lat="51.284624096006155" lon="4.834841592237353">
        <ele>14.880000000000001</ele>
        <time>2020-06-14T12:02:51Z</time>
      </trkpt>
      <trkpt lat="51.284542623907328" lon="4.8348927218467">
        <ele>14.869999999999999</ele>
        <time>2020-06-14T12:03:00Z</time>
      </trkpt>
      <trkpt lat="51.284473305568099" lon="4.835093803703785">
        <ele>14.85</ele>
        <time>2020-06-14T12:03:15Z</time>
      </trkpt>
      <trkpt lat="51.284249508753419" lon="4.835594538599253">
        <ele>14.73</ele>
        <time>2020-06-14T12:03:36Z</time>
      </trkpt>
      <trkpt lat="51.284027639776468" lon="4.835537122562528">
        <ele>14.57</ele>
        <time>2020-06-14T12:03:57Z</time>
      </trkpt>
      <trkpt lat="51.283884728327394" lon="4.835326820611954">
        <ele>14.42</ele>
        <time>2020-06-14T12:04:14Z</time>
      </trkpt>
      <trkpt lat="51.283693453297019" lon="4.835110148414969">
        <ele>14.23</ele>
        <time>2020-06-14T12:04:34Z</time>
      </trkpt>
      <trkpt lat="51.283455407246947" lon="4.834774201735854">
        <ele>14.01</ele>
        <time>2020-06-14T12:04:55Z</time>
      </trkpt>
      <trkpt lat="51.283264802768826" lon="4.834519727155566">
        <ele>13.84</ele>
        <time>2020-06-14T12:05:08Z</time>
      </trkpt>
      <trkpt lat="51.283151814714074" lon="4.834286207333207">
        <ele>13.710000000000001</ele>
        <time>2020-06-14T12:05:21Z</time>
      </trkpt>
      <trkpt lat="51.282960036769509" lon="4.833835512399674">
        <ele>13.390000000000001</ele>
        <time>2020-06-14T12:05:44Z</time>
      </trkpt>
      <trkpt lat="51.282860711216927" lon="4.83353485353291">
        <ele>13.17</ele>
        <time>2020-06-14T12:06:00Z</time>
      </trkpt>
      <trkpt lat="51.282699275761843" lon="4.833162948489189">
        <ele>12.85</ele>
        <time>2020-06-14T12:06:19Z</time>
      </trkpt>
      <trkpt lat="51.282620402052999" lon="4.832984581589699">
        <ele>12.67</ele>
        <time>2020-06-14T12:06:31Z</time>
      </trkpt>
      <trkpt lat="51.282473215833306" lon="4.832917107269168">
        <ele>12.5</ele>
        <time>2020-06-14T12:06:42Z</time>
      </trkpt>
      <trkpt lat="51.282287137582898" lon="4.83284586109221">
        <ele>11.529999999999999</ele>
        <time>2020-06-14T12:06:52Z</time>
      </trkpt>
      <trkpt lat="51.281846333295107" lon="4.832727927714586">
        <ele>11.130000000000001</ele>
        <time>2020-06-14T12:07:19Z</time>
      </trkpt>
      <trkpt lat="51.281807273626328" lon="4.832707224413753">
        <ele>11.1</ele>
        <time>2020-06-14T12:07:22Z</time>
      </trkpt>
      <trkpt lat="51.28157970495522" lon="4.832641342654824">
        <ele>10.91</ele>
        <time>2020-06-14T12:07:36Z</time>
      </trkpt>
      <trkpt lat="51.28138666972518" lon="4.832609491422772">
        <ele>10.76</ele>
        <time>2020-06-14T12:07:49Z</time>
      </trkpt>
      <trkpt lat="51.281356662511826" lon="4.83261133544147">
        <ele>10.710000000000001</ele>
        <time>2020-06-14T12:07:53Z</time>
      </trkpt>
      <trkpt lat="51.281166225671768" lon="4.832517541944981">
        <ele>10.539999999999999</ele>
        <time>2020-06-14T12:08:06Z</time>
      </trkpt>
      <trkpt lat="51.28099431283772" lon="4.832473872229457">
        <ele>10.43</ele>
        <time>2020-06-14T12:08:16Z</time>
      </trkpt>
      <trkpt lat="51.280758948996663" lon="4.832383766770363">
        <ele>10.31</ele>
        <time>2020-06-14T12:08:31Z</time>
      </trkpt>
      <trkpt lat="51.280599776655436" lon="4.832354011014104">
        <ele>10.199999999999999</ele>
        <time>2020-06-14T12:08:44Z</time>
      </trkpt>
      <trkpt lat="51.280500199645758" lon="4.832305144518614">
        <ele>10.119999999999999</ele>
        <time>2020-06-14T12:08:56Z</time>
      </trkpt>
      <trkpt lat="51.280385116115212" lon="4.83220674097538">
        <ele>10.039999999999999</ele>
        <time>2020-06-14T12:09:06Z</time>
      </trkpt>
      <trkpt lat="51.280290987342596" lon="4.832181092351675">
        <ele>10.01</ele>
        <time>2020-06-14T12:09:15Z</time>
      </trkpt>
      <trkpt lat="51.28022326156497" lon="4.832122083753347">
        <ele>10.01</ele>
        <time>2020-06-14T12:09:21Z</time>
      </trkpt>
      <trkpt lat="51.280138101428747" lon="4.832066847011447">
        <ele>9.99</ele>
        <time>2020-06-14T12:09:26Z</time>
      </trkpt>
      <trkpt lat="51.280113877728581" lon="4.8320347443223">
        <ele>9.960000000000001</ele>
        <time>2020-06-14T12:09:28Z</time>
      </trkpt>
      <trkpt lat="51.279898881912231" lon="4.831830225884914">
        <ele>9.9</ele>
        <time>2020-06-14T12:09:44Z</time>
      </trkpt>
      <trkpt lat="51.27976736985147" lon="4.831663426011801">
        <ele>9.869999999999999</ele>
        <time>2020-06-14T12:09:55Z</time>
      </trkpt>
      <trkpt lat="51.279724286869168" lon="4.831607518717647">
        <ele>9.880000000000001</ele>
        <time>2020-06-14T12:09:59Z</time>
      </trkpt>
      <trkpt lat="51.279672402888536" lon="4.831539625301957">
        <ele>9.880000000000001</ele>
        <time>2020-06-14T12:10:03Z</time>
      </trkpt>
      <trkpt lat="51.279425472021103" lon="4.831232847645879">
        <ele>9.859999999999999</ele>
        <time>2020-06-14T12:10:36Z</time>
      </trkpt>
      <trkpt lat="51.279076198115945" lon="4.830932691693306">
        <ele>9.890000000000001</ele>
        <time>2020-06-14T12:10:58Z</time>
      </trkpt>
      <trkpt lat="51.278846701607108" lon="4.830697160214186">
        <ele>9.93</ele>
        <time>2020-06-14T12:11:14Z</time>
      </trkpt>
      <trkpt lat="51.27866649068892" lon="4.830511501058936">
        <ele>9.949999999999999</ele>
        <time>2020-06-14T12:11:34Z</time>
      </trkpt>
      <trkpt lat="51.278557693585753" lon="4.830422652885318">
        <ele>9.970000000000001</ele>
        <time>2020-06-14T12:11:42Z</time>
      </trkpt>
      <trkpt lat="51.278448309749365" lon="4.830275131389499">
        <ele>10</ele>
        <time>2020-06-14T12:11:53Z</time>
      </trkpt>
      <trkpt lat="51.278288131579757" lon="4.8301144503057">
        <ele>10.029999999999999</ele>
        <time>2020-06-14T12:12:03Z</time>
      </trkpt>
      <trkpt lat="51.278046565130353" lon="4.829863160848618">
        <ele>10.09</ele>
        <time>2020-06-14T12:12:23Z</time>
      </trkpt>
      <trkpt lat="51.27789493650198" lon="4.829744892194867">
        <ele>10.140000000000001</ele>
        <time>2020-06-14T12:12:37Z</time>
      </trkpt>
      <trkpt lat="51.277671474963427" lon="4.829555796459317">
        <ele>10.23</ele>
        <time>2020-06-14T12:12:54Z</time>
      </trkpt>
      <trkpt lat="51.277271742001176" lon="4.829297382384539">
        <ele>10.300000000000001</ele>
        <time>2020-06-14T12:13:19Z</time>
      </trkpt>
      <trkpt lat="51.277028499171138" lon="4.829128570854664">
        <ele>10.42</ele>
        <time>2020-06-14T12:13:42Z</time>
      </trkpt>
      <trkpt lat="51.276679141446948" lon="4.82894903048873">
        <ele>10.550000000000001</ele>
        <time>2020-06-14T12:14:06Z</time>
      </trkpt>
      <trkpt lat="51.276516616344452" lon="4.828842412680388">
        <ele>10.609999999999999</ele>
        <time>2020-06-14T12:14:18Z</time>
      </trkpt>
      <trkpt lat="51.276303883641958" lon="4.828673517331481">
        <ele>10.699999999999999</ele>
        <time>2020-06-14T12:14:33Z</time>
      </trkpt>
      <trkpt lat="51.276279408484697" lon="4.828659351915121">
        <ele>10.710000000000001</ele>
        <time>2020-06-14T12:14:35Z</time>
      </trkpt>
      <trkpt lat="51.276156026870012" lon="4.828594224527478">
        <ele>10.74</ele>
        <time>2020-06-14T12:14:43Z</time>
      </trkpt>
      <trkpt lat="51.276131719350815" lon="4.828575784340501">
        <ele>10.75</ele>
        <time>2020-06-14T12:14:45Z</time>
      </trkpt>
      <trkpt lat="51.275976905599236" lon="4.828490456566215">
        <ele>10.789999999999999</ele>
        <time>2020-06-14T12:14:59Z</time>
      </trkpt>
      <trkpt lat="51.276033483445644" lon="4.82852834276855">
        <ele>11.119999999999999</ele>
        <time>2020-06-14T12:16:22Z</time>
      </trkpt>
      <trkpt lat="51.275596031919122" lon="4.82821075245738">
        <ele>11.279999999999999</ele>
        <time>2020-06-14T12:17:00Z</time>
      </trkpt>
      <trkpt lat="51.275528054684401" lon="4.828152414411306">
        <ele>11.300000000000001</ele>
        <time>2020-06-14T12:17:05Z</time>
      </trkpt>
      <trkpt lat="51.275178110226989" lon="4.827905735000968">
        <ele>11.300000000000001</ele>
        <time>2020-06-14T12:17:27Z</time>
      </trkpt>
      <trkpt lat="51.275060931220651" lon="4.827779084444046">
        <ele>11.31</ele>
        <time>2020-06-14T12:17:37Z</time>
      </trkpt>
      <trkpt lat="51.274751638993621" lon="4.827580433338881">
        <ele>11.31</ele>
        <time>2020-06-14T12:18:01Z</time>
      </trkpt>
      <trkpt lat="51.27456396818161" lon="4.827414220198989">
        <ele>11.289999999999999</ele>
        <time>2020-06-14T12:18:19Z</time>
      </trkpt>
      <trkpt lat="51.274488447234035" lon="4.827382452785969">
        <ele>11.279999999999999</ele>
        <time>2020-06-14T12:18:24Z</time>
      </trkpt>
      <trkpt lat="51.274135820567608" lon="4.827148178592324">
        <ele>11.25</ele>
        <time>2020-06-14T12:18:48Z</time>
      </trkpt>
      <trkpt lat="51.273827701807022" lon="4.826917927712202">
        <ele>11.220000000000001</ele>
        <time>2020-06-14T12:19:09Z</time>
      </trkpt>
      <trkpt lat="51.273511787876487" lon="4.826735118404031">
        <ele>11.220000000000001</ele>
        <time>2020-06-14T12:19:32Z</time>
      </trkpt>
      <trkpt lat="51.273161256685853" lon="4.826528420671821">
        <ele>11.19</ele>
        <time>2020-06-14T12:19:53Z</time>
      </trkpt>
      <trkpt lat="51.27296470105648" lon="4.82644334435463">
        <ele>11.19</ele>
        <time>2020-06-14T12:20:01Z</time>
      </trkpt>
      <trkpt lat="51.272933939471841" lon="4.826419958844781">
        <ele>11.199999999999999</ele>
        <time>2020-06-14T12:20:02Z</time>
      </trkpt>
      <trkpt lat="51.272612493485212" lon="4.82622591778636">
        <ele>11.23</ele>
        <time>2020-06-14T12:20:14Z</time>
      </trkpt>
      <trkpt lat="51.272387523204088" lon="4.826152911409736">
        <ele>10.470000000000001</ele>
        <time>2020-06-14T12:20:23Z</time>
      </trkpt>
      <trkpt lat="51.272349469363689" lon="4.826134303584695">
        <ele>10.460000000000001</ele>
        <time>2020-06-14T12:20:24Z</time>
      </trkpt>
      <trkpt lat="51.27231870777905" lon="4.826128771528602">
        <ele>10.460000000000001</ele>
        <time>2020-06-14T12:20:25Z</time>
      </trkpt>
      <trkpt lat="51.272292472422123" lon="4.826127933338285">
        <ele>10.470000000000001</ele>
        <time>2020-06-14T12:20:26Z</time>
      </trkpt>
      <trkpt lat="51.272264141589403" lon="4.82611452229321">
        <ele>10.460000000000001</ele>
        <time>2020-06-14T12:20:27Z</time>
      </trkpt>
      <trkpt lat="51.272232625633478" lon="4.826112259179354">
        <ele>10.460000000000001</ele>
        <time>2020-06-14T12:20:28Z</time>
      </trkpt>
      <trkpt lat="51.27220488153398" lon="4.826087113469839">
        <ele>10.460000000000001</ele>
        <time>2020-06-14T12:20:29Z</time>
      </trkpt>
      <trkpt lat="51.272169761359692" lon="4.826070014387369">
        <ele>10.460000000000001</ele>
        <time>2020-06-14T12:20:30Z</time>
      </trkpt>
      <trkpt lat="51.272139335051179" lon="4.826060207560659">
        <ele>10.470000000000001</ele>
        <time>2020-06-14T12:20:31Z</time>
      </trkpt>
      <trkpt lat="51.271892655640841" lon="4.825916457921267">
        <ele>10.49</ele>
        <time>2020-06-14T12:20:38Z</time>
      </trkpt>
      <trkpt lat="51.271846471354365" lon="4.825915032997727">
        <ele>10.49</ele>
        <time>2020-06-14T12:20:39Z</time>
      </trkpt>
      <trkpt lat="51.271816128864884" lon="4.825905058532953">
        <ele>10.5</ele>
        <time>2020-06-14T12:20:40Z</time>
      </trkpt>
      <trkpt lat="51.271773129701614" lon="4.825903382152319">
        <ele>10.49</ele>
        <time>2020-06-14T12:20:41Z</time>
      </trkpt>
      <trkpt lat="51.27173725515604" lon="4.825898353010416">
        <ele>10.48</ele>
        <time>2020-06-14T12:20:42Z</time>
      </trkpt>
      <trkpt lat="51.271707080304623" lon="4.825885109603405">
        <ele>10.48</ele>
        <time>2020-06-14T12:20:43Z</time>
      </trkpt>
      <trkpt lat="51.271675564348698" lon="4.825874464586377">
        <ele>10.48</ele>
        <time>2020-06-14T12:20:44Z</time>
      </trkpt>
      <trkpt lat="51.271204669028521" lon="4.825692661106587">
        <ele>9.68</ele>
        <time>2020-06-14T12:20:57Z</time>
      </trkpt>
      <trkpt lat="51.271177595481277" lon="4.825668772682548">
        <ele>9.68</ele>
        <time>2020-06-14T12:20:58Z</time>
      </trkpt>
      <trkpt lat="51.271155551075935" lon="4.825651422142983">
        <ele>9.68</ele>
        <time>2020-06-14T12:20:59Z</time>
      </trkpt>
      <trkpt lat="51.270712148398161" lon="4.825331401079893">
        <ele>9.68</ele>
        <time>2020-06-14T12:21:09Z</time>
      </trkpt>
      <trkpt lat="51.270275870338082" lon="4.825174491852522">
        <ele>9.68</ele>
        <time>2020-06-14T12:21:18Z</time>
      </trkpt>
      <trkpt lat="51.269700536504388" lon="4.824932757765055">
        <ele>9.68</ele>
        <time>2020-06-14T12:21:30Z</time>
      </trkpt>
      <trkpt lat="51.269326703622937" lon="4.824710888788104">
        <ele>9.69</ele>
        <time>2020-06-14T12:21:38Z</time>
      </trkpt>
      <trkpt lat="51.269271885976195" lon="4.824681635946035">
        <ele>9.699999999999999</ele>
        <time>2020-06-14T12:21:39Z</time>
      </trkpt>
      <trkpt lat="51.269082454964519" lon="4.824554482474923">
        <ele>9.699999999999999</ele>
        <time>2020-06-14T12:21:44Z</time>
      </trkpt>
      <trkpt lat="51.269047670066357" lon="4.824524726718664">
        <ele>9.710000000000001</ele>
        <time>2020-06-14T12:21:45Z</time>
      </trkpt>
      <trkpt lat="51.268997965380549" lon="4.824475357308984">
        <ele>9.710000000000001</ele>
        <time>2020-06-14T12:21:46Z</time>
      </trkpt>
      <trkpt lat="51.268964605405927" lon="4.824450211599469">
        <ele>9.710000000000001</ele>
        <time>2020-06-14T12:21:47Z</time>
      </trkpt>
      <trkpt lat="51.268870225176215" lon="4.824390029534698">
        <ele>9.710000000000001</ele>
        <time>2020-06-14T12:21:49Z</time>
      </trkpt>
      <trkpt lat="51.26882940530777" lon="4.824360106140375">
        <ele>9.720000000000001</ele>
        <time>2020-06-14T12:21:50Z</time>
      </trkpt>
      <trkpt lat="51.268470911309123" lon="4.824149804189801">
        <ele>9.75</ele>
        <time>2020-06-14T12:22:00Z</time>
      </trkpt>
      <trkpt lat="51.26826262101531" lon="4.824054418131709">
        <ele>9.75</ele>
        <time>2020-06-14T12:22:12Z</time>
      </trkpt>
      <trkpt lat="51.267977133393288" lon="4.823878901079297">
        <ele>9.75</ele>
        <time>2020-06-14T12:22:13Z</time>
      </trkpt>
      <trkpt lat="51.268026502802968" lon="4.823662312701345">
        <ele>9.75</ele>
        <time>2020-06-14T12:22:18Z</time>
      </trkpt>
      <trkpt lat="51.268072854727507" lon="4.821919715031982">
        <ele>9.369999999999999</ele>
        <time>2020-06-14T12:23:42Z</time>
      </trkpt>
      <trkpt lat="51.268038069829345" lon="4.821545798331499">
        <ele>9.18</ele>
        <time>2020-06-14T12:24:00Z</time>
      </trkpt>
      <trkpt lat="51.268016863614321" lon="4.821151429787278">
        <ele>7.97</ele>
        <time>2020-06-14T12:24:17Z</time>
      </trkpt>
      <trkpt lat="51.267996830865741" lon="4.820848256349564">
        <ele>7.84</ele>
        <time>2020-06-14T12:24:28Z</time>
      </trkpt>
      <trkpt lat="51.267996914684772" lon="4.820805843919516">
        <ele>7.81</ele>
        <time>2020-06-14T12:24:30Z</time>
      </trkpt>
      <trkpt lat="51.267957771196961" lon="4.82029790058732">
        <ele>7.61</ele>
        <time>2020-06-14T12:24:49Z</time>
      </trkpt>
      <trkpt lat="51.267906976863742" lon="4.818794773891568">
        <ele>6.73</ele>
        <time>2020-06-14T12:25:50Z</time>
      </trkpt>
      <trkpt lat="51.26789465546608" lon="4.8187655210495">
        <ele>6.7</ele>
        <time>2020-06-14T12:25:52Z</time>
      </trkpt>
      <trkpt lat="51.267885686829686" lon="4.818746913224459">
        <ele>6.66</ele>
        <time>2020-06-14T12:25:54Z</time>
      </trkpt>
      <trkpt lat="51.267832210287452" lon="4.818607941269875">
        <ele>6.59</ele>
        <time>2020-06-14T12:25:59Z</time>
      </trkpt>
      <trkpt lat="51.267784852534533" lon="4.818478859961033">
        <ele>6.53</ele>
        <time>2020-06-14T12:26:03Z</time>
      </trkpt>
      <trkpt lat="51.267624758183956" lon="4.818222541362047">
        <ele>6.36</ele>
        <time>2020-06-14T12:26:15Z</time>
      </trkpt>
      <trkpt lat="51.26756239682436" lon="4.8181576654315">
        <ele>6.31</ele>
        <time>2020-06-14T12:26:19Z</time>
      </trkpt>
      <trkpt lat="51.26748519949615" lon="4.818097231909633">
        <ele>6.25</ele>
        <time>2020-06-14T12:26:24Z</time>
      </trkpt>
      <trkpt lat="51.267307251691818" lon="4.817973934113979">
        <ele>6.08</ele>
        <time>2020-06-14T12:26:38Z</time>
      </trkpt>
      <trkpt lat="51.267126370221376" lon="4.8178537376225">
        <ele>5.97</ele>
        <time>2020-06-14T12:26:48Z</time>
      </trkpt>
      <trkpt lat="51.266846330836415" lon="4.817623570561409">
        <ele>5.73</ele>
        <time>2020-06-14T12:27:10Z</time>
      </trkpt>
      <trkpt lat="51.266540223732591" lon="4.817443443462253">
        <ele>5.58</ele>
        <time>2020-06-14T12:27:31Z</time>
      </trkpt>
      <trkpt lat="51.266240067780018" lon="4.817200787365437">
        <ele>5.47</ele>
        <time>2020-06-14T12:27:51Z</time>
      </trkpt>
      <trkpt lat="51.266138479113579" lon="4.817121997475624">
        <ele>5.44</ele>
        <time>2020-06-14T12:27:58Z</time>
      </trkpt>
      <trkpt lat="51.265590889379382" lon="4.816632578149438">
        <ele>7.64</ele>
        <time>2020-06-14T12:28:35Z</time>
      </trkpt>
      <trkpt lat="51.265531545504928" lon="4.816586393862963">
        <ele>7.63</ele>
        <time>2020-06-14T12:28:39Z</time>
      </trkpt>
      <trkpt lat="51.265287548303604" lon="4.816446248441935">
        <ele>8.449999999999999</ele>
        <time>2020-06-14T12:28:55Z</time>
      </trkpt>
      <trkpt lat="51.265114462003112" lon="4.816408697515726">
        <ele>9.18</ele>
        <time>2020-06-14T12:29:06Z</time>
      </trkpt>
      <trkpt lat="51.264937939122319" lon="4.816402578726411">
        <ele>9.17</ele>
        <time>2020-06-14T12:29:18Z</time>
      </trkpt>
      <trkpt lat="51.264871386811137" lon="4.816401321440935">
        <ele>10.039999999999999</ele>
        <time>2020-06-14T12:29:22Z</time>
      </trkpt>
      <trkpt lat="51.264667958021164" lon="4.816457144916058">
        <ele>10.859999999999999</ele>
        <time>2020-06-14T12:29:36Z</time>
      </trkpt>
      <trkpt lat="51.26442689448595" lon="4.81660240329802">
        <ele>11.66</ele>
        <time>2020-06-14T12:29:53Z</time>
      </trkpt>
      <trkpt lat="51.264247857034206" lon="4.816823014989495">
        <ele>12.41</ele>
        <time>2020-06-14T12:30:08Z</time>
      </trkpt>
      <trkpt lat="51.264076111838222" lon="4.817075729370117">
        <ele>13.18</ele>
        <time>2020-06-14T12:30:23Z</time>
      </trkpt>
      <trkpt lat="51.263911910355091" lon="4.817333724349737">
        <ele>13.949999999999999</ele>
        <time>2020-06-14T12:30:39Z</time>
      </trkpt>
      <trkpt lat="51.263758186250925" lon="4.817592725157738">
        <ele>13.98</ele>
        <time>2020-06-14T12:30:52Z</time>
      </trkpt>
      <trkpt lat="51.263678893446922" lon="4.817718453705311">
        <ele>14.01</ele>
        <time>2020-06-14T12:30:59Z</time>
      </trkpt>
      <trkpt lat="51.263625249266624" lon="4.81779657304287">
        <ele>14.02</ele>
        <time>2020-06-14T12:31:04Z</time>
      </trkpt>
      <trkpt lat="51.263433136045933" lon="4.818063285201788">
        <ele>14.09</ele>
        <time>2020-06-14T12:31:21Z</time>
      </trkpt>
      <trkpt lat="51.263281004503369" lon="4.818283813074231">
        <ele>14.16</ele>
        <time>2020-06-14T12:31:35Z</time>
      </trkpt>
      <trkpt lat="51.263229791074991" lon="4.818351957947016">
        <ele>11.869999999999999</ele>
        <time>2020-06-14T12:31:41Z</time>
      </trkpt>
      <trkpt lat="51.263203639537096" lon="4.818386407569051">
        <ele>11.890000000000001</ele>
        <time>2020-06-14T12:31:44Z</time>
      </trkpt>
      <trkpt lat="51.263156784698367" lon="4.818470645695925">
        <ele>11.91</ele>
        <time>2020-06-14T12:31:49Z</time>
      </trkpt>
      <trkpt lat="51.263061817735434" lon="4.818628393113613">
        <ele>11.19</ele>
        <time>2020-06-14T12:31:59Z</time>
      </trkpt>
      <trkpt lat="51.263003814965487" lon="4.818705590441823">
        <ele>11.210000000000001</ele>
        <time>2020-06-14T12:32:04Z</time>
      </trkpt>
      <trkpt lat="51.262860065326095" lon="4.81891312636435">
        <ele>10.49</ele>
        <time>2020-06-14T12:32:18Z</time>
      </trkpt>
      <trkpt lat="51.26282318495214" lon="4.8189692851156">
        <ele>10.51</ele>
        <time>2020-06-14T12:32:21Z</time>
      </trkpt>
      <trkpt lat="51.262674238532782" lon="4.819203140214086">
        <ele>9.69</ele>
        <time>2020-06-14T12:32:35Z</time>
      </trkpt>
      <trkpt lat="51.26251389272511" lon="4.819427942857146">
        <ele>8.539999999999999</ele>
        <time>2020-06-14T12:32:49Z</time>
      </trkpt>
      <trkpt lat="51.262359246611595" lon="4.819683507084847">
        <ele>7.61</ele>
        <time>2020-06-14T12:33:03Z</time>
      </trkpt>
      <trkpt lat="51.262360252439976" lon="4.819762129336596">
        <ele>7.62</ele>
        <time>2020-06-14T12:33:06Z</time>
      </trkpt>
      <trkpt lat="51.26241372898221" lon="4.819913255050778">
        <ele>9.09</ele>
        <time>2020-06-14T12:33:13Z</time>
      </trkpt>
      <trkpt lat="51.262432672083378" lon="4.819971593096852">
        <ele>6.25</ele>
        <time>2020-06-14T12:33:16Z</time>
      </trkpt>
      <trkpt lat="51.26245622523129" lon="4.820040408521891">
        <ele>6.26</ele>
        <time>2020-06-14T12:33:19Z</time>
      </trkpt>
      <trkpt lat="51.262502409517765" lon="4.82019966468215">
        <ele>6.29</ele>
        <time>2020-06-14T12:33:26Z</time>
      </trkpt>
      <trkpt lat="51.262534344568849" lon="4.820361100137234">
        <ele>6.28</ele>
        <time>2020-06-14T12:33:31Z</time>
      </trkpt>
      <trkpt lat="51.262600226327777" lon="4.820624124258757">
        <ele>6.33</ele>
        <time>2020-06-14T12:33:42Z</time>
      </trkpt>
      <trkpt lat="51.262662503868341" lon="4.820910701528192">
        <ele>6.36</ele>
        <time>2020-06-14T12:33:55Z</time>
      </trkpt>
      <trkpt lat="51.262657223269343" lon="4.821300795301795">
        <ele>6.39</ele>
        <time>2020-06-14T12:34:09Z</time>
      </trkpt>
      <trkpt lat="51.262603830546141" lon="4.82169046998024">
        <ele>6.44</ele>
        <time>2020-06-14T12:34:24Z</time>
      </trkpt>
      <trkpt lat="51.262586647644639" lon="4.821865232661367">
        <ele>8.970000000000001</ele>
        <time>2020-06-14T12:34:31Z</time>
      </trkpt>
      <trkpt lat="51.262578098103404" lon="4.821934383362532">
        <ele>8.99</ele>
        <time>2020-06-14T12:34:34Z</time>
      </trkpt>
      <trkpt lat="51.262576589360833" lon="4.821962462738156">
        <ele>8.99</ele>
        <time>2020-06-14T12:34:35Z</time>
      </trkpt>
      <trkpt lat="51.262571644037962" lon="4.821989201009274">
        <ele>8.99</ele>
        <time>2020-06-14T12:34:36Z</time>
      </trkpt>
      <trkpt lat="51.262566614896059" lon="4.822016526013613">
        <ele>8.99</ele>
        <time>2020-06-14T12:34:37Z</time>
      </trkpt>
      <trkpt lat="51.262563848868012" lon="4.822038570418954">
        <ele>8.92</ele>
        <time>2020-06-14T12:34:38Z</time>
      </trkpt>
      <trkpt lat="51.262560496106744" lon="4.822061201557517">
        <ele>8.91</ele>
        <time>2020-06-14T12:34:39Z</time>
      </trkpt>
      <trkpt lat="51.26255739480257" lon="4.822084670886397">
        <ele>8.91</ele>
        <time>2020-06-14T12:34:40Z</time>
      </trkpt>
      <trkpt lat="51.262556053698063" lon="4.82237015850842">
        <ele>9.039999999999999</ele>
        <time>2020-06-14T12:34:52Z</time>
      </trkpt>
      <trkpt lat="51.262570638209581" lon="4.822391783818603">
        <ele>9.039999999999999</ele>
        <time>2020-06-14T12:34:53Z</time>
      </trkpt>
      <trkpt lat="51.262581199407578" lon="4.822416678071022">
        <ele>9.050000000000001</ele>
        <time>2020-06-14T12:34:54Z</time>
      </trkpt>
      <trkpt lat="51.26267658546567" lon="4.822492031380534">
        <ele>9.07</ele>
        <time>2020-06-14T12:35:01Z</time>
      </trkpt>
      <trkpt lat="51.262686895206571" lon="4.822498066350818">
        <ele>9.07</ele>
        <time>2020-06-14T12:35:02Z</time>
      </trkpt>
      <trkpt lat="51.262815054506063" lon="4.822553051635623">
        <ele>9.109999999999999</ele>
        <time>2020-06-14T12:35:14Z</time>
      </trkpt>
      <trkpt lat="51.26297757960856" lon="4.822638379409909">
        <ele>9.15</ele>
        <time>2020-06-14T12:35:27Z</time>
      </trkpt>
      <trkpt lat="51.262981938198209" lon="4.822661932557821">
        <ele>9.15</ele>
        <time>2020-06-14T12:35:28Z</time>
      </trkpt>
      <trkpt lat="51.262990487739444" lon="4.822682719677687">
        <ele>9.16</ele>
        <time>2020-06-14T12:35:29Z</time>
      </trkpt>
      <trkpt lat="51.263032564893365" lon="4.822937110438943">
        <ele>9.18</ele>
        <time>2020-06-14T12:35:40Z</time>
      </trkpt>
      <trkpt lat="51.263038096949458" lon="4.823012966662645">
        <ele>9.19</ele>
        <time>2020-06-14T12:35:44Z</time>
      </trkpt>
      <trkpt lat="51.263038348406553" lon="4.823044901713729">
        <ele>9.199999999999999</ele>
        <time>2020-06-14T12:35:45Z</time>
      </trkpt>
      <trkpt lat="51.26304061152041" lon="4.823080440983176">
        <ele>9.199999999999999</ele>
        <time>2020-06-14T12:35:46Z</time>
      </trkpt>
      <trkpt lat="51.263041030615568" lon="4.823118411004543">
        <ele>9.199999999999999</ele>
        <time>2020-06-14T12:35:47Z</time>
      </trkpt>
      <trkpt lat="51.263042790815234" lon="4.82314950786531">
        <ele>9.199999999999999</ele>
        <time>2020-06-14T12:35:48Z</time>
      </trkpt>
      <trkpt lat="51.263045892119408" lon="4.823181610554457">
        <ele>9.210000000000001</ele>
        <time>2020-06-14T12:35:49Z</time>
      </trkpt>
      <trkpt lat="51.263049831613898" lon="4.823209187015891">
        <ele>9.210000000000001</ele>
        <time>2020-06-14T12:35:50Z</time>
      </trkpt>
      <trkpt lat="51.263050502166152" lon="4.82331907376647">
        <ele>9.210000000000001</ele>
        <time>2020-06-14T12:35:54Z</time>
      </trkpt>
      <trkpt lat="51.263066092506051" lon="4.823463661596179">
        <ele>9.220000000000001</ele>
        <time>2020-06-14T12:36:01Z</time>
      </trkpt>
      <trkpt lat="51.263067349791527" lon="4.823495512828231">
        <ele>9.220000000000001</ele>
        <time>2020-06-14T12:36:02Z</time>
      </trkpt>
      <trkpt lat="51.263025188818574" lon="4.823880577459931">
        <ele>9.23</ele>
        <time>2020-06-14T12:36:16Z</time>
      </trkpt>
      <trkpt lat="51.263013537973166" lon="4.823903879150748">
        <ele>9.23</ele>
        <time>2020-06-14T12:36:17Z</time>
      </trkpt>
      <trkpt lat="51.263004820793867" lon="4.823924917727709">
        <ele>9.23</ele>
        <time>2020-06-14T12:36:18Z</time>
      </trkpt>
      <trkpt lat="51.262993002310395" lon="4.823942184448242">
        <ele>9.23</ele>
        <time>2020-06-14T12:36:19Z</time>
      </trkpt>
      <trkpt lat="51.262913458049297" lon="4.824062129482627">
        <ele>9.220000000000001</ele>
        <time>2020-06-14T12:36:25Z</time>
      </trkpt>
      <trkpt lat="51.26290038228035" lon="4.824077887460589">
        <ele>9.220000000000001</ele>
        <time>2020-06-14T12:36:26Z</time>
      </trkpt>
      <trkpt lat="51.262759063392878" lon="4.824254075065255">
        <ele>9.210000000000001</ele>
        <time>2020-06-14T12:36:39Z</time>
      </trkpt>
      <trkpt lat="51.262746658176184" lon="4.824272012338042">
        <ele>9.210000000000001</ele>
        <time>2020-06-14T12:36:40Z</time>
      </trkpt>
      <trkpt lat="51.262637861073017" lon="4.824363794177771">
        <ele>9.19</ele>
        <time>2020-06-14T12:36:45Z</time>
      </trkpt>
      <trkpt lat="51.262360252439976" lon="4.824531264603138">
        <ele>9.15</ele>
        <time>2020-06-14T12:36:56Z</time>
      </trkpt>
      <trkpt lat="51.262063533067703" lon="4.824775429442525">
        <ele>6.6</ele>
        <time>2020-06-14T12:37:04Z</time>
      </trkpt>
      <trkpt lat="51.261694142594934" lon="4.825097462162376">
        <ele>6.53</ele>
        <time>2020-06-14T12:37:12Z</time>
      </trkpt>
      <trkpt lat="51.261641504243016" lon="4.825138198211789">
        <ele>0.95</ele>
        <time>2020-06-14T12:37:13Z</time>
      </trkpt>
      <trkpt lat="51.261590793728828" lon="4.825179688632488">
        <ele>8.470000000000001</ele>
        <time>2020-06-14T12:37:14Z</time>
      </trkpt>
      <trkpt lat="51.261535389348865" lon="4.825230315327644">
        <ele>8.470000000000001</ele>
        <time>2020-06-14T12:37:15Z</time>
      </trkpt>
      <trkpt lat="51.26147847622633" lon="4.825259232893586">
        <ele>8.449999999999999</ele>
        <time>2020-06-14T12:37:16Z</time>
      </trkpt>
      <trkpt lat="51.261377977207303" lon="4.825333580374718">
        <ele>5.81</ele>
        <time>2020-06-14T12:37:18Z</time>
      </trkpt>
      <trkpt lat="51.261329865083098" lon="4.825392002239823">
        <ele>5.82</ele>
        <time>2020-06-14T12:37:19Z</time>
      </trkpt>
      <trkpt lat="51.261290470138192" lon="4.825445730239153">
        <ele>5.87</ele>
        <time>2020-06-14T12:37:20Z</time>
      </trkpt>
      <trkpt lat="51.261248309165239" lon="4.82551789842546">
        <ele>5.8</ele>
        <time>2020-06-14T12:37:21Z</time>
      </trkpt>
      <trkpt lat="51.261178739368916" lon="4.825609177350998">
        <ele>5.89</ele>
        <time>2020-06-14T12:37:23Z</time>
      </trkpt>
      <trkpt lat="51.26075679436326" lon="4.825880834832788">
        <ele>5.75</ele>
        <time>2020-06-14T12:37:32Z</time>
      </trkpt>
      <trkpt lat="51.260514641180634" lon="4.825953505933285">
        <ele>5.64</ele>
        <time>2020-06-14T12:37:40Z</time>
      </trkpt>
      <trkpt lat="51.260425457730889" lon="4.825990051031113">
        <ele>5.58</ele>
        <time>2020-06-14T12:37:44Z</time>
      </trkpt>
      <trkpt lat="51.260395618155599" lon="4.826246285811067">
        <ele>5.43</ele>
        <time>2020-06-14T12:37:56Z</time>
      </trkpt>
      <trkpt lat="51.260408945381641" lon="4.826553985476494">
        <ele>5.33</ele>
        <time>2020-06-14T12:38:09Z</time>
      </trkpt>
      <trkpt lat="51.260538529604673" lon="4.827837003394961">
        <ele>4.89</ele>
        <time>2020-06-14T12:39:02Z</time>
      </trkpt>
      <trkpt lat="51.260501313954592" lon="4.828250063583255">
        <ele>4.82</ele>
        <time>2020-06-14T12:39:15Z</time>
      </trkpt>
      <trkpt lat="51.260490836575627" lon="4.828388700261712">
        <ele>4.79</ele>
        <time>2020-06-14T12:39:20Z</time>
      </trkpt>
      <trkpt lat="51.260489663109183" lon="4.828705536201596">
        <ele>4.71</ele>
        <time>2020-06-14T12:39:33Z</time>
      </trkpt>
      <trkpt lat="51.26047533005476" lon="4.829073920845985">
        <ele>4.65</ele>
        <time>2020-06-14T12:39:47Z</time>
      </trkpt>
      <trkpt lat="51.260458398610353" lon="4.829453956335783">
        <ele>4.6</ele>
        <time>2020-06-14T12:39:59Z</time>
      </trkpt>
      <trkpt lat="51.26045286655426" lon="4.829513467848301">
        <ele>7.27</ele>
        <time>2020-06-14T12:40:01Z</time>
      </trkpt>
      <trkpt lat="51.260450016707182" lon="4.829624528065324">
        <ele>7.23</ele>
        <time>2020-06-14T12:40:12Z</time>
      </trkpt>
      <trkpt lat="51.260435013100505" lon="4.829848827794194">
        <ele>7.26</ele>
        <time>2020-06-14T12:40:26Z</time>
      </trkpt>
      <trkpt lat="51.260384386405349" lon="4.830164071172476">
        <ele>7.29</ele>
        <time>2020-06-14T12:40:40Z</time>
      </trkpt>
      <trkpt lat="51.260287826880813" lon="4.830315196886659">
        <ele>7.33</ele>
        <time>2020-06-14T12:40:49Z</time>
      </trkpt>
      <trkpt lat="51.260251952335238" lon="4.83036020770669">
        <ele>7.34</ele>
        <time>2020-06-14T12:40:52Z</time>
      </trkpt>
      <trkpt lat="51.260096803307533" lon="4.830662459135056">
        <ele>7.37</ele>
        <time>2020-06-14T12:41:07Z</time>
      </trkpt>
      <trkpt lat="51.259934864938259" lon="4.83093730174005">
        <ele>7.42</ele>
        <time>2020-06-14T12:41:22Z</time>
      </trkpt>
      <trkpt lat="51.259866217151284" lon="4.831067388877273">
        <ele>7.44</ele>
        <time>2020-06-14T12:41:28Z</time>
      </trkpt>
      <trkpt lat="51.25984744168818" lon="4.831104604527354">
        <ele>7.42</ele>
        <time>2020-06-14T12:41:29Z</time>
      </trkpt>
      <trkpt lat="51.259827995672822" lon="4.831137713044882">
        <ele>7.42</ele>
        <time>2020-06-14T12:41:30Z</time>
      </trkpt>
      <trkpt lat="51.259587351232767" lon="4.831601232290268">
        <ele>7.44</ele>
        <time>2020-06-14T12:41:43Z</time>
      </trkpt>
      <trkpt lat="51.259443014860153" lon="4.831854198127985">
        <ele>7.49</ele>
        <time>2020-06-14T12:41:54Z</time>
      </trkpt>
      <trkpt lat="51.259437231346965" lon="4.831877248361707">
        <ele>7.49</ele>
        <time>2020-06-14T12:41:55Z</time>
      </trkpt>
      <trkpt lat="51.259429519996047" lon="4.831897700205445">
        <ele>7.48</ele>
        <time>2020-06-14T12:41:56Z</time>
      </trkpt>
      <trkpt lat="51.259419042617083" lon="4.831910356879234">
        <ele>7.48</ele>
        <time>2020-06-14T12:41:57Z</time>
      </trkpt>
      <trkpt lat="51.259408900514245" lon="4.831923516467214">
        <ele>7.5</ele>
        <time>2020-06-14T12:41:58Z</time>
      </trkpt>
      <trkpt lat="51.259262133389711" lon="4.832188300788403">
        <ele>7.52</ele>
        <time>2020-06-14T12:42:12Z</time>
      </trkpt>
      <trkpt lat="51.259214859455824" lon="4.832256445661187">
        <ele>7.54</ele>
        <time>2020-06-14T12:42:17Z</time>
      </trkpt>
      <trkpt lat="51.259206812828779" lon="4.832270359620452">
        <ele>7.53</ele>
        <time>2020-06-14T12:42:18Z</time>
      </trkpt>
      <trkpt lat="51.259148474782705" lon="4.832404470071197">
        <ele>7.53</ele>
        <time>2020-06-14T12:42:25Z</time>
      </trkpt>
      <trkpt lat="51.259136740118265" lon="4.832411343231797">
        <ele>7.53</ele>
        <time>2020-06-14T12:42:26Z</time>
      </trkpt>
      <trkpt lat="51.25912869349122" lon="4.832423832267523">
        <ele>7.53</ele>
        <time>2020-06-14T12:42:27Z</time>
      </trkpt>
      <trkpt lat="51.259090472012758" lon="4.832511842250824">
        <ele>7.53</ele>
        <time>2020-06-14T12:42:32Z</time>
      </trkpt>
      <trkpt lat="51.259080246090889" lon="4.83253656886518">
        <ele>7.53</ele>
        <time>2020-06-14T12:42:33Z</time>
      </trkpt>
      <trkpt lat="51.259069517254829" lon="4.83256003819406">
        <ele>7.53</ele>
        <time>2020-06-14T12:42:34Z</time>
      </trkpt>
      <trkpt lat="51.259059039875865" lon="4.83258593827486">
        <ele>7.53</ele>
        <time>2020-06-14T12:42:35Z</time>
      </trkpt>
      <trkpt lat="51.259046299383044" lon="4.832608569413424">
        <ele>7.53</ele>
        <time>2020-06-14T12:42:36Z</time>
      </trkpt>
      <trkpt lat="51.259034983813763" lon="4.832627261057496">
        <ele>7.53</ele>
        <time>2020-06-14T12:42:37Z</time>
      </trkpt>
      <trkpt lat="51.259026769548655" lon="4.832647209987044">
        <ele>7.54</ele>
        <time>2020-06-14T12:42:38Z</time>
      </trkpt>
      <trkpt lat="51.259014448150992" lon="4.832665650174022">
        <ele>7.53</ele>
        <time>2020-06-14T12:42:39Z</time>
      </trkpt>
      <trkpt lat="51.259000450372696" lon="4.832682749256492">
        <ele>7.53</ele>
        <time>2020-06-14T12:42:40Z</time>
      </trkpt>
      <trkpt lat="51.258987123146653" lon="4.832700015977025">
        <ele>7.52</ele>
        <time>2020-06-14T12:42:41Z</time>
      </trkpt>
      <trkpt lat="51.258795009925961" lon="4.833027077838779">
        <ele>7.57</ele>
        <time>2020-06-14T12:42:57Z</time>
      </trkpt>
      <trkpt lat="51.258769948035479" lon="4.833119362592697">
        <ele>4.6</ele>
        <time>2020-06-14T12:43:01Z</time>
      </trkpt>
      <trkpt lat="51.258655702695251" lon="4.833405185490847">
        <ele>7.24</ele>
        <time>2020-06-14T12:43:15Z</time>
      </trkpt>
      <trkpt lat="51.258586049079895" lon="4.833537116646767">
        <ele>9.529999999999999</ele>
        <time>2020-06-14T12:43:22Z</time>
      </trkpt>
      <trkpt lat="51.258574984967709" lon="4.833557400852442">
        <ele>6.36</ele>
        <time>2020-06-14T12:43:23Z</time>
      </trkpt>
      <trkpt lat="51.258565848693252" lon="4.833574583753943">
        <ele>6.34</ele>
        <time>2020-06-14T12:43:24Z</time>
      </trkpt>
      <trkpt lat="51.258464260026813" lon="4.83381187543273">
        <ele>6.42</ele>
        <time>2020-06-14T12:43:36Z</time>
      </trkpt>
      <trkpt lat="51.258457219228148" lon="4.833829645067453">
        <ele>6.43</ele>
        <time>2020-06-14T12:43:37Z</time>
      </trkpt>
      <trkpt lat="51.258369963616133" lon="4.834019998088479">
        <ele>6.51</ele>
        <time>2020-06-14T12:43:46Z</time>
      </trkpt>
      <trkpt lat="51.258364347741008" lon="4.834039444103837">
        <ele>6.51</ele>
        <time>2020-06-14T12:43:47Z</time>
      </trkpt>
      <trkpt lat="51.258357977494597" lon="4.8340586386621">
        <ele>6.51</ele>
        <time>2020-06-14T12:43:48Z</time>
      </trkpt>
      <trkpt lat="51.258351942524314" lon="4.834079090505838">
        <ele>6.52</ele>
        <time>2020-06-14T12:43:49Z</time>
      </trkpt>
      <trkpt lat="51.258345823734999" lon="4.834120245650411">
        <ele>6.54</ele>
        <time>2020-06-14T12:43:51Z</time>
      </trkpt>
      <trkpt lat="51.258191596716642" lon="4.834452336654067">
        <ele>6.6</ele>
        <time>2020-06-14T12:44:05Z</time>
      </trkpt>
      <trkpt lat="51.258099814876914" lon="4.834682838991284">
        <ele>6.62</ele>
        <time>2020-06-14T12:44:17Z</time>
      </trkpt>
      <trkpt lat="51.258011218160391" lon="4.834861624985933">
        <ele>5.68</ele>
        <time>2020-06-14T12:44:26Z</time>
      </trkpt>
      <trkpt lat="51.258002333343029" lon="4.834884088486433">
        <ele>5.67</ele>
        <time>2020-06-14T12:44:27Z</time>
      </trkpt>
      <trkpt lat="51.25796327367425" lon="4.834990790113807">
        <ele>5.7</ele>
        <time>2020-06-14T12:44:31Z</time>
      </trkpt>
      <trkpt lat="51.257951287552714" lon="4.835012750700116">
        <ele>5.7</ele>
        <time>2020-06-14T12:44:32Z</time>
      </trkpt>
      <trkpt lat="51.257854979485273" lon="4.835390355437994">
        <ele>5.75</ele>
        <time>2020-06-14T12:44:47Z</time>
      </trkpt>
      <trkpt lat="51.257817260921001" lon="4.835692774504423">
        <ele>5.78</ele>
        <time>2020-06-14T12:44:54Z</time>
      </trkpt>
      <trkpt lat="51.257787337526679" lon="4.835944063961506">
        <ele>5.8</ele>
        <time>2020-06-14T12:44:57Z</time>
      </trkpt>
      <trkpt lat="51.257776021957397" lon="4.836030313745141">
        <ele>5.8</ele>
        <time>2020-06-14T12:44:58Z</time>
      </trkpt>
      <trkpt lat="51.257763365283608" lon="4.836109271273017">
        <ele>5.81</ele>
        <time>2020-06-14T12:44:59Z</time>
      </trkpt>
      <trkpt lat="51.257753558456898" lon="4.83619686216116">
        <ele>5.81</ele>
        <time>2020-06-14T12:45:00Z</time>
      </trkpt>
      <trkpt lat="51.257745260372758" lon="4.836281267926097">
        <ele>5.82</ele>
        <time>2020-06-14T12:45:01Z</time>
      </trkpt>
      <trkpt lat="51.257739728316665" lon="4.836366176605225">
        <ele>5.83</ele>
        <time>2020-06-14T12:45:02Z</time>
      </trkpt>
      <trkpt lat="51.257741069421172" lon="4.836454605683684">
        <ele>5.84</ele>
        <time>2020-06-14T12:45:03Z</time>
      </trkpt>
      <trkpt lat="51.257748864591122" lon="4.836541609838605">
        <ele>5.85</ele>
        <time>2020-06-14T12:45:04Z</time>
      </trkpt>
      <trkpt lat="51.258011218160391" lon="4.837501253932715">
        <ele>5.93</ele>
        <time>2020-06-14T12:45:15Z</time>
      </trkpt>
      <trkpt lat="51.258070059120655" lon="4.837751453742385">
        <ele>5.95</ele>
        <time>2020-06-14T12:45:18Z</time>
      </trkpt>
      <trkpt lat="51.258082715794444" lon="4.837832758203149">
        <ele>5.97</ele>
        <time>2020-06-14T12:45:19Z</time>
      </trkpt>
      <trkpt lat="51.258090762421489" lon="4.837918169796467">
        <ele>5.98</ele>
        <time>2020-06-14T12:45:20Z</time>
      </trkpt>
      <trkpt lat="51.258096713572741" lon="4.837994445115328">
        <ele>5.98</ele>
        <time>2020-06-14T12:45:21Z</time>
      </trkpt>
      <trkpt lat="51.25810107216239" lon="4.838085640221834">
        <ele>6</ele>
        <time>2020-06-14T12:45:22Z</time>
      </trkpt>
      <trkpt lat="51.258182963356376" lon="4.83863951638341">
        <ele>6.03</ele>
        <time>2020-06-14T12:45:28Z</time>
      </trkpt>
      <trkpt lat="51.258295616135001" lon="4.839183334261179">
        <ele>6.08</ele>
        <time>2020-06-14T12:45:34Z</time>
      </trkpt>
      <trkpt lat="51.258284132927656" lon="4.840194694697857">
        <ele>6.12</ele>
        <time>2020-06-14T12:45:44Z</time>
      </trkpt>
      <trkpt lat="51.258268374949694" lon="4.840368619188666">
        <ele>6.11</ele>
        <time>2020-06-14T12:45:46Z</time>
      </trkpt>
      <trkpt lat="51.258229399099946" lon="4.840710684657097">
        <ele>6.13</ele>
        <time>2020-06-14T12:45:50Z</time>
      </trkpt>
      <trkpt lat="51.258218754082918" lon="4.840792492032051">
        <ele>6.15</ele>
        <time>2020-06-14T12:45:51Z</time>
      </trkpt>
      <trkpt lat="51.258197380229831" lon="4.841038081794977">
        <ele>6.11</ele>
        <time>2020-06-14T12:45:54Z</time>
      </trkpt>
      <trkpt lat="51.258184891194105" lon="4.841134222224355">
        <ele>6.1</ele>
        <time>2020-06-14T12:45:55Z</time>
      </trkpt>
      <trkpt lat="51.258146334439516" lon="4.841503025963903">
        <ele>6.1</ele>
        <time>2020-06-14T12:45:59Z</time>
      </trkpt>
      <trkpt lat="51.257970398291945" lon="4.842366697266698">
        <ele>6.13</ele>
        <time>2020-06-14T12:46:12Z</time>
      </trkpt>
      <trkpt lat="51.257854225113988" lon="4.842938175424933">
        <ele>6.12</ele>
        <time>2020-06-14T12:46:22Z</time>
      </trkpt>
      <trkpt lat="51.257813237607479" lon="4.843202037736774">
        <ele>6.1</ele>
        <time>2020-06-14T12:46:33Z</time>
      </trkpt>
      <trkpt lat="51.257771998643875" lon="4.843613002449274">
        <ele>6.13</ele>
        <time>2020-06-14T12:46:47Z</time>
      </trkpt>
      <trkpt lat="51.257734363898635" lon="4.843944674357772">
        <ele>6.1</ele>
        <time>2020-06-14T12:46:59Z</time>
      </trkpt>
      <trkpt lat="51.257675439119339" lon="4.84426804818213">
        <ele>6.14</ele>
        <time>2020-06-14T12:47:11Z</time>
      </trkpt>
      <trkpt lat="51.257619531825185" lon="4.844626793637872">
        <ele>6.22</ele>
        <time>2020-06-14T12:47:26Z</time>
      </trkpt>
      <trkpt lat="51.257606372237206" lon="4.844734752550721">
        <ele>6.23</ele>
        <time>2020-06-14T12:47:30Z</time>
      </trkpt>
      <trkpt lat="51.257484499365091" lon="4.845116632059217">
        <ele>6.27</ele>
        <time>2020-06-14T12:47:48Z</time>
      </trkpt>
      <trkpt lat="51.257473770529032" lon="4.845146052539349">
        <ele>6.29</ele>
        <time>2020-06-14T12:47:49Z</time>
      </trkpt>
      <trkpt lat="51.257463963702321" lon="4.845166672021151">
        <ele>6.28</ele>
        <time>2020-06-14T12:47:50Z</time>
      </trkpt>
      <trkpt lat="51.257453486323357" lon="4.845202462747693">
        <ele>6.29</ele>
        <time>2020-06-14T12:47:51Z</time>
      </trkpt>
      <trkpt lat="51.25744292512536" lon="4.845238504931331">
        <ele>6.28</ele>
        <time>2020-06-14T12:47:52Z</time>
      </trkpt>
      <trkpt lat="51.257415348663926" lon="4.845365826040506">
        <ele>6.29</ele>
        <time>2020-06-14T12:47:56Z</time>
      </trkpt>
      <trkpt lat="51.257413504645228" lon="4.845402371138334">
        <ele>6.29</ele>
        <time>2020-06-14T12:47:57Z</time>
      </trkpt>
      <trkpt lat="51.257414594292641" lon="4.845433216542006">
        <ele>6.29</ele>
        <time>2020-06-14T12:47:58Z</time>
      </trkpt>
      <trkpt lat="51.257418617606163" lon="4.845458194613457">
        <ele>6.3</ele>
        <time>2020-06-14T12:47:59Z</time>
      </trkpt>
      <trkpt lat="51.257422305643559" lon="4.845488369464874">
        <ele>6.3</ele>
        <time>2020-06-14T12:48:00Z</time>
      </trkpt>
      <trkpt lat="51.257446445524693" lon="4.845663886517286">
        <ele>6.29</ele>
        <time>2020-06-14T12:48:06Z</time>
      </trkpt>
      <trkpt lat="51.257465472444892" lon="4.845766397193074">
        <ele>6.3</ele>
        <time>2020-06-14T12:48:10Z</time>
      </trkpt>
      <trkpt lat="51.25747125595808" lon="4.845785172656179">
        <ele>6.3</ele>
        <time>2020-06-14T12:48:11Z</time>
      </trkpt>
      <trkpt lat="51.257492043077946" lon="4.845805456861854">
        <ele>6.3</ele>
        <time>2020-06-14T12:48:13Z</time>
      </trkpt>
      <trkpt lat="51.257510147988796" lon="4.845813335850835">
        <ele>6.33</ele>
        <time>2020-06-14T12:48:15Z</time>
      </trkpt>
      <trkpt lat="51.257527163252234" lon="4.845829680562019">
        <ele>6.31</ele>
        <time>2020-06-14T12:48:16Z</time>
      </trkpt>
      <trkpt lat="51.257648533210158" lon="4.846021793782711">
        <ele>6.32</ele>
        <time>2020-06-14T12:48:29Z</time>
      </trkpt>
      <trkpt lat="51.257716929540038" lon="4.846227820962668">
        <ele>6.32</ele>
        <time>2020-06-14T12:48:40Z</time>
      </trkpt>
      <trkpt lat="51.257925890386105" lon="4.84686367213726">
        <ele>9.779999999999999</ele>
        <time>2020-06-14T12:49:04Z</time>
      </trkpt>
      <trkpt lat="51.257934272289276" lon="4.846885045990348">
        <ele>9.76</ele>
        <time>2020-06-14T12:49:05Z</time>
      </trkpt>
      <trkpt lat="51.257950030267239" lon="4.846918908879161">
        <ele>7.05</ele>
        <time>2020-06-14T12:49:07Z</time>
      </trkpt>
      <trkpt lat="51.257959417998791" lon="4.846940198913217">
        <ele>7.03</ele>
        <time>2020-06-14T12:49:08Z</time>
      </trkpt>
      <trkpt lat="51.258066957816482" lon="4.847240941599011">
        <ele>7</ele>
        <time>2020-06-14T12:49:15Z</time>
      </trkpt>
      <trkpt lat="51.258092103525996" lon="4.847330711781979">
        <ele>7</ele>
        <time>2020-06-14T12:49:16Z</time>
      </trkpt>
      <trkpt lat="51.258118757978082" lon="4.847432132810354">
        <ele>6.1</ele>
        <time>2020-06-14T12:49:17Z</time>
      </trkpt>
      <trkpt lat="51.258146166801453" lon="4.847524249926209">
        <ele>6.12</ele>
        <time>2020-06-14T12:49:18Z</time>
      </trkpt>
      <trkpt lat="51.258170725777745" lon="4.847619803622365">
        <ele>6.14</ele>
        <time>2020-06-14T12:49:19Z</time>
      </trkpt>
      <trkpt lat="51.258192183449864" lon="4.847707059234381">
        <ele>6.1</ele>
        <time>2020-06-14T12:49:20Z</time>
      </trkpt>
      <trkpt lat="51.258216155692935" lon="4.847788698971272">
        <ele>6.07</ele>
        <time>2020-06-14T12:49:21Z</time>
      </trkpt>
      <trkpt lat="51.258312128484249" lon="4.848122047260404">
        <ele>6.12</ele>
        <time>2020-06-14T12:49:25Z</time>
      </trkpt>
      <trkpt lat="51.258352193981409" lon="4.848184576258063">
        <ele>6.14</ele>
        <time>2020-06-14T12:49:26Z</time>
      </trkpt>
      <trkpt lat="51.258397707715631" lon="4.848237968981266">
        <ele>6.14</ele>
        <time>2020-06-14T12:49:27Z</time>
      </trkpt>
      <trkpt lat="51.258446490392089" lon="4.848283231258392">
        <ele>6.14</ele>
        <time>2020-06-14T12:49:28Z</time>
      </trkpt>
      <trkpt lat="51.258495105430484" lon="4.848322039470077">
        <ele>6.16</ele>
        <time>2020-06-14T12:49:29Z</time>
      </trkpt>
      <trkpt lat="51.258544223383069" lon="4.848351459950209">
        <ele>6.15</ele>
        <time>2020-06-14T12:49:30Z</time>
      </trkpt>
      <trkpt lat="51.258590323850513" lon="4.848395129665732">
        <ele>6.14</ele>
        <time>2020-06-14T12:49:31Z</time>
      </trkpt>
      <trkpt lat="51.258634747937322" lon="4.8484330996871">
        <ele>6.14</ele>
        <time>2020-06-14T12:49:32Z</time>
      </trkpt>
      <trkpt lat="51.258675148710608" lon="4.848465789109469">
        <ele>6.14</ele>
        <time>2020-06-14T12:49:33Z</time>
      </trkpt>
      <trkpt lat="51.258717309683561" lon="4.848499149084091">
        <ele>6.14</ele>
        <time>2020-06-14T12:49:34Z</time>
      </trkpt>
      <trkpt lat="51.258762152865529" lon="4.848523372784257">
        <ele>6.15</ele>
        <time>2020-06-14T12:49:35Z</time>
      </trkpt>
      <trkpt lat="51.25880716368556" lon="4.84854793176055">
        <ele>6.15</ele>
        <time>2020-06-14T12:49:36Z</time>
      </trkpt>
      <trkpt lat="51.258867513388395" lon="4.848566120490432">
        <ele>6.14</ele>
        <time>2020-06-14T12:49:37Z</time>
      </trkpt>
      <trkpt lat="51.259043198078871" lon="4.848666787147522">
        <ele>6.15</ele>
        <time>2020-06-14T12:49:41Z</time>
      </trkpt>
      <trkpt lat="51.259101452305913" lon="4.848692016676068">
        <ele>6.15</ele>
        <time>2020-06-14T12:49:42Z</time>
      </trkpt>
      <trkpt lat="51.25916188582778" lon="4.848708109930158">
        <ele>6.15</ele>
        <time>2020-06-14T12:49:43Z</time>
      </trkpt>
      <trkpt lat="51.25937981531024" lon="4.84882746823132">
        <ele>6.15</ele>
        <time>2020-06-14T12:49:47Z</time>
      </trkpt>
      <trkpt lat="51.259427843615413" lon="4.848850267007947">
        <ele>6.15</ele>
        <time>2020-06-14T12:49:48Z</time>
      </trkpt>
      <trkpt lat="51.259825984016061" lon="4.849059395492077">
        <ele>6.18</ele>
        <time>2020-06-14T12:49:55Z</time>
      </trkpt>
      <trkpt lat="51.259869234636426" lon="4.849097700789571">
        <ele>6.19</ele>
        <time>2020-06-14T12:49:56Z</time>
      </trkpt>
      <trkpt lat="51.259950706735253" lon="4.849167102947831">
        <ele>6.2</ele>
        <time>2020-06-14T12:49:58Z</time>
      </trkpt>
      <trkpt lat="51.260031256824732" lon="4.84925695694983">
        <ele>6.21</ele>
        <time>2020-06-14T12:50:00Z</time>
      </trkpt>
      <trkpt lat="51.260070987045765" lon="4.849295429885387">
        <ele>6.21</ele>
        <time>2020-06-14T12:50:01Z</time>
      </trkpt>
      <trkpt lat="51.260145250707865" lon="4.849377069622278">
        <ele>6.22</ele>
        <time>2020-06-14T12:50:03Z</time>
      </trkpt>
      <trkpt lat="51.260180789977312" lon="4.849414872005582">
        <ele>6.23</ele>
        <time>2020-06-14T12:50:04Z</time>
      </trkpt>
      <trkpt lat="51.260211551561952" lon="4.849468432366848">
        <ele>6.24</ele>
        <time>2020-06-14T12:50:05Z</time>
      </trkpt>
      <trkpt lat="51.260433085262775" lon="4.850126998499036">
        <ele>6.3</ele>
        <time>2020-06-14T12:50:17Z</time>
      </trkpt>
      <trkpt lat="51.260554371401668" lon="4.85034367069602">
        <ele>6.32</ele>
        <time>2020-06-14T12:50:19Z</time>
      </trkpt>
      <trkpt lat="51.260729553177953" lon="4.850618010386825">
        <ele>6.32</ele>
        <time>2020-06-14T12:50:20Z</time>
      </trkpt>
      <trkpt lat="51.261313520371914" lon="4.852631511166692">
        <ele>6.45</ele>
        <time>2020-06-14T12:50:58Z</time>
      </trkpt>
      <trkpt lat="51.26132651232183" lon="4.852668391540647">
        <ele>6.44</ele>
        <time>2020-06-14T12:51:00Z</time>
      </trkpt>
      <trkpt lat="51.26133481040597" lon="4.852695045992732">
        <ele>6.43</ele>
        <time>2020-06-14T12:51:01Z</time>
      </trkpt>
      <trkpt lat="51.261343192309141" lon="4.852716755121946">
        <ele>6.46</ele>
        <time>2020-06-14T12:51:02Z</time>
      </trkpt>
      <trkpt lat="51.261355178430676" lon="4.852738128975034">
        <ele>6.46</ele>
        <time>2020-06-14T12:51:03Z</time>
      </trkpt>
      <trkpt lat="51.261361381039023" lon="4.852764867246151">
        <ele>6.49</ele>
        <time>2020-06-14T12:51:04Z</time>
      </trkpt>
      <trkpt lat="51.261364398524165" lon="4.852793700993061">
        <ele>6.47</ele>
        <time>2020-06-14T12:51:05Z</time>
      </trkpt>
      <trkpt lat="51.261371606960893" lon="4.852817924693227">
        <ele>6.5</ele>
        <time>2020-06-14T12:51:06Z</time>
      </trkpt>
      <trkpt lat="51.261379653587937" lon="4.852848686277866">
        <ele>6.51</ele>
        <time>2020-06-14T12:51:07Z</time>
      </trkpt>
      <trkpt lat="51.261386862024665" lon="4.852876011282206">
        <ele>6.5</ele>
        <time>2020-06-14T12:51:08Z</time>
      </trkpt>
      <trkpt lat="51.261394657194614" lon="4.852897133678198">
        <ele>6.48</ele>
        <time>2020-06-14T12:51:09Z</time>
      </trkpt>
      <trkpt lat="51.261386275291443" lon="4.853047337383032">
        <ele>6.51</ele>
        <time>2020-06-14T12:51:24Z</time>
      </trkpt>
      <trkpt lat="51.261366996914148" lon="4.853149764239788">
        <ele>6.6</ele>
        <time>2020-06-14T12:51:48Z</time>
      </trkpt>
      <trkpt lat="51.261339588090777" lon="4.853174071758986">
        <ele>6.6</ele>
        <time>2020-06-14T12:51:50Z</time>
      </trkpt>
      <trkpt lat="51.261324333027005" lon="4.853193098679185">
        <ele>6.6</ele>
        <time>2020-06-14T12:51:51Z</time>
      </trkpt>
      <trkpt lat="51.261310502886772" lon="4.853206761181355">
        <ele>6.6</ele>
        <time>2020-06-14T12:51:52Z</time>
      </trkpt>
      <trkpt lat="51.261298432946205" lon="4.853219669312239">
        <ele>6.6</ele>
        <time>2020-06-14T12:51:53Z</time>
      </trkpt>
      <trkpt lat="51.26128594391048" lon="4.853235092014074">
        <ele>6.6</ele>
        <time>2020-06-14T12:51:54Z</time>
      </trkpt>
      <trkpt lat="51.261275634169579" lon="4.853249341249466">
        <ele>6.62</ele>
        <time>2020-06-14T12:51:55Z</time>
      </trkpt>
      <trkpt lat="51.26116675324738" lon="4.853557124733925">
        <ele>6.66</ele>
        <time>2020-06-14T12:52:12Z</time>
      </trkpt>
      <trkpt lat="51.261236071586609" lon="4.853926179930568">
        <ele>6.68</ele>
        <time>2020-06-14T12:52:29Z</time>
      </trkpt>
      <trkpt lat="51.261345790699124" lon="4.854206470772624">
        <ele>6.74</ele>
        <time>2020-06-14T12:52:43Z</time>
      </trkpt>
      <trkpt lat="51.261448971927166" lon="4.854529844596982">
        <ele>6.77</ele>
        <time>2020-06-14T12:52:59Z</time>
      </trkpt>
      <trkpt lat="51.261601774021983" lon="4.85494265332818">
        <ele>6.9</ele>
        <time>2020-06-14T12:53:19Z</time>
      </trkpt>
      <trkpt lat="51.261746361851692" lon="4.855376752093434">
        <ele>6.91</ele>
        <time>2020-06-14T12:53:40Z</time>
      </trkpt>
      <trkpt lat="51.261866306886077" lon="4.855818813666701">
        <ele>6.99</ele>
        <time>2020-06-14T12:53:59Z</time>
      </trkpt>
      <trkpt lat="51.261953646317124" lon="4.856120562180877">
        <ele>7.01</ele>
        <time>2020-06-14T12:54:15Z</time>
      </trkpt>
      <trkpt lat="51.26204869709909" lon="4.856421891599894">
        <ele>7.05</ele>
        <time>2020-06-14T12:54:29Z</time>
      </trkpt>
      <trkpt lat="51.262125978246331" lon="4.856751216575503">
        <ele>7.12</ele>
        <time>2020-06-14T12:54:44Z</time>
      </trkpt>
      <trkpt lat="51.262221615761518" lon="4.857160756364465">
        <ele>7.2</ele>
        <time>2020-06-14T12:55:02Z</time>
      </trkpt>
      <trkpt lat="51.262289173901081" lon="4.857480023056269">
        <ele>7.24</ele>
        <time>2020-06-14T12:55:17Z</time>
      </trkpt>
      <trkpt lat="51.262298980727792" lon="4.857553951442242">
        <ele>7.25</ele>
        <time>2020-06-14T12:55:20Z</time>
      </trkpt>
      <trkpt lat="51.262301662936807" lon="4.85757733695209">
        <ele>7.25</ele>
        <time>2020-06-14T12:55:21Z</time>
      </trkpt>
      <trkpt lat="51.262314151972532" lon="4.857657970860601">
        <ele>7.28</ele>
        <time>2020-06-14T12:55:25Z</time>
      </trkpt>
      <trkpt lat="51.262312224134803" lon="4.85768236219883">
        <ele>7.27</ele>
        <time>2020-06-14T12:55:26Z</time>
      </trkpt>
      <trkpt lat="51.262312810868025" lon="4.85776643268764">
        <ele>7.29</ele>
        <time>2020-06-14T12:55:30Z</time>
      </trkpt>
      <trkpt lat="51.262311469763517" lon="4.857791662216187">
        <ele>7.3</ele>
        <time>2020-06-14T12:55:31Z</time>
      </trkpt>
      <trkpt lat="51.262204265221953" lon="4.858103385195136">
        <ele>7.32</ele>
        <time>2020-06-14T12:55:44Z</time>
      </trkpt>
      <trkpt lat="51.262052049860358" lon="4.858377976343036">
        <ele>7.34</ele>
        <time>2020-06-14T12:55:58Z</time>
      </trkpt>
      <trkpt lat="51.261917185038328" lon="4.858689028769732">
        <ele>7.38</ele>
        <time>2020-06-14T12:56:13Z</time>
      </trkpt>
      <trkpt lat="51.26171157695353" lon="4.859100077301264">
        <ele>7.47</ele>
        <time>2020-06-14T12:56:33Z</time>
      </trkpt>
      <trkpt lat="51.261683329939842" lon="4.85915313474834">
        <ele>9.77</ele>
        <time>2020-06-14T12:56:36Z</time>
      </trkpt>
      <trkpt lat="51.261492725461721" lon="4.859387995675206">
        <ele>9.84</ele>
        <time>2020-06-14T12:56:52Z</time>
      </trkpt>
      <trkpt lat="51.261450899764895" lon="4.859412806108594">
        <ele>9.85</ele>
        <time>2020-06-14T12:57:03Z</time>
      </trkpt>
      <trkpt lat="51.26128057949245" lon="4.859513472765684">
        <ele>9.880000000000001</ele>
        <time>2020-06-14T12:57:18Z</time>
      </trkpt>
      <trkpt lat="51.261178739368916" lon="4.859549095854163">
        <ele>9.890000000000001</ele>
        <time>2020-06-14T12:57:25Z</time>
      </trkpt>
      <trkpt lat="51.261169267818332" lon="4.859561249613762">
        <ele>9.890000000000001</ele>
        <time>2020-06-14T12:57:26Z</time>
      </trkpt>
      <trkpt lat="51.261156862601638" lon="4.859571056440473">
        <ele>9.890000000000001</ele>
        <time>2020-06-14T12:57:27Z</time>
      </trkpt>
      <trkpt lat="51.260951338335872" lon="4.859636016190052">
        <ele>9.92</ele>
        <time>2020-06-14T12:57:41Z</time>
      </trkpt>
      <trkpt lat="51.260754028335214" lon="4.859738862141967">
        <ele>9.949999999999999</ele>
        <time>2020-06-14T12:57:55Z</time>
      </trkpt>
      <trkpt lat="51.260651852935553" lon="4.859787225723267">
        <ele>9.94</ele>
        <time>2020-06-14T12:58:02Z</time>
      </trkpt>
      <trkpt lat="51.260637184605002" lon="4.859794350340962">
        <ele>9.94</ele>
        <time>2020-06-14T12:58:03Z</time>
      </trkpt>
      <trkpt lat="51.260625282302499" lon="4.859805833548307">
        <ele>9.94</ele>
        <time>2020-06-14T12:58:04Z</time>
      </trkpt>
      <trkpt lat="51.260611452162266" lon="4.859813209623098">
        <ele>9.949999999999999</ele>
        <time>2020-06-14T12:58:05Z</time>
      </trkpt>
      <trkpt lat="51.26059653237462" lon="4.859822345897555">
        <ele>9.949999999999999</ele>
        <time>2020-06-14T12:58:06Z</time>
      </trkpt>
      <trkpt lat="51.260582115501165" lon="4.859832571819425">
        <ele>9.949999999999999</ele>
        <time>2020-06-14T12:58:07Z</time>
      </trkpt>
      <trkpt lat="51.260439287871122" lon="4.859909936785698">
        <ele>9.98</ele>
        <time>2020-06-14T12:58:19Z</time>
      </trkpt>
      <trkpt lat="51.260374076664448" lon="4.859950169920921">
        <ele>9.970000000000001</ele>
        <time>2020-06-14T12:58:24Z</time>
      </trkpt>
      <trkpt lat="51.260361755266786" lon="4.85996182076633">
        <ele>9.98</ele>
        <time>2020-06-14T12:58:25Z</time>
      </trkpt>
      <trkpt lat="51.260298639535904" lon="4.86000431701541">
        <ele>10</ele>
        <time>2020-06-14T12:58:30Z</time>
      </trkpt>
      <trkpt lat="51.260288581252098" lon="4.860015967860818">
        <ele>10</ele>
        <time>2020-06-14T12:58:31Z</time>
      </trkpt>
      <trkpt lat="51.260278187692165" lon="4.860027618706226">
        <ele>10</ele>
        <time>2020-06-14T12:58:32Z</time>
      </trkpt>
      <trkpt lat="51.260265028104186" lon="4.860034910961986">
        <ele>10</ele>
        <time>2020-06-14T12:58:33Z</time>
      </trkpt>
      <trkpt lat="51.26025153324008" lon="4.860043125227094">
        <ele>10.01</ele>
        <time>2020-06-14T12:58:34Z</time>
      </trkpt>
      <trkpt lat="51.260043662041426" lon="4.860151335597038">
        <ele>10.02</ele>
        <time>2020-06-14T12:58:49Z</time>
      </trkpt>
      <trkpt lat="51.259988425299525" lon="4.860188132151961">
        <ele>10.02</ele>
        <time>2020-06-14T12:58:54Z</time>
      </trkpt>
      <trkpt lat="51.259910305961967" lon="4.860259294509888">
        <ele>10.029999999999999</ele>
        <time>2020-06-14T12:59:00Z</time>
      </trkpt>
      <trkpt lat="51.259406553581357" lon="4.860592307522893">
        <ele>10.69</ele>
        <time>2020-06-14T12:59:33Z</time>
      </trkpt>
      <trkpt lat="51.259270012378693" lon="4.860645784065127">
        <ele>10.69</ele>
        <time>2020-06-14T12:59:41Z</time>
      </trkpt>
      <trkpt lat="51.258856784552336" lon="4.861016934737563">
        <ele>10.74</ele>
        <time>2020-06-14T13:00:14Z</time>
      </trkpt>
      <trkpt lat="51.258687051013112" lon="4.861116511747241">
        <ele>10.77</ele>
        <time>2020-06-14T13:00:29Z</time>
      </trkpt>
      <trkpt lat="51.258487561717629" lon="4.861294208094478">
        <ele>10.81</ele>
        <time>2020-06-14T13:00:45Z</time>
      </trkpt>
      <trkpt lat="51.25769354403019" lon="4.862046567723155">
        <ele>11.119999999999999</ele>
        <time>2020-06-14T13:01:52Z</time>
      </trkpt>
      <trkpt lat="51.257501766085625" lon="4.862434985116124">
        <ele>11.16</ele>
        <time>2020-06-14T13:02:11Z</time>
      </trkpt>
      <trkpt lat="51.25723522156477" lon="4.862650064751506">
        <ele>11.18</ele>
        <time>2020-06-14T13:02:30Z</time>
      </trkpt>
      <trkpt lat="51.257035816088319" lon="4.86282323487103">
        <ele>11.220000000000001</ele>
        <time>2020-06-14T13:02:43Z</time>
      </trkpt>
      <trkpt lat="51.256921235471964" lon="4.862919878214598">
        <ele>12.52</ele>
        <time>2020-06-14T13:02:51Z</time>
      </trkpt>
      <trkpt lat="51.256702970713377" lon="4.863070081919432">
        <ele>10.199999999999999</ele>
        <time>2020-06-14T13:03:06Z</time>
      </trkpt>
      <trkpt lat="51.256476324051619" lon="4.863240486010909">
        <ele>10.23</ele>
        <time>2020-06-14T13:03:22Z</time>
      </trkpt>
      <trkpt lat="51.256339196115732" lon="4.863342242315412">
        <ele>10.27</ele>
        <time>2020-06-14T13:03:34Z</time>
      </trkpt>
      <trkpt lat="51.256145238876343" lon="4.863425893709064">
        <ele>10.289999999999999</ele>
        <time>2020-06-14T13:03:47Z</time>
      </trkpt>
      <trkpt lat="51.256027724593878" lon="4.86339152790606">
        <ele>10.300000000000001</ele>
        <time>2020-06-14T13:03:56Z</time>
      </trkpt>
      <trkpt lat="51.25601657666266" lon="4.86340225674212">
        <ele>10.300000000000001</ele>
        <time>2020-06-14T13:03:57Z</time>
      </trkpt>
      <trkpt lat="51.255891267210245" lon="4.863698724657297">
        <ele>10.32</ele>
        <time>2020-06-14T13:04:13Z</time>
      </trkpt>
      <trkpt lat="51.255792025476694" lon="4.863910535350442">
        <ele>10.33</ele>
        <time>2020-06-14T13:04:27Z</time>
      </trkpt>
      <trkpt lat="51.255778446793556" lon="4.863916821777821">
        <ele>10.33</ele>
        <time>2020-06-14T13:04:28Z</time>
      </trkpt>
      <trkpt lat="51.255461862310767" lon="4.863937944173813">
        <ele>10.34</ele>
        <time>2020-06-14T13:04:51Z</time>
      </trkpt>
      <trkpt lat="51.255327584221959" lon="4.863919755443931">
        <ele>10.359999999999999</ele>
        <time>2020-06-14T13:05:01Z</time>
      </trkpt>
      <trkpt lat="51.255314256995916" lon="4.863910116255283">
        <ele>10.35</ele>
        <time>2020-06-14T13:05:02Z</time>
      </trkpt>
      <trkpt lat="51.255300929769874" lon="4.863903494551778">
        <ele>10.35</ele>
        <time>2020-06-14T13:05:03Z</time>
      </trkpt>
      <trkpt lat="51.255285674706101" lon="4.863901818171144">
        <ele>10.35</ele>
        <time>2020-06-14T13:05:04Z</time>
      </trkpt>
      <trkpt lat="51.255272934213281" lon="4.863899806514382">
        <ele>10.35</ele>
        <time>2020-06-14T13:05:05Z</time>
      </trkpt>
      <trkpt lat="51.25510479323566" lon="4.863907098770142">
        <ele>10.359999999999999</ele>
        <time>2020-06-14T13:05:18Z</time>
      </trkpt>
      <trkpt lat="51.25484243966639" lon="4.863905590027571">
        <ele>10.390000000000001</ele>
        <time>2020-06-14T13:05:37Z</time>
      </trkpt>
      <trkpt lat="51.254406245425344" lon="4.863908104598522">
        <ele>10.369999999999999</ele>
        <time>2020-06-14T13:05:46Z</time>
      </trkpt>
      <trkpt lat="51.25424045138061" lon="4.86391925252974">
        <ele>10.369999999999999</ele>
        <time>2020-06-14T13:05:49Z</time>
      </trkpt>
      <trkpt lat="51.253520110622048" lon="4.864005418494344">
        <ele>9.51</ele>
        <time>2020-06-14T13:06:02Z</time>
      </trkpt>
      <trkpt lat="51.253471998497844" lon="4.864018494263291">
        <ele>9.51</ele>
        <time>2020-06-14T13:06:03Z</time>
      </trkpt>
      <trkpt lat="51.253421036526561" lon="4.864037353545427">
        <ele>9.51</ele>
        <time>2020-06-14T13:06:04Z</time>
      </trkpt>
      <trkpt lat="51.253002360463142" lon="4.864041209220886">
        <ele>9.529999999999999</ele>
        <time>2020-06-14T13:06:12Z</time>
      </trkpt>
      <trkpt lat="51.252954415977001" lon="4.864021008834243">
        <ele>9.529999999999999</ele>
        <time>2020-06-14T13:06:13Z</time>
      </trkpt>
      <trkpt lat="51.252780072391033" lon="4.863952612504363">
        <ele>9.539999999999999</ele>
        <time>2020-06-14T13:06:16Z</time>
      </trkpt>
      <trkpt lat="51.252745119854808" lon="4.863914893940091">
        <ele>9.539999999999999</ele>
        <time>2020-06-14T13:06:17Z</time>
      </trkpt>
      <trkpt lat="51.252669850364327" lon="4.863853203132749">
        <ele>9.550000000000001</ele>
        <time>2020-06-14T13:06:19Z</time>
      </trkpt>
      <trkpt lat="51.252585193142295" lon="4.863799223676324">
        <ele>9.539999999999999</ele>
        <time>2020-06-14T13:06:21Z</time>
      </trkpt>
      <trkpt lat="51.252533225342631" lon="4.863768294453621">
        <ele>9.539999999999999</ele>
        <time>2020-06-14T13:06:22Z</time>
      </trkpt>
      <trkpt lat="51.252489639446139" lon="4.863724121823907">
        <ele>9.539999999999999</ele>
        <time>2020-06-14T13:06:23Z</time>
      </trkpt>
      <trkpt lat="51.252440772950649" lon="4.863687409088016">
        <ele>9.529999999999999</ele>
        <time>2020-06-14T13:06:24Z</time>
      </trkpt>
      <trkpt lat="51.252393079921603" lon="4.863645164296031">
        <ele>9.529999999999999</ele>
        <time>2020-06-14T13:06:25Z</time>
      </trkpt>
      <trkpt lat="51.252347314730287" lon="4.863606104627252">
        <ele>9.529999999999999</ele>
        <time>2020-06-14T13:06:26Z</time>
      </trkpt>
      <trkpt lat="51.251974068582058" lon="4.863379960879684">
        <ele>9.49</ele>
        <time>2020-06-14T13:06:45Z</time>
      </trkpt>
      <trkpt lat="51.251851357519627" lon="4.863279964774847">
        <ele>9.460000000000001</ele>
        <time>2020-06-14T13:06:51Z</time>
      </trkpt>
      <trkpt lat="51.251684725284576" lon="4.863206036388874">
        <ele>9.4</ele>
        <time>2020-06-14T13:07:06Z</time>
      </trkpt>
      <trkpt lat="51.25137803144753" lon="4.862963799387217">
        <ele>9.33</ele>
        <time>2020-06-14T13:07:27Z</time>
      </trkpt>
      <trkpt lat="51.251020794734359" lon="4.862782498821616">
        <ele>9.300000000000001</ele>
        <time>2020-06-14T13:07:37Z</time>
      </trkpt>
      <trkpt lat="51.250750394538045" lon="4.862619554623961">
        <ele>9.289999999999999</ele>
        <time>2020-06-14T13:07:43Z</time>
      </trkpt>
      <trkpt lat="51.250703455880284" lon="4.862586865201592">
        <ele>9.289999999999999</ele>
        <time>2020-06-14T13:07:44Z</time>
      </trkpt>
      <trkpt lat="51.250542858615518" lon="4.862498436123133">
        <ele>9.279999999999999</ele>
        <time>2020-06-14T13:07:47Z</time>
      </trkpt>
      <trkpt lat="51.250229375436902" lon="4.862278075888753">
        <ele>9.279999999999999</ele>
        <time>2020-06-14T13:07:56Z</time>
      </trkpt>
      <trkpt lat="51.250148909166455" lon="4.862208003178239">
        <ele>9.279999999999999</ele>
        <time>2020-06-14T13:07:59Z</time>
      </trkpt>
      <trkpt lat="51.250114627182484" lon="4.862169697880745">
        <ele>9.279999999999999</ele>
        <time>2020-06-14T13:08:00Z</time>
      </trkpt>
      <trkpt lat="51.250084200873971" lon="4.862133152782917">
        <ele>9.27</ele>
        <time>2020-06-14T13:08:01Z</time>
      </trkpt>
      <trkpt lat="51.250058133155107" lon="4.862122675403953">
        <ele>9.27</ele>
        <time>2020-06-14T13:08:02Z</time>
      </trkpt>
      <trkpt lat="51.250020833685994" lon="4.862076826393604">
        <ele>9.27</ele>
        <time>2020-06-14T13:08:03Z</time>
      </trkpt>
      <trkpt lat="51.249974062666297" lon="4.862024020403624">
        <ele>9.27</ele>
        <time>2020-06-14T13:08:04Z</time>
      </trkpt>
      <trkpt lat="51.249664099887013" lon="4.86181422136724">
        <ele>9.210000000000001</ele>
        <time>2020-06-14T13:08:15Z</time>
      </trkpt>
      <trkpt lat="51.249563600867987" lon="4.861733000725508">
        <ele>9.17</ele>
        <time>2020-06-14T13:08:21Z</time>
      </trkpt>
      <trkpt lat="51.249287417158484" lon="4.861538959667087">
        <ele>9.029999999999999</ele>
        <time>2020-06-14T13:08:38Z</time>
      </trkpt>
      <trkpt lat="51.249068649485707" lon="4.861409878358245">
        <ele>8.960000000000001</ele>
        <time>2020-06-14T13:08:52Z</time>
      </trkpt>
      <trkpt lat="51.248880224302411" lon="4.861264368519187">
        <ele>8.93</ele>
        <time>2020-06-14T13:09:05Z</time>
      </trkpt>
      <trkpt lat="51.248667910695076" lon="4.861125396564603">
        <ele>8.9</ele>
        <time>2020-06-14T13:09:20Z</time>
      </trkpt>
      <trkpt lat="51.248388458043337" lon="4.860982485115528">
        <ele>8.92</ele>
        <time>2020-06-14T13:09:42Z</time>
      </trkpt>
      <trkpt lat="51.248094756156206" lon="4.860760364681482">
        <ele>8.94</ele>
        <time>2020-06-14T13:10:04Z</time>
      </trkpt>
      <trkpt lat="51.24777196906507" lon="4.860531957820058">
        <ele>8.970000000000001</ele>
        <time>2020-06-14T13:10:26Z</time>
      </trkpt>
      <trkpt lat="51.247482625767589" lon="4.860361553728581">
        <ele>9.029999999999999</ele>
        <time>2020-06-14T13:10:47Z</time>
      </trkpt>
      <trkpt lat="51.247447086498141" lon="4.860344119369984">
        <ele>4.1</ele>
        <time>2020-06-14T13:10:50Z</time>
      </trkpt>
      <trkpt lat="51.247421270236373" lon="4.860327942296863">
        <ele>12.960000000000001</ele>
        <time>2020-06-14T13:10:52Z</time>
      </trkpt>
      <trkpt lat="51.247406350448728" lon="4.860313860699534">
        <ele>12.960000000000001</ele>
        <time>2020-06-14T13:10:53Z</time>
      </trkpt>
      <trkpt lat="51.247381791472435" lon="4.86030388623476">
        <ele>10.550000000000001</ele>
        <time>2020-06-14T13:10:55Z</time>
      </trkpt>
      <trkpt lat="51.247168304398656" lon="4.86013138666749">
        <ele>10.58</ele>
        <time>2020-06-14T13:11:13Z</time>
      </trkpt>
      <trkpt lat="51.246821796521544" lon="4.859887305647135">
        <ele>10.59</ele>
        <time>2020-06-14T13:11:31Z</time>
      </trkpt>
      <trkpt lat="51.246864963322878" lon="4.859682200476527">
        <ele>10.56</ele>
        <time>2020-06-14T13:11:42Z</time>
      </trkpt>
      <trkpt lat="51.246891869232059" lon="4.859500229358673">
        <ele>10.539999999999999</ele>
        <time>2020-06-14T13:11:50Z</time>
      </trkpt>
      <trkpt lat="51.24692958779633" lon="4.859029417857528">
        <ele>10.42</ele>
        <time>2020-06-14T13:12:14Z</time>
      </trkpt>
      <trkpt lat="51.246969988569617" lon="4.858706211671233">
        <ele>10.34</ele>
        <time>2020-06-14T13:12:27Z</time>
      </trkpt>
      <trkpt lat="51.247028158977628" lon="4.858301365748048">
        <ele>10.18</ele>
        <time>2020-06-14T13:12:46Z</time>
      </trkpt>
      <trkpt lat="51.247152294963598" lon="4.857420176267624">
        <ele>9.74</ele>
        <time>2020-06-14T13:13:29Z</time>
      </trkpt>
      <trkpt lat="51.247355807572603" lon="4.857476754114032">
        <ele>9.560000000000001</ele>
        <time>2020-06-14T13:13:46Z</time>
      </trkpt>
      <trkpt lat="51.247417414560914" lon="4.857508772984147">
        <ele>9.51</ele>
        <time>2020-06-14T13:13:51Z</time>
      </trkpt>
      <trkpt lat="51.247462593019009" lon="4.857543222606182">
        <ele>9.48</ele>
        <time>2020-06-14T13:13:54Z</time>
      </trkpt>
      <trkpt lat="51.247678175568581" lon="4.857655875384808">
        <ele>9.35</ele>
        <time>2020-06-14T13:14:08Z</time>
      </trkpt>
      <trkpt lat="51.248041111975908" lon="4.857855197042227">
        <ele>9.15</ele>
        <time>2020-06-14T13:14:30Z</time>
      </trkpt>
      <trkpt lat="51.248171953484416" lon="4.85790858976543">
        <ele>9.050000000000001</ele>
        <time>2020-06-14T13:14:42Z</time>
      </trkpt>
      <trkpt lat="51.248193578794599" lon="4.857941949740052">
        <ele>9.039999999999999</ele>
        <time>2020-06-14T13:14:43Z</time>
      </trkpt>
    </trkseg>
  </trk>

</gpx>